Darstellungsparameter: Aktuell verwendete Einstellungen:
Skalierung der Graphiken ... ?
xyx+y,   Skalierungsfaktor:      Skalierung: Modus: x, Faktor: 1
Darstellungszeitraum ... ?
Vom - - bis: - -   Zeitraum: 30.04.2020 - 06.05.2020
Min/Max/Avg-Anzeige ... ?
Zeige MMA aktuell
Zeige MMA Monat
Zeige MMA alles
Zeige --A aktuell
Zeige --A Monat
Zeige --A alles
Keine MMA-Anzeige
MMA:
Average (ber die Originaldaten)
MMA-Basis: 30.04.2020 - 06.05.2020
Quicknavigation für Darstellung... ?
Tage:      1T, 2T, 3T, 5T -1T -2T -3T -5T +1T +2T +3T +5T
Wochen: 1W, 2W, 3W -1W -2W -3W +1W +2W +3W
Monate: 1M, 3M, 6M -1M -3M -6M +1M +3M +6M
Jahre:    1J, 3J, 5J, 10J -1J -3J -5J -10J +1J +3J +5J +10J
Nutze für die Darstellung ... ?
Originaldaten oder Mittelwerte auf ...
Stundenbasis Tagesbasis Wochenbasis
Monatsbasis Jahresbasis      Datenbasis: Original-Daten
Darstellen als:
Statistik (Auto) Statistik J:M      Darstellung:
Zur Graphik,    zurück zur Übersicht aller Sensoren.
 
Tabellarische Datenbersicht: ?
 
Sensor: Nr:Datum:Temp:Abs-Feuchte:Windchill:Wind:
Aussen-T/F 1 30-04-2020 00:00:00 13.2 C 9.42 g/m*3 13.2 C 11.3 km/h
2 30-04-2020 00:05:00 13.2 C 9.3 g/m*3 13.2 C 1.6 km/h
3 30-04-2020 00:10:00 13.2 C 9.3 g/m*3 13.2 C 8.1 km/h
4 30-04-2020 00:15:00 13.2 C 9.3 g/m*3 13.2 C 1.6 km/h
5 30-04-2020 00:20:00 13.2 C 9.42 g/m*3 13.2 C 0 km/h
6 30-04-2020 00:25:00 13.2 C 9.3 g/m*3 13.2 C 3.2 km/h
7 30-04-2020 00:30:00 13.2 C 9.3 g/m*3 13.2 C 3.2 km/h
8 30-04-2020 00:35:00 13.2 C 9.3 g/m*3 13.2 C 3.2 km/h
9 30-04-2020 00:40:00 13.3 C 9.36 g/m*3 13.3 C 3.2 km/h
10 30-04-2020 00:45:00 13.2 C 9.19 g/m*3 13.2 C 8.1 km/h
11 30-04-2020 00:50:00 13.3 C 9.36 g/m*3 13.3 C 0 km/h
12 30-04-2020 00:55:00 13.3 C 9.36 g/m*3 13.3 C 0 km/h
13 30-04-2020 01:00:00 13.3 C 9.24 g/m*3 13.3 C 3.2 km/h
14 30-04-2020 01:05:00 13.3 C 9.24 g/m*3 13.3 C 3.2 km/h
15 30-04-2020 01:10:00 13.3 C 9.13 g/m*3 13.3 C 4.8 km/h
16 30-04-2020 01:15:00 13.4 C 9.18 g/m*3 13.4 C 8.1 km/h
17 30-04-2020 01:20:00 13.4 C 9.18 g/m*3 13.4 C 4.8 km/h
18 30-04-2020 01:25:00 13.4 C 9.18 g/m*3 13.4 C 8.1 km/h
19 30-04-2020 01:30:00 13.4 C 9.18 g/m*3 13.4 C 3.2 km/h
20 30-04-2020 01:35:00 13.4 C 9.18 g/m*3 13.4 C 4.8 km/h
21 30-04-2020 01:40:00 13.5 C 9.12 g/m*3 13.5 C 6.4 km/h
22 30-04-2020 01:45:00 13.6 C 9.18 g/m*3 13.6 C 3.2 km/h
23 30-04-2020 01:50:00 13.6 C 9.42 g/m*3 13.6 C 0 km/h
24 30-04-2020 01:55:00 13.6 C 9.42 g/m*3 13.6 C 14.5 km/h
25 30-04-2020 02:00:00 13.4 C 9.53 g/m*3 13.4 C 14.5 km/h
Sensor: Nr:Datum:Temp:Abs-Feuchte:Windchill:Wind:
Aussen-T/F 26 30-04-2020 02:05:00 13.3 C 9.47 g/m*3 13.3 C 9.7 km/h
27 30-04-2020 02:10:00 13.2 C 9.64 g/m*3 13.2 C 1.6 km/h
28 30-04-2020 02:15:00 13 C 9.53 g/m*3 13 C 4.8 km/h
29 30-04-2020 02:20:00 12.8 C 9.41 g/m*3 12.8 C 4.8 km/h
30 30-04-2020 02:25:00 12.7 C 9.46 g/m*3 12.7 C 3.2 km/h
31 30-04-2020 02:30:00 12.6 C 9.4 g/m*3 12.6 C 3.2 km/h
32 30-04-2020 02:35:00 12.4 C 9.18 g/m*3 12.4 C 4.8 km/h
33 30-04-2020 02:40:00 12.4 C 9.18 g/m*3 12.4 C 1.6 km/h
34 30-04-2020 02:45:00 12.3 C 9.12 g/m*3 12.3 C 3.2 km/h
35 30-04-2020 02:50:00 12.2 C 9.06 g/m*3 12.2 C 1.6 km/h
36 30-04-2020 02:55:00 12.2 C 8.96 g/m*3 12.2 C 6.4 km/h
37 30-04-2020 03:00:00 12.2 C 8.96 g/m*3 12.2 C 1.6 km/h
38 30-04-2020 03:05:00 12.2 C 9.06 g/m*3 12.2 C 4.8 km/h
39 30-04-2020 03:10:00 12.1 C 9.01 g/m*3 12.1 C 4.8 km/h
40 30-04-2020 03:15:00 12.2 C 9.06 g/m*3 12.2 C 1.6 km/h
41 30-04-2020 03:20:00 12.1 C 9.01 g/m*3 12.1 C 4.8 km/h
42 30-04-2020 03:25:00 12.1 C 9.01 g/m*3 12.1 C 3.2 km/h
43 30-04-2020 03:30:00 12.1 C 9.12 g/m*3 12.1 C 0 km/h
44 30-04-2020 03:35:00 11.9 C 9.11 g/m*3 11.9 C 3.2 km/h
45 30-04-2020 03:40:00 11.9 C 9.11 g/m*3 11.9 C 0 km/h
46 30-04-2020 03:45:00 11.8 C 9.16 g/m*3 11.8 C 0 km/h
47 30-04-2020 03:50:00 11.8 C 9.16 g/m*3 11.8 C 6.4 km/h
48 30-04-2020 03:55:00 11.7 C 9.1 g/m*3 11.7 C 3.2 km/h
49 30-04-2020 04:00:00 11.7 C 9.2 g/m*3 11.7 C 0 km/h
50 30-04-2020 04:05:00 11.7 C 9.2 g/m*3 11.7 C 0 km/h
Sensor: Nr:Datum:Temp:Abs-Feuchte:Windchill:Wind:
Aussen-T/F 51 30-04-2020 04:10:00 11.7 C 9.31 g/m*3 11.7 C 0 km/h
52 30-04-2020 04:15:00 11.6 C 9.25 g/m*3 11.6 C 0 km/h
53 30-04-2020 04:20:00 11.6 C 9.35 g/m*3 11.6 C 0 km/h
54 30-04-2020 04:25:00 11.5 C 9.3 g/m*3 11.5 C 3.2 km/h
55 30-04-2020 04:30:00 11.4 C 9.34 g/m*3 11.4 C 3.2 km/h
56 30-04-2020 04:35:00 11.4 C 9.34 g/m*3 11.4 C 0 km/h
57 30-04-2020 04:40:00 11.4 C 9.34 g/m*3 11.4 C 0 km/h
58 30-04-2020 04:45:00 11.3 C 9.38 g/m*3 11.3 C 0 km/h
59 30-04-2020 04:50:00 11.3 C 9.38 g/m*3 11.3 C 0 km/h
60 30-04-2020 04:55:00 11.3 C 9.38 g/m*3 11.3 C 0 km/h
61 30-04-2020 05:00:00 11.3 C 9.38 g/m*3 11.3 C 1.6 km/h
62 30-04-2020 05:05:00 11.3 C 9.49 g/m*3 11.3 C 0 km/h
63 30-04-2020 05:10:00 11.3 C 9.49 g/m*3 11.3 C 0 km/h
64 30-04-2020 05:15:00 11.3 C 9.49 g/m*3 11.3 C 1.6 km/h
65 30-04-2020 05:20:00 11.3 C 9.49 g/m*3 11.3 C 0 km/h
66 30-04-2020 05:25:00 11.3 C 9.49 g/m*3 11.3 C 1.6 km/h
67 30-04-2020 05:30:00 11.3 C 9.59 g/m*3 11.3 C 1.6 km/h
68 30-04-2020 05:35:00 11.3 C 9.59 g/m*3 11.3 C 1.6 km/h
69 30-04-2020 05:40:00 11.3 C 9.59 g/m*3 11.3 C 3.2 km/h
70 30-04-2020 05:45:00 11.3 C 9.59 g/m*3 11.3 C 0 km/h
71 30-04-2020 05:50:00 11.3 C 9.59 g/m*3 11.3 C 1.6 km/h
72 30-04-2020 05:55:00 11.2 C 9.53 g/m*3 11.2 C 1.6 km/h
73 30-04-2020 06:00:00 11.2 C 9.53 g/m*3 11.2 C 6.4 km/h
74 30-04-2020 06:05:00 11.2 C 9.53 g/m*3 11.2 C 8.1 km/h
75 30-04-2020 06:10:00 11.2 C 9.53 g/m*3 11.2 C 1.6 km/h
Sensor: Nr:Datum:Temp:Abs-Feuchte:Windchill:Wind:
Aussen-T/F 76 30-04-2020 06:15:00 11.2 C 9.53 g/m*3 11.2 C 1.6 km/h
77 30-04-2020 06:20:00 11.2 C 9.53 g/m*3 11.2 C 3.2 km/h
78 30-04-2020 06:25:00 11.2 C 9.53 g/m*3 11.2 C 1.6 km/h
79 30-04-2020 06:30:00 11.2 C 9.53 g/m*3 11.2 C 3.2 km/h
80 30-04-2020 06:35:00 11.2 C 9.53 g/m*3 11.2 C 0 km/h
81 30-04-2020 06:40:00 11.2 C 9.53 g/m*3 11.2 C 1.6 km/h
82 30-04-2020 06:45:00 11.2 C 9.53 g/m*3 11.2 C 0 km/h
83 30-04-2020 06:50:00 11.2 C 9.63 g/m*3 11.2 C 3.2 km/h
84 30-04-2020 06:55:00 11.2 C 9.63 g/m*3 11.2 C 0 km/h
85 30-04-2020 07:00:00 11.2 C 9.63 g/m*3 11.2 C 11.3 km/h
86 30-04-2020 07:05:00 11.1 C 9.47 g/m*3 11.1 C 9.7 km/h
87 30-04-2020 07:10:00 10.9 C 9.35 g/m*3 10.04 C 8.1 km/h
88 30-04-2020 07:15:00 10.8 C 9.29 g/m*3 9.64 C 9.7 km/h
89 30-04-2020 07:20:00 10.7 C 9.23 g/m*3 10.7 C 1.6 km/h
90 30-04-2020 07:25:00 10.6 C 9.17 g/m*3 9.69 C 8.1 km/h
91 30-04-2020 07:30:00 10.6 C 9.17 g/m*3 10.06 C 6.4 km/h
92 30-04-2020 07:35:00 10.6 C 9.17 g/m*3 10.06 C 6.4 km/h
93 30-04-2020 07:40:00 10.6 C 9.17 g/m*3 9.4 C 9.7 km/h
94 30-04-2020 07:45:00 10.6 C 9.17 g/m*3 10.6 C 3.2 km/h
95 30-04-2020 07:50:00 10.5 C 9.12 g/m*3 10.5 C 4.8 km/h
96 30-04-2020 07:55:00 10.4 C 9.06 g/m*3 10.4 C 4.8 km/h
97 30-04-2020 08:00:00 10.4 C 9.06 g/m*3 9.16 C 9.7 km/h
98 30-04-2020 08:05:00 10.3 C 9 g/m*3 9.34 C 8.1 km/h
99 30-04-2020 08:10:00 10.3 C 9 g/m*3 9.04 C 9.7 km/h
100 30-04-2020 08:15:00 10.2 C 8.95 g/m*3 9.6 C 6.4 km/h
Sensor: Nr:Datum:Temp:Abs-Feuchte:Windchill:Wind:
Aussen-T/F 101 30-04-2020 08:20:00 10.2 C 8.95 g/m*3 10.2 C 4.8 km/h
102 30-04-2020 08:25:00 10.2 C 8.95 g/m*3 10.2 C 3.2 km/h
103 30-04-2020 08:30:00 10.4 C 9.06 g/m*3 8.67 C 12.9 km/h
104 30-04-2020 08:35:00 10.6 C 9.17 g/m*3 9.14 C 11.3 km/h
105 30-04-2020 08:40:00 10.7 C 9.23 g/m*3 9.52 C 9.7 km/h
106 30-04-2020 08:45:00 10.8 C 9.29 g/m*3 10.8 C 3.2 km/h
107 30-04-2020 08:50:00 10.8 C 9.19 g/m*3 9.38 C 11.3 km/h
108 30-04-2020 08:55:00 10.8 C 9.19 g/m*3 9.64 C 9.7 km/h
109 30-04-2020 09:00:00 10.9 C 9.25 g/m*3 9.51 C 11.3 km/h
110 30-04-2020 09:05:00 11 C 9.31 g/m*3 9.88 C 9.7 km/h
111 30-04-2020 09:10:00 11.2 C 9.33 g/m*3 11.2 C 16.1 km/h
112 30-04-2020 09:15:00 11.3 C 9.28 g/m*3 11.3 C 14.5 km/h
113 30-04-2020 09:20:00 11.6 C 9.35 g/m*3 11.6 C 8.1 km/h
114 30-04-2020 09:25:00 11.7 C 9.52 g/m*3 11.7 C 8.1 km/h
115 30-04-2020 09:30:00 11.8 C 9.58 g/m*3 11.8 C 3.2 km/h
116 30-04-2020 09:35:00 11.9 C 9.53 g/m*3 11.9 C 11.3 km/h
117 30-04-2020 09:40:00 12 C 9.59 g/m*3 12 C 8.1 km/h
118 30-04-2020 09:45:00 12.1 C 9.54 g/m*3 12.1 C 8.1 km/h
119 30-04-2020 09:50:00 12.2 C 9.5 g/m*3 12.2 C 8.1 km/h
120 30-04-2020 09:55:00 12.2 C 9.5 g/m*3 12.2 C 9.7 km/h
121 30-04-2020 10:00:00 12.3 C 9.56 g/m*3 12.3 C 8.1 km/h
122 30-04-2020 10:05:00 12.6 C 9.74 g/m*3 12.6 C 12.9 km/h
123 30-04-2020 10:10:00 12.7 C 9.57 g/m*3 12.7 C 11.3 km/h
124 30-04-2020 10:15:00 12.9 C 9.69 g/m*3 12.9 C 9.7 km/h
125 30-04-2020 10:20:00 13.2 C 9.64 g/m*3 13.2 C 11.3 km/h
Sensor: Nr:Datum:Temp:Abs-Feuchte:Windchill:Wind:
Aussen-T/F 126 30-04-2020 10:25:00 13.3 C 9.36 g/m*3 13.3 C 11.3 km/h
127 30-04-2020 10:30:00 13.3 C 9.36 g/m*3 13.3 C 19.3 km/h
128 30-04-2020 10:35:00 13.3 C 9.36 g/m*3 13.3 C 14.5 km/h
129 30-04-2020 10:40:00 13.4 C 9.18 g/m*3 13.4 C 12.9 km/h
130 30-04-2020 10:45:00 13.6 C 9.06 g/m*3 13.6 C 17.7 km/h
131 30-04-2020 10:50:00 13.7 C 9.12 g/m*3 13.7 C 19.3 km/h
132 30-04-2020 10:55:00 13.7 C 9.24 g/m*3 13.7 C 12.9 km/h
133 30-04-2020 11:00:00 13.7 C 8.88 g/m*3 13.7 C 16.1 km/h
134 30-04-2020 11:05:00 13.8 C 9.17 g/m*3 13.8 C 8.1 km/h
135 30-04-2020 11:10:00 13.8 C 9.06 g/m*3 13.8 C 11.3 km/h
136 30-04-2020 11:15:00 13.8 C 9.06 g/m*3 13.8 C 11.3 km/h
137 30-04-2020 11:20:00 13.9 C 9.23 g/m*3 13.9 C 8.1 km/h
138 30-04-2020 11:25:00 13.9 C 9.47 g/m*3 13.9 C 8.1 km/h
139 30-04-2020 11:30:00 14 C 9.41 g/m*3 14 C 11.3 km/h
140 30-04-2020 11:35:00 14.1 C 9.47 g/m*3 14.1 C 6.4 km/h
141 30-04-2020 11:40:00 13.9 C 9.23 g/m*3 13.9 C 9.7 km/h
142 30-04-2020 11:45:00 13.8 C 9.41 g/m*3 13.8 C 8.1 km/h
143 30-04-2020 11:50:00 13.8 C 9.41 g/m*3 13.8 C 9.7 km/h
144 30-04-2020 11:55:00 13.8 C 9.17 g/m*3 13.8 C 12.9 km/h
145 30-04-2020 12:00:00 13.9 C 9.11 g/m*3 13.9 C 11.3 km/h
146 30-04-2020 12:05:00 13.9 C 8.87 g/m*3 13.9 C 17.7 km/h
147 30-04-2020 12:10:00 13.9 C 8.87 g/m*3 13.9 C 16.1 km/h
148 30-04-2020 12:15:00 13.9 C 8.75 g/m*3 13.9 C 16.1 km/h
149 30-04-2020 12:20:00 13.9 C 8.75 g/m*3 13.9 C 12.9 km/h
150 30-04-2020 12:25:00 14 C 8.56 g/m*3 14 C 14.5 km/h
Sensor: Nr:Datum:Temp:Abs-Feuchte:Windchill:Wind:
Aussen-T/F 151 30-04-2020 12:30:00 14 C 8.93 g/m*3 14 C 11.3 km/h
152 30-04-2020 12:35:00 14.1 C 8.86 g/m*3 14.1 C 17.7 km/h
153 30-04-2020 12:40:00 13.9 C 8.39 g/m*3 13.9 C 17.7 km/h
154 30-04-2020 12:45:00 13.8 C 8.34 g/m*3 13.8 C 14.5 km/h
155 30-04-2020 12:50:00 13.9 C 8.39 g/m*3 13.9 C 17.7 km/h
156 30-04-2020 12:55:00 13.9 C 8.03 g/m*3 13.9 C 29 km/h
157 30-04-2020 13:00:00 13.8 C 8.22 g/m*3 13.8 C 29 km/h
158 30-04-2020 13:05:00 13.8 C 8.1 g/m*3 13.8 C 19.3 km/h
159 30-04-2020 13:10:00 13.8 C 8.22 g/m*3 13.8 C 14.5 km/h
160 30-04-2020 13:15:00 13.9 C 8.15 g/m*3 13.9 C 14.5 km/h
161 30-04-2020 13:20:00 14 C 8.2 g/m*3 14 C 14.5 km/h
162 30-04-2020 13:25:00 13.9 C 7.91 g/m*3 13.9 C 19.3 km/h
163 30-04-2020 13:30:00 13.9 C 8.03 g/m*3 13.9 C 16.1 km/h
164 30-04-2020 13:35:00 14 C 8.08 g/m*3 14 C 17.7 km/h
165 30-04-2020 13:40:00 14.1 C 7.89 g/m*3 14.1 C 12.9 km/h
166 30-04-2020 13:45:00 14.3 C 8.11 g/m*3 14.3 C 14.5 km/h
167 30-04-2020 13:50:00 14.6 C 8.26 g/m*3 14.6 C 12.9 km/h
168 30-04-2020 13:55:00 14.8 C 7.98 g/m*3 14.8 C 16.1 km/h
169 30-04-2020 14:00:00 14.9 C 8.03 g/m*3 14.9 C 20.9 km/h
170 30-04-2020 14:05:00 15.1 C 8.26 g/m*3 15.1 C 16.1 km/h
171 30-04-2020 14:10:00 15.5 C 8.2 g/m*3 15.5 C 14.5 km/h
172 30-04-2020 14:15:00 15.6 C 7.85 g/m*3 15.6 C 20.9 km/h
173 30-04-2020 14:20:00 15.4 C 7.88 g/m*3 15.4 C 17.7 km/h
174 30-04-2020 14:25:00 15.3 C 8.1 g/m*3 15.3 C 12.9 km/h
175 30-04-2020 14:30:00 15.4 C 8.01 g/m*3 15.4 C 14.5 km/h
Sensor: Nr:Datum:Temp:Abs-Feuchte:Windchill:Wind:
Aussen-T/F 176 30-04-2020 14:35:00 15.8 C 8.21 g/m*3 15.8 C 17.7 km/h
177 30-04-2020 14:40:00 15.9 C 7.99 g/m*3 15.9 C 17.7 km/h
178 30-04-2020 14:45:00 15.8 C 7.94 g/m*3 15.8 C 17.7 km/h
179 30-04-2020 14:50:00 15.8 C 8.08 g/m*3 15.8 C 17.7 km/h
180 30-04-2020 14:55:00 15.8 C 8.08 g/m*3 15.8 C 16.1 km/h
181 30-04-2020 15:00:00 15.9 C 8.4 g/m*3 15.9 C 9.7 km/h
182 30-04-2020 15:05:00 16.2 C 8 g/m*3 16.2 C 17.7 km/h
183 30-04-2020 15:10:00 16.3 C 8.19 g/m*3 16.3 C 14.5 km/h
184 30-04-2020 15:15:00 16.3 C 8.05 g/m*3 16.3 C 11.3 km/h
185 30-04-2020 15:20:00 16.2 C 7.86 g/m*3 16.2 C 12.9 km/h
186 30-04-2020 15:25:00 16.1 C 7.95 g/m*3 16.1 C 11.3 km/h
187 30-04-2020 15:30:00 16.1 C 7.95 g/m*3 16.1 C 11.3 km/h
188 30-04-2020 15:35:00 15.8 C 7.81 g/m*3 15.8 C 11.3 km/h
189 30-04-2020 15:40:00 15.6 C 7.71 g/m*3 15.6 C 14.5 km/h
190 30-04-2020 15:45:00 15.4 C 7.75 g/m*3 15.4 C 9.7 km/h
191 30-04-2020 15:50:00 15.4 C 8.01 g/m*3 15.4 C 4.8 km/h
192 30-04-2020 15:55:00 15.3 C 8.1 g/m*3 15.3 C 3.2 km/h
193 30-04-2020 16:00:00 15.4 C 8.15 g/m*3 15.4 C 1.6 km/h
194 30-04-2020 16:05:00 15.4 C 8.01 g/m*3 15.4 C 4.8 km/h
195 30-04-2020 16:10:00 15.5 C 7.93 g/m*3 15.5 C 4.8 km/h
196 30-04-2020 16:15:00 15.6 C 8.25 g/m*3 15.6 C 4.8 km/h
197 30-04-2020 16:20:00 15.7 C 8.3 g/m*3 15.7 C 11.3 km/h
198 30-04-2020 16:25:00 15.7 C 8.3 g/m*3 15.7 C 6.4 km/h
199 30-04-2020 16:30:00 15.7 C 8.43 g/m*3 15.7 C 8.1 km/h
200 30-04-2020 16:35:00 15.7 C 8.43 g/m*3 15.7 C 6.4 km/h
Sensor: Nr:Datum:Temp:Abs-Feuchte:Windchill:Wind:
Aussen-T/F 201 30-04-2020 16:40:00 15.7 C 8.3 g/m*3 15.7 C 6.4 km/h
202 30-04-2020 16:45:00 15.7 C 8.3 g/m*3 15.7 C 6.4 km/h
203 30-04-2020 16:50:00 15.7 C 8.16 g/m*3 15.7 C 8.1 km/h
204 30-04-2020 16:55:00 15.6 C 8.38 g/m*3 15.6 C 6.4 km/h
205 30-04-2020 17:00:00 15.4 C 8.41 g/m*3 15.4 C 1.6 km/h
206 30-04-2020 17:05:00 15.3 C 8.49 g/m*3 15.3 C 11.3 km/h
207 30-04-2020 17:10:00 15 C 9.1 g/m*3 15 C 4.8 km/h
208 30-04-2020 17:15:00 14.5 C 9.08 g/m*3 14.5 C 16.1 km/h
209 30-04-2020 17:20:00 14.1 C 9.34 g/m*3 14.1 C 4.8 km/h
210 30-04-2020 17:25:00 13.6 C 9.3 g/m*3 13.6 C 8.1 km/h
211 30-04-2020 17:30:00 13.1 C 9.24 g/m*3 13.1 C 9.7 km/h
212 30-04-2020 17:35:00 12.6 C 9.18 g/m*3 12.6 C 12.9 km/h
213 30-04-2020 17:40:00 12.1 C 9.12 g/m*3 12.1 C 9.7 km/h
214 30-04-2020 17:45:00 11.8 C 9.05 g/m*3 11.8 C 14.5 km/h
215 30-04-2020 17:50:00 11.6 C 9.15 g/m*3 11.6 C 11.3 km/h
216 30-04-2020 17:55:00 11.4 C 9.03 g/m*3 11.4 C 9.7 km/h
217 30-04-2020 18:00:00 11.3 C 9.08 g/m*3 11.3 C 11.3 km/h
218 30-04-2020 18:05:00 11.2 C 9.12 g/m*3 11.2 C 8.1 km/h
219 30-04-2020 18:10:00 11.2 C 9.12 g/m*3 11.2 C 11.3 km/h
220 30-04-2020 18:15:00 11.1 C 9.07 g/m*3 11.1 C 11.3 km/h
221 30-04-2020 18:20:00 11 C 9.11 g/m*3 10.52 C 6.4 km/h
222 30-04-2020 18:25:00 10.9 C 8.95 g/m*3 9.76 C 9.7 km/h
223 30-04-2020 18:30:00 10.9 C 9.05 g/m*3 10.9 C 3.2 km/h
224 30-04-2020 18:35:00 10.8 C 8.99 g/m*3 10.29 C 6.4 km/h
225 30-04-2020 18:40:00 10.7 C 8.94 g/m*3 9.04 C 12.9 km/h
Sensor: Nr:Datum:Temp:Abs-Feuchte:Windchill:Wind:
Aussen-T/F 226 30-04-2020 18:45:00 10.6 C 8.88 g/m*3 8.71 C 14.5 km/h
227 30-04-2020 18:50:00 10.5 C 8.83 g/m*3 8.23 C 17.7 km/h
228 30-04-2020 18:55:00 10.4 C 8.77 g/m*3 8.9 C 11.3 km/h
229 30-04-2020 19:00:00 10.3 C 8.71 g/m*3 7.82 C 19.3 km/h
230 30-04-2020 19:05:00 10.2 C 8.66 g/m*3 8.22 C 14.5 km/h
231 30-04-2020 19:10:00 10 C 8.55 g/m*3 8.19 C 12.9 km/h
232 30-04-2020 19:15:00 9.9 C 8.5 g/m*3 8.87 C 8.1 km/h
233 30-04-2020 19:20:00 10.2 C 8.85 g/m*3 10.2 C 3.2 km/h
234 30-04-2020 19:25:00 10.6 C 9.08 g/m*3 10.6 C 4.8 km/h
235 30-04-2020 19:30:00 10.8 C 8.99 g/m*3 10.8 C 4.8 km/h
236 30-04-2020 19:35:00 11.1 C 9.27 g/m*3 11.1 C 3.2 km/h
237 30-04-2020 19:40:00 11.1 C 9.17 g/m*3 11.1 C 6.4 km/h
238 30-04-2020 19:45:00 11.2 C 9.22 g/m*3 11.2 C 0 km/h
239 30-04-2020 19:50:00 11.2 C 9.22 g/m*3 11.2 C 1.6 km/h
240 30-04-2020 19:55:00 11.3 C 9.28 g/m*3 11.3 C 1.6 km/h
241 30-04-2020 20:00:00 11.2 C 9.22 g/m*3 11.2 C 1.6 km/h
242 30-04-2020 20:05:00 11.1 C 9.17 g/m*3 11.1 C 1.6 km/h
243 30-04-2020 20:10:00 10.9 C 9.05 g/m*3 10.9 C 0 km/h
244 30-04-2020 20:15:00 10.8 C 8.99 g/m*3 10.8 C 0 km/h
245 30-04-2020 20:20:00 10.7 C 8.94 g/m*3 10.7 C 1.6 km/h
246 30-04-2020 20:25:00 10.5 C 8.83 g/m*3 10.5 C 1.6 km/h
247 30-04-2020 20:30:00 10.3 C 8.71 g/m*3 10.3 C 3.2 km/h
248 30-04-2020 20:35:00 10.2 C 8.66 g/m*3 10.2 C 4.8 km/h
249 30-04-2020 20:40:00 9.9 C 8.5 g/m*3 9.9 C 4.8 km/h
250 30-04-2020 20:45:00 9.8 C 8.44 g/m*3 9.8 C 1.6 km/h
Sensor: Nr:Datum:Temp:Abs-Feuchte:Windchill:Wind:
Aussen-T/F 251 30-04-2020 20:50:00 9.6 C 8.34 g/m*3 9.6 C 0 km/h
252 30-04-2020 20:55:00 9.5 C 8.37 g/m*3 9.5 C 0 km/h
253 30-04-2020 21:00:00 9.4 C 8.32 g/m*3 9.4 C 0 km/h
254 30-04-2020 21:05:00 9.4 C 8.32 g/m*3 9.4 C 0 km/h
255 30-04-2020 21:10:00 9.3 C 8.36 g/m*3 9.3 C 3.2 km/h
256 30-04-2020 21:15:00 9.3 C 8.36 g/m*3 9.3 C 3.2 km/h
257 30-04-2020 21:20:00 9.3 C 8.36 g/m*3 9.3 C 0 km/h
258 30-04-2020 21:25:00 9.4 C 8.41 g/m*3 9.4 C 0 km/h
259 30-04-2020 21:30:00 9.4 C 8.5 g/m*3 9.4 C 1.6 km/h
260 30-04-2020 21:35:00 9.4 C 8.5 g/m*3 9.4 C 0 km/h
261 30-04-2020 21:40:00 9.5 C 8.56 g/m*3 9.5 C 0 km/h
262 30-04-2020 21:45:00 9.5 C 8.56 g/m*3 9.5 C 1.6 km/h
263 30-04-2020 21:50:00 9.6 C 8.61 g/m*3 9.6 C 1.6 km/h
264 30-04-2020 21:55:00 9.6 C 8.61 g/m*3 9.6 C 1.6 km/h
265 30-04-2020 22:00:00 9.6 C 8.61 g/m*3 9.6 C 0 km/h
266 30-04-2020 22:05:00 9.5 C 8.56 g/m*3 9.5 C 3.2 km/h
267 30-04-2020 22:10:00 9.3 C 8.45 g/m*3 9.3 C 3.2 km/h
268 30-04-2020 22:15:00 9.2 C 8.39 g/m*3 9.2 C 3.2 km/h
269 30-04-2020 22:20:00 9.1 C 8.34 g/m*3 9.1 C 4.8 km/h
270 30-04-2020 22:25:00 9.1 C 8.34 g/m*3 9.1 C 3.2 km/h
271 30-04-2020 22:30:00 9.2 C 8.48 g/m*3 9.2 C 0 km/h
272 30-04-2020 22:35:00 9.3 C 8.54 g/m*3 9.3 C 0 km/h
273 30-04-2020 22:40:00 9.2 C 8.48 g/m*3 9.2 C 0 km/h
274 30-04-2020 22:45:00 9.2 C 8.48 g/m*3 8.45 C 6.4 km/h
275 30-04-2020 22:50:00 9.1 C 8.43 g/m*3 9.1 C 3.2 km/h
Sensor: Nr:Datum:Temp:Abs-Feuchte:Windchill:Wind:
Aussen-T/F 276 30-04-2020 22:55:00 9 C 8.38 g/m*3 9 C 0 km/h
277 30-04-2020 23:00:00 9.1 C 8.43 g/m*3 9.1 C 1.6 km/h
278 30-04-2020 23:05:00 9 C 8.38 g/m*3 9 C 3.2 km/h
279 30-04-2020 23:10:00 8.9 C 8.32 g/m*3 8.9 C 3.2 km/h
280 30-04-2020 23:15:00 8.8 C 8.27 g/m*3 8.8 C 0 km/h
281 30-04-2020 23:20:00 8.8 C 8.27 g/m*3 8.8 C 4.8 km/h
282 30-04-2020 23:25:00 8.8 C 8.27 g/m*3 8.8 C 1.6 km/h
283 30-04-2020 23:30:00 8.8 C 8.27 g/m*3 8.8 C 4.8 km/h
284 30-04-2020 23:35:00 8.8 C 8.27 g/m*3 8.8 C 3.2 km/h
285 30-04-2020 23:40:00 8.9 C 8.32 g/m*3 7.69 C 8.1 km/h
286 30-04-2020 23:45:00 9.2 C 8.57 g/m*3 7.21 C 12.9 km/h
287 30-04-2020 23:50:00 9.3 C 8.63 g/m*3 8.16 C 8.1 km/h
288 30-04-2020 23:55:00 9.4 C 8.68 g/m*3 7.97 C 9.7 km/h
289 01-05-2020 00:00:00 9.4 C 8.59 g/m*3 7.97 C 9.7 km/h
290 01-05-2020 00:05:00 9.3 C 8.54 g/m*3 8.56 C 6.4 km/h
291 01-05-2020 00:10:00 9.3 C 8.54 g/m*3 8.56 C 6.4 km/h
292 01-05-2020 00:15:00 9.2 C 8.48 g/m*3 9.2 C 3.2 km/h
293 01-05-2020 00:20:00 9.1 C 8.43 g/m*3 8.33 C 6.4 km/h
294 01-05-2020 00:25:00 8.9 C 8.32 g/m*3 7.37 C 9.7 km/h
295 01-05-2020 00:30:00 8.8 C 8.27 g/m*3 7.98 C 6.4 km/h
296 01-05-2020 00:35:00 8.8 C 8.27 g/m*3 7.58 C 8.1 km/h
297 01-05-2020 00:40:00 8.7 C 8.22 g/m*3 8.7 C 4.8 km/h
298 01-05-2020 00:45:00 8.7 C 8.22 g/m*3 7.87 C 6.4 km/h
299 01-05-2020 00:50:00 8.6 C 8.16 g/m*3 8.6 C 3.2 km/h
300 01-05-2020 00:55:00 8.4 C 8.06 g/m*3 7.52 C 6.4 km/h
Sensor: Nr:Datum:Temp:Abs-Feuchte:Windchill:Wind:
Aussen-T/F 301 01-05-2020 01:00:00 8.3 C 8.01 g/m*3 7.41 C 6.4 km/h
302 01-05-2020 01:05:00 8.3 C 8.01 g/m*3 6.99 C 8.1 km/h
303 01-05-2020 01:10:00 8.3 C 8.01 g/m*3 8.3 C 4.8 km/h
304 01-05-2020 01:15:00 8.4 C 8.06 g/m*3 6.78 C 9.7 km/h
305 01-05-2020 01:20:00 8.4 C 8.06 g/m*3 6.01 C 14.5 km/h
306 01-05-2020 01:25:00 8.4 C 8.06 g/m*3 8.4 C 4.8 km/h
307 01-05-2020 01:30:00 8.3 C 8.01 g/m*3 6.37 C 11.3 km/h
308 01-05-2020 01:35:00 8.3 C 8.01 g/m*3 6.37 C 11.3 km/h
309 01-05-2020 01:40:00 8.3 C 8.01 g/m*3 6.37 C 11.3 km/h
310 01-05-2020 01:45:00 8.3 C 8.01 g/m*3 5.48 C 17.7 km/h
311 01-05-2020 01:50:00 8.3 C 7.92 g/m*3 7.41 C 6.4 km/h
312 01-05-2020 01:55:00 8.3 C 7.92 g/m*3 6.66 C 9.7 km/h
313 01-05-2020 02:00:00 8.3 C 7.92 g/m*3 5.68 C 16.1 km/h
314 01-05-2020 02:05:00 8.3 C 7.92 g/m*3 6.99 C 8.1 km/h
315 01-05-2020 02:10:00 8.3 C 7.92 g/m*3 7.41 C 6.4 km/h
316 01-05-2020 02:15:00 8.2 C 7.87 g/m*3 6.87 C 8.1 km/h
317 01-05-2020 02:20:00 8.2 C 7.87 g/m*3 7.29 C 6.4 km/h
318 01-05-2020 02:25:00 8.1 C 7.82 g/m*3 6.75 C 8.1 km/h
319 01-05-2020 02:30:00 8.1 C 7.82 g/m*3 7.17 C 6.4 km/h
320 01-05-2020 02:35:00 8 C 7.77 g/m*3 6.3 C 9.7 km/h
321 01-05-2020 02:40:00 8.1 C 7.82 g/m*3 6.42 C 9.7 km/h
322 01-05-2020 02:45:00 8.1 C 7.82 g/m*3 7.17 C 6.4 km/h
323 01-05-2020 02:50:00 8.1 C 7.82 g/m*3 7.17 C 6.4 km/h
324 01-05-2020 02:55:00 8.1 C 7.82 g/m*3 7.17 C 6.4 km/h
325 01-05-2020 03:00:00 8.1 C 7.82 g/m*3 8.1 C 1.6 km/h
Sensor: Nr:Datum:Temp:Abs-Feuchte:Windchill:Wind:
Aussen-T/F 326 01-05-2020 03:05:00 8 C 7.77 g/m*3 8 C 1.6 km/h
327 01-05-2020 03:10:00 7.9 C 7.72 g/m*3 6.94 C 6.4 km/h
328 01-05-2020 03:15:00 7.9 C 7.72 g/m*3 6.52 C 8.1 km/h
329 01-05-2020 03:20:00 7.9 C 7.8 g/m*3 7.9 C 4.8 km/h
330 01-05-2020 03:25:00 8.1 C 7.9 g/m*3 8.1 C 4.8 km/h
331 01-05-2020 03:30:00 8.1 C 7.9 g/m*3 8.1 C 4.8 km/h
332 01-05-2020 03:35:00 8.2 C 7.96 g/m*3 6.87 C 8.1 km/h
333 01-05-2020 03:40:00 8.2 C 7.96 g/m*3 6.54 C 9.7 km/h
334 01-05-2020 03:45:00 8.2 C 7.87 g/m*3 8.2 C 4.8 km/h
335 01-05-2020 03:50:00 8.2 C 7.87 g/m*3 8.2 C 4.8 km/h
336 01-05-2020 03:55:00 8.1 C 7.82 g/m*3 8.1 C 4.8 km/h
337 01-05-2020 04:00:00 8 C 7.77 g/m*3 8 C 4.8 km/h
338 01-05-2020 04:05:00 7.9 C 7.72 g/m*3 6.94 C 6.4 km/h
339 01-05-2020 04:10:00 7.9 C 7.72 g/m*3 7.9 C 3.2 km/h
340 01-05-2020 04:15:00 7.8 C 7.67 g/m*3 7.8 C 3.2 km/h
341 01-05-2020 04:20:00 7.7 C 7.62 g/m*3 7.7 C 1.6 km/h
342 01-05-2020 04:25:00 7.6 C 7.57 g/m*3 7.6 C 0 km/h
343 01-05-2020 04:30:00 7.6 C 7.65 g/m*3 7.6 C 0 km/h
344 01-05-2020 04:35:00 7.7 C 7.7 g/m*3 7.7 C 0 km/h
345 01-05-2020 04:40:00 7.8 C 7.75 g/m*3 7.8 C 0 km/h
346 01-05-2020 04:45:00 7.9 C 7.8 g/m*3 7.9 C 0 km/h
347 01-05-2020 04:50:00 7.9 C 7.8 g/m*3 7.9 C 0 km/h
348 01-05-2020 04:55:00 8.1 C 7.9 g/m*3 8.1 C 0 km/h
349 01-05-2020 05:00:00 8.2 C 8.04 g/m*3 8.2 C 0 km/h
350 01-05-2020 05:05:00 8.2 C 8.04 g/m*3 8.2 C 0 km/h
Sensor: Nr:Datum:Temp:Abs-Feuchte:Windchill:Wind:
Aussen-T/F 351 01-05-2020 05:10:00 8.3 C 8.09 g/m*3 8.3 C 0 km/h
352 01-05-2020 05:15:00 8.4 C 8.14 g/m*3 8.4 C 1.6 km/h
353 01-05-2020 05:20:00 8.5 C 8.2 g/m*3 8.5 C 4.8 km/h
354 01-05-2020 05:25:00 8.5 C 8.2 g/m*3 8.5 C 1.6 km/h
355 01-05-2020 05:30:00 8.6 C 8.25 g/m*3 8.6 C 3.2 km/h
356 01-05-2020 05:35:00 8.6 C 8.25 g/m*3 6.05 C 16.1 km/h
357 01-05-2020 05:40:00 8.7 C 8.3 g/m*3 5.65 C 20.9 km/h
358 01-05-2020 05:45:00 8.8 C 8.27 g/m*3 7.58 C 8.1 km/h
359 01-05-2020 05:50:00 8.8 C 8.18 g/m*3 6.5 C 14.5 km/h
360 01-05-2020 05:55:00 8.7 C 8.13 g/m*3 6.17 C 16.1 km/h
361 01-05-2020 06:00:00 8.7 C 8.13 g/m*3 6.38 C 14.5 km/h
362 01-05-2020 06:05:00 8.6 C 7.99 g/m*3 7.34 C 8.1 km/h
363 01-05-2020 06:10:00 8.6 C 7.99 g/m*3 8.6 C 4.8 km/h
364 01-05-2020 06:15:00 8.5 C 7.94 g/m*3 7.22 C 8.1 km/h
365 01-05-2020 06:20:00 8.4 C 7.89 g/m*3 7.52 C 6.4 km/h
366 01-05-2020 06:25:00 8.3 C 7.92 g/m*3 8.3 C 4.8 km/h
367 01-05-2020 06:30:00 8.3 C 7.84 g/m*3 7.41 C 6.4 km/h
368 01-05-2020 06:35:00 8.3 C 7.92 g/m*3 8.3 C 1.6 km/h
369 01-05-2020 06:40:00 8.3 C 7.92 g/m*3 8.3 C 4.8 km/h
370 01-05-2020 06:45:00 8.3 C 7.92 g/m*3 8.3 C 3.2 km/h
371 01-05-2020 06:50:00 8.2 C 7.87 g/m*3 8.2 C 4.8 km/h
372 01-05-2020 06:55:00 8.1 C 7.82 g/m*3 8.1 C 0 km/h
373 01-05-2020 07:00:00 7.9 C 7.72 g/m*3 7.9 C 0 km/h
374 01-05-2020 07:05:00 7.8 C 7.67 g/m*3 7.8 C 0 km/h
375 01-05-2020 07:10:00 7.7 C 7.62 g/m*3 7.7 C 0 km/h
Sensor: Nr:Datum:Temp:Abs-Feuchte:Windchill:Wind:
Aussen-T/F 376 01-05-2020 07:15:00 7.7 C 7.62 g/m*3 7.7 C 0 km/h
377 01-05-2020 07:20:00 7.8 C 7.67 g/m*3 7.8 C 0 km/h
378 01-05-2020 07:25:00 7.9 C 7.8 g/m*3 7.9 C 0 km/h
379 01-05-2020 07:30:00 8 C 7.85 g/m*3 8 C 0 km/h
380 01-05-2020 07:35:00 8.2 C 7.96 g/m*3 8.2 C 1.6 km/h
381 01-05-2020 07:40:00 8.3 C 8.01 g/m*3 8.3 C 0 km/h
382 01-05-2020 07:45:00 8.4 C 8.14 g/m*3 8.4 C 3.2 km/h
383 01-05-2020 07:50:00 8.5 C 8.11 g/m*3 6.9 C 9.7 km/h
384 01-05-2020 07:55:00 8.5 C 8.03 g/m*3 7.22 C 8.1 km/h
385 01-05-2020 08:00:00 8.6 C 8.08 g/m*3 8.6 C 3.2 km/h
386 01-05-2020 08:05:00 8.6 C 8.16 g/m*3 8.6 C 1.6 km/h
387 01-05-2020 08:10:00 8.7 C 8.22 g/m*3 8.7 C 3.2 km/h
388 01-05-2020 08:15:00 8.8 C 8.18 g/m*3 8.8 C 4.8 km/h
389 01-05-2020 08:20:00 8.8 C 8.18 g/m*3 8.8 C 0 km/h
390 01-05-2020 08:25:00 8.8 C 8.18 g/m*3 8.8 C 0 km/h
391 01-05-2020 08:30:00 8.8 C 8.18 g/m*3 8.8 C 0 km/h
392 01-05-2020 08:35:00 8.8 C 8.27 g/m*3 8.8 C 0 km/h
393 01-05-2020 08:40:00 8.9 C 8.32 g/m*3 8.9 C 0 km/h
394 01-05-2020 08:45:00 9 C 8.38 g/m*3 9 C 0 km/h
395 01-05-2020 08:50:00 9.1 C 8.43 g/m*3 9.1 C 0 km/h
396 01-05-2020 08:55:00 9.2 C 8.48 g/m*3 9.2 C 0 km/h
397 01-05-2020 09:00:00 9.4 C 8.59 g/m*3 9.4 C 0 km/h
398 01-05-2020 09:05:00 9.5 C 8.65 g/m*3 9.5 C 1.6 km/h
399 01-05-2020 09:10:00 9.6 C 8.7 g/m*3 9.6 C 1.6 km/h
400 01-05-2020 09:15:00 9.7 C 8.76 g/m*3 9.7 C 1.6 km/h
Sensor: Nr:Datum:Temp:Abs-Feuchte:Windchill:Wind:
Aussen-T/F 401 01-05-2020 09:20:00 9.8 C 8.81 g/m*3 9.8 C 4.8 km/h
402 01-05-2020 09:25:00 9.9 C 8.87 g/m*3 9.9 C 3.2 km/h
403 01-05-2020 09:30:00 10 C 8.93 g/m*3 10 C 4.8 km/h
404 01-05-2020 09:35:00 10.1 C 8.89 g/m*3 8.31 C 12.9 km/h
405 01-05-2020 09:40:00 10.2 C 8.85 g/m*3 9.6 C 6.4 km/h
406 01-05-2020 09:45:00 10.3 C 8.91 g/m*3 8.55 C 12.9 km/h
407 01-05-2020 09:50:00 10.3 C 8.71 g/m*3 9.04 C 9.7 km/h
408 01-05-2020 09:55:00 10.3 C 8.71 g/m*3 8.34 C 14.5 km/h
409 01-05-2020 10:00:00 10.4 C 8.67 g/m*3 9.46 C 8.1 km/h
410 01-05-2020 10:05:00 10.5 C 8.83 g/m*3 10.5 C 4.8 km/h
411 01-05-2020 10:10:00 10.5 C 8.63 g/m*3 8.8 C 12.9 km/h
412 01-05-2020 10:15:00 10.6 C 8.78 g/m*3 10.6 C 3.2 km/h
413 01-05-2020 10:20:00 10.6 C 8.69 g/m*3 9.4 C 9.7 km/h
414 01-05-2020 10:25:00 10.6 C 8.69 g/m*3 9.69 C 8.1 km/h
415 01-05-2020 10:30:00 10.7 C 8.74 g/m*3 9.52 C 9.7 km/h
416 01-05-2020 10:35:00 10.8 C 8.8 g/m*3 10.29 C 6.4 km/h
417 01-05-2020 10:40:00 10.9 C 8.75 g/m*3 9.76 C 9.7 km/h
418 01-05-2020 10:45:00 11.1 C 8.76 g/m*3 11.1 C 12.9 km/h
419 01-05-2020 10:50:00 11.3 C 8.67 g/m*3 11.3 C 12.9 km/h
420 01-05-2020 10:55:00 11.7 C 8.68 g/m*3 11.7 C 20.9 km/h
421 01-05-2020 11:00:00 11.8 C 8.63 g/m*3 11.8 C 12.9 km/h
422 01-05-2020 11:05:00 11.9 C 8.79 g/m*3 11.9 C 12.9 km/h
423 01-05-2020 11:10:00 11.9 C 8.58 g/m*3 11.9 C 14.5 km/h
424 01-05-2020 11:15:00 12 C 8.74 g/m*3 12 C 9.7 km/h
425 01-05-2020 11:20:00 12.2 C 8.74 g/m*3 12.2 C 16.1 km/h
Sensor: Nr:Datum:Temp:Abs-Feuchte:Windchill:Wind:
Aussen-T/F 426 01-05-2020 11:25:00 12.3 C 8.69 g/m*3 12.3 C 14.5 km/h
427 01-05-2020 11:30:00 12.3 C 8.47 g/m*3 12.3 C 14.5 km/h
428 01-05-2020 11:35:00 12.4 C 8.52 g/m*3 12.4 C 16.1 km/h
429 01-05-2020 11:40:00 12.5 C 8.58 g/m*3 12.5 C 11.3 km/h
430 01-05-2020 11:45:00 12.6 C 8.52 g/m*3 12.6 C 11.3 km/h
431 01-05-2020 11:50:00 12.6 C 8.74 g/m*3 12.6 C 9.7 km/h
432 01-05-2020 11:55:00 12.5 C 8.58 g/m*3 12.5 C 9.7 km/h
433 01-05-2020 12:00:00 12.5 C 8.8 g/m*3 12.5 C 6.4 km/h
434 01-05-2020 12:05:00 12.5 C 8.69 g/m*3 12.5 C 4.8 km/h
435 01-05-2020 12:10:00 12.3 C 8.47 g/m*3 12.3 C 11.3 km/h
436 01-05-2020 12:15:00 12.2 C 8.52 g/m*3 12.2 C 9.7 km/h
437 01-05-2020 12:20:00 12.2 C 8.63 g/m*3 12.2 C 11.3 km/h
438 01-05-2020 12:25:00 12.2 C 8.74 g/m*3 12.2 C 11.3 km/h
439 01-05-2020 12:30:00 12 C 8.63 g/m*3 12 C 12.9 km/h
440 01-05-2020 12:35:00 11.8 C 8.74 g/m*3 11.8 C 11.3 km/h
441 01-05-2020 12:40:00 11.7 C 8.79 g/m*3 11.7 C 11.3 km/h
442 01-05-2020 12:45:00 11.6 C 8.94 g/m*3 11.6 C 8.1 km/h
443 01-05-2020 12:50:00 11.3 C 8.87 g/m*3 11.3 C 8.1 km/h
444 01-05-2020 12:55:00 11.3 C 8.98 g/m*3 11.3 C 9.7 km/h
445 01-05-2020 13:00:00 11.2 C 8.82 g/m*3 11.2 C 8.1 km/h
446 01-05-2020 13:05:00 11.1 C 8.76 g/m*3 11.1 C 12.9 km/h
447 01-05-2020 13:10:00 10.9 C 8.55 g/m*3 9.51 C 11.3 km/h
448 01-05-2020 13:15:00 10.7 C 8.35 g/m*3 8.84 C 14.5 km/h
449 01-05-2020 13:20:00 10.6 C 8.39 g/m*3 8.71 C 14.5 km/h
450 01-05-2020 13:25:00 10.8 C 8.6 g/m*3 10.8 C 3.2 km/h
Sensor: Nr:Datum:Temp:Abs-Feuchte:Windchill:Wind:
Aussen-T/F 451 01-05-2020 13:30:00 10.9 C 8.55 g/m*3 9.51 C 11.3 km/h
452 01-05-2020 13:35:00 11.1 C 8.56 g/m*3 11.1 C 6.4 km/h
453 01-05-2020 13:40:00 11.2 C 8.62 g/m*3 11.2 C 12.9 km/h
454 01-05-2020 13:45:00 11.4 C 8.52 g/m*3 11.4 C 16.1 km/h
455 01-05-2020 13:50:00 11.6 C 8.63 g/m*3 11.6 C 14.5 km/h
456 01-05-2020 13:55:00 11.9 C 8.68 g/m*3 11.9 C 9.7 km/h
457 01-05-2020 14:00:00 12 C 8.63 g/m*3 12 C 14.5 km/h
458 01-05-2020 14:05:00 12 C 8.63 g/m*3 12 C 11.3 km/h
459 01-05-2020 14:10:00 12.2 C 8.74 g/m*3 12.2 C 16.1 km/h
460 01-05-2020 14:15:00 12.4 C 8.52 g/m*3 12.4 C 11.3 km/h
461 01-05-2020 14:20:00 12.7 C 8.79 g/m*3 12.7 C 8.1 km/h
462 01-05-2020 14:25:00 12.9 C 8.45 g/m*3 12.9 C 19.3 km/h
463 01-05-2020 14:30:00 13.2 C 8.61 g/m*3 13.2 C 12.9 km/h
464 01-05-2020 14:35:00 13.3 C 8.43 g/m*3 13.3 C 14.5 km/h
465 01-05-2020 14:40:00 13.4 C 8.37 g/m*3 13.4 C 19.3 km/h
466 01-05-2020 14:45:00 13.6 C 8.71 g/m*3 13.6 C 17.7 km/h
467 01-05-2020 14:50:00 13.7 C 8.53 g/m*3 13.7 C 16.1 km/h
468 01-05-2020 14:55:00 13.7 C 8.29 g/m*3 13.7 C 12.9 km/h
469 01-05-2020 15:00:00 13.8 C 8.1 g/m*3 13.8 C 16.1 km/h
470 01-05-2020 15:05:00 14 C 8.32 g/m*3 14 C 14.5 km/h
471 01-05-2020 15:10:00 14.2 C 8.3 g/m*3 14.2 C 14.5 km/h
472 01-05-2020 15:15:00 14.3 C 8.48 g/m*3 14.3 C 16.1 km/h
473 01-05-2020 15:20:00 14.6 C 8.63 g/m*3 14.6 C 11.3 km/h
474 01-05-2020 15:25:00 14.6 C 8.26 g/m*3 14.6 C 12.9 km/h
475 01-05-2020 15:30:00 14.4 C 8.41 g/m*3 14.4 C 8.1 km/h
Sensor: Nr:Datum:Temp:Abs-Feuchte:Windchill:Wind:
Aussen-T/F 476 01-05-2020 15:35:00 14.3 C 8.48 g/m*3 14.3 C 6.4 km/h
477 01-05-2020 15:40:00 14.1 C 8.37 g/m*3 14.1 C 14.5 km/h
478 01-05-2020 15:45:00 13.7 C 8.41 g/m*3 13.7 C 14.5 km/h
479 01-05-2020 15:50:00 13 C 8.73 g/m*3 13 C 25.7 km/h
480 01-05-2020 15:55:00 12.6 C 8.85 g/m*3 12.6 C 11.3 km/h
481 01-05-2020 16:00:00 12.3 C 8.69 g/m*3 12.3 C 9.7 km/h
482 01-05-2020 16:05:00 12.6 C 8.96 g/m*3 12.6 C 12.9 km/h
483 01-05-2020 16:10:00 13.1 C 9.24 g/m*3 13.1 C 9.7 km/h
484 01-05-2020 16:15:00 13.7 C 9.24 g/m*3 13.7 C 8.1 km/h
485 01-05-2020 16:20:00 14.3 C 9.21 g/m*3 14.3 C 17.7 km/h
486 01-05-2020 16:25:00 14.7 C 9.07 g/m*3 14.7 C 14.5 km/h
487 01-05-2020 16:30:00 15.1 C 9.29 g/m*3 15.1 C 16.1 km/h
488 01-05-2020 16:35:00 15.4 C 9.2 g/m*3 15.4 C 14.5 km/h
489 01-05-2020 16:40:00 15.7 C 9.23 g/m*3 15.7 C 16.1 km/h
490 01-05-2020 16:45:00 15.7 C 9.1 g/m*3 15.7 C 14.5 km/h
491 01-05-2020 16:50:00 15.6 C 9.04 g/m*3 15.6 C 14.5 km/h
492 01-05-2020 16:55:00 15.4 C 9.07 g/m*3 15.4 C 12.9 km/h
493 01-05-2020 17:00:00 15.6 C 9.04 g/m*3 15.6 C 12.9 km/h
494 01-05-2020 17:05:00 15.8 C 9.15 g/m*3 15.8 C 14.5 km/h
495 01-05-2020 17:10:00 15.9 C 9.34 g/m*3 15.9 C 11.3 km/h
496 01-05-2020 17:15:00 16.2 C 8.96 g/m*3 16.2 C 16.1 km/h
497 01-05-2020 17:20:00 16.1 C 8.91 g/m*3 16.1 C 17.7 km/h
498 01-05-2020 17:25:00 15.7 C 8.96 g/m*3 15.7 C 11.3 km/h
499 01-05-2020 17:30:00 15 C 8.85 g/m*3 15 C 14.5 km/h
500 01-05-2020 17:35:00 14.3 C 9.09 g/m*3 14.3 C 17.7 km/h
Sensor: Nr:Datum:Temp:Abs-Feuchte:Windchill:Wind:
Aussen-T/F 501 01-05-2020 17:40:00 13.6 C 9.18 g/m*3 13.6 C 14.5 km/h
502 01-05-2020 17:45:00 13.3 C 9.13 g/m*3 13.3 C 8.1 km/h
503 01-05-2020 17:50:00 12.9 C 8.79 g/m*3 12.9 C 11.3 km/h
504 01-05-2020 17:55:00 12.8 C 8.85 g/m*3 12.8 C 8.1 km/h
505 01-05-2020 18:00:00 12.8 C 9.07 g/m*3 12.8 C 4.8 km/h
506 01-05-2020 18:05:00 12.9 C 9.35 g/m*3 12.9 C 3.2 km/h
507 01-05-2020 18:10:00 12.9 C 9.47 g/m*3 12.9 C 3.2 km/h
508 01-05-2020 18:15:00 12.8 C 9.18 g/m*3 12.8 C 6.4 km/h
509 01-05-2020 18:20:00 12.7 C 8.91 g/m*3 12.7 C 6.4 km/h
510 01-05-2020 18:25:00 12.8 C 9.07 g/m*3 12.8 C 9.7 km/h
511 01-05-2020 18:30:00 13.3 C 9.36 g/m*3 13.3 C 4.8 km/h
512 01-05-2020 18:35:00 13.7 C 9.47 g/m*3 13.7 C 4.8 km/h
513 01-05-2020 18:40:00 13.8 C 9.65 g/m*3 13.8 C 4.8 km/h
514 01-05-2020 18:45:00 14.3 C 10.07 g/m*3 14.3 C 8.1 km/h
515 01-05-2020 18:50:00 14.8 C 9.25 g/m*3 14.8 C 6.4 km/h
516 01-05-2020 18:55:00 14.6 C 9.01 g/m*3 14.6 C 8.1 km/h
517 01-05-2020 19:00:00 14.2 C 8.79 g/m*3 14.2 C 9.7 km/h
518 01-05-2020 19:05:00 13.8 C 9.06 g/m*3 13.8 C 4.8 km/h
519 01-05-2020 19:10:00 13.6 C 9.06 g/m*3 13.6 C 4.8 km/h
520 01-05-2020 19:15:00 13.2 C 8.84 g/m*3 13.2 C 6.4 km/h
521 01-05-2020 19:20:00 12.8 C 8.85 g/m*3 12.8 C 4.8 km/h
522 01-05-2020 19:25:00 12.6 C 8.85 g/m*3 12.6 C 6.4 km/h
523 01-05-2020 19:30:00 12.3 C 8.69 g/m*3 12.3 C 4.8 km/h
524 01-05-2020 19:35:00 12.1 C 8.58 g/m*3 12.1 C 9.7 km/h
525 01-05-2020 19:40:00 12 C 8.63 g/m*3 12 C 6.4 km/h
Sensor: Nr:Datum:Temp:Abs-Feuchte:Windchill:Wind:
Aussen-T/F 526 01-05-2020 19:45:00 11.9 C 8.58 g/m*3 11.9 C 8.1 km/h
527 01-05-2020 19:50:00 11.8 C 8.63 g/m*3 11.8 C 11.3 km/h
528 01-05-2020 19:55:00 11.7 C 8.58 g/m*3 11.7 C 4.8 km/h
529 01-05-2020 20:00:00 11.6 C 8.52 g/m*3 11.6 C 9.7 km/h
530 01-05-2020 20:05:00 11.4 C 8.31 g/m*3 11.4 C 9.7 km/h
531 01-05-2020 20:10:00 11.3 C 8.26 g/m*3 11.3 C 9.7 km/h
532 01-05-2020 20:15:00 11.3 C 8.36 g/m*3 11.3 C 8.1 km/h
533 01-05-2020 20:20:00 11.4 C 8.21 g/m*3 11.4 C 9.7 km/h
534 01-05-2020 20:25:00 11.4 C 8.11 g/m*3 11.4 C 8.1 km/h
535 01-05-2020 20:30:00 11.4 C 8.11 g/m*3 11.4 C 8.1 km/h
536 01-05-2020 20:35:00 11.3 C 8.16 g/m*3 11.3 C 4.8 km/h
537 01-05-2020 20:40:00 11.2 C 8.21 g/m*3 11.2 C 6.4 km/h
538 01-05-2020 20:45:00 11.1 C 8.26 g/m*3 11.1 C 8.1 km/h
539 01-05-2020 20:50:00 10.9 C 8.26 g/m*3 10.9 C 4.8 km/h
540 01-05-2020 20:55:00 10.8 C 8.3 g/m*3 10.8 C 1.6 km/h
541 01-05-2020 21:00:00 10.7 C 8.25 g/m*3 10.7 C 4.8 km/h
542 01-05-2020 21:05:00 10.6 C 8.3 g/m*3 10.6 C 4.8 km/h
543 01-05-2020 21:10:00 10.5 C 8.24 g/m*3 9.28 C 9.7 km/h
544 01-05-2020 21:15:00 10.4 C 8.19 g/m*3 10.4 C 3.2 km/h
545 01-05-2020 21:20:00 10.4 C 8.19 g/m*3 9.16 C 9.7 km/h
546 01-05-2020 21:25:00 10.4 C 8.29 g/m*3 10.4 C 3.2 km/h
547 01-05-2020 21:30:00 10.3 C 8.24 g/m*3 9.72 C 6.4 km/h
548 01-05-2020 21:35:00 10.3 C 8.24 g/m*3 10.3 C 1.6 km/h
549 01-05-2020 21:40:00 10.2 C 8.18 g/m*3 10.2 C 4.8 km/h
550 01-05-2020 21:45:00 10 C 8.08 g/m*3 10 C 3.2 km/h
Sensor: Nr:Datum:Temp:Abs-Feuchte:Windchill:Wind:
Aussen-T/F 551 01-05-2020 21:50:00 9.8 C 7.98 g/m*3 9.8 C 4.8 km/h
552 01-05-2020 21:55:00 9.6 C 7.97 g/m*3 9.6 C 4.8 km/h
553 01-05-2020 22:00:00 9.4 C 7.87 g/m*3 9.4 C 4.8 km/h
554 01-05-2020 22:05:00 9.3 C 7.91 g/m*3 9.3 C 4.8 km/h
555 01-05-2020 22:10:00 9.2 C 7.86 g/m*3 9.2 C 3.2 km/h
556 01-05-2020 22:15:00 9.1 C 7.9 g/m*3 9.1 C 3.2 km/h
557 01-05-2020 22:20:00 9.1 C 7.9 g/m*3 9.1 C 3.2 km/h
558 01-05-2020 22:25:00 9.1 C 7.9 g/m*3 9.1 C 3.2 km/h
559 01-05-2020 22:30:00 9.2 C 7.95 g/m*3 8.05 C 8.1 km/h
560 01-05-2020 22:35:00 9.3 C 8 g/m*3 8.16 C 8.1 km/h
561 01-05-2020 22:40:00 9.4 C 8.05 g/m*3 8.68 C 6.4 km/h
562 01-05-2020 22:45:00 9.4 C 8.05 g/m*3 7.97 C 9.7 km/h
563 01-05-2020 22:50:00 9.4 C 8.05 g/m*3 9.4 C 4.8 km/h
564 01-05-2020 22:55:00 9.5 C 8.1 g/m*3 9.5 C 1.6 km/h
565 01-05-2020 23:00:00 9.5 C 8.1 g/m*3 8.79 C 6.4 km/h
566 01-05-2020 23:05:00 9.5 C 8.1 g/m*3 8.4 C 8.1 km/h
567 01-05-2020 23:10:00 9.6 C 8.15 g/m*3 8.52 C 8.1 km/h
568 01-05-2020 23:15:00 9.5 C 8.1 g/m*3 8.09 C 9.7 km/h
569 01-05-2020 23:20:00 9.6 C 8.15 g/m*3 7.94 C 11.3 km/h
570 01-05-2020 23:25:00 9.6 C 8.15 g/m*3 8.91 C 6.4 km/h
571 01-05-2020 23:30:00 9.6 C 8.15 g/m*3 8.21 C 9.7 km/h
572 01-05-2020 23:35:00 9.6 C 8.15 g/m*3 7.48 C 14.5 km/h
573 01-05-2020 23:40:00 9.6 C 8.06 g/m*3 8.21 C 9.7 km/h
574 01-05-2020 23:45:00 9.7 C 8.11 g/m*3 8.33 C 9.7 km/h
575 01-05-2020 23:50:00 9.7 C 8.11 g/m*3 8.06 C 11.3 km/h
Sensor: Nr:Datum:Temp:Abs-Feuchte:Windchill:Wind:
Aussen-T/F 576 01-05-2020 23:55:00 9.7 C 8.11 g/m*3 9.7 C 4.8 km/h
577 02-05-2020 00:00:00 9.7 C 8.11 g/m*3 9.02 C 6.4 km/h
578 02-05-2020 00:05:00 9.7 C 8.2 g/m*3 9.7 C 4.8 km/h
579 02-05-2020 00:10:00 9.6 C 8.15 g/m*3 9.6 C 4.8 km/h
580 02-05-2020 00:15:00 9.6 C 8.15 g/m*3 9.6 C 0 km/h
581 02-05-2020 00:20:00 9.6 C 8.15 g/m*3 9.6 C 1.6 km/h
582 02-05-2020 00:25:00 9.4 C 8.05 g/m*3 9.4 C 1.6 km/h
583 02-05-2020 00:30:00 9.4 C 8.05 g/m*3 9.4 C 1.6 km/h
584 02-05-2020 00:35:00 9.2 C 7.95 g/m*3 9.2 C 3.2 km/h
585 02-05-2020 00:40:00 9.2 C 7.95 g/m*3 8.05 C 8.1 km/h
586 02-05-2020 00:45:00 9.2 C 7.95 g/m*3 9.2 C 4.8 km/h
587 02-05-2020 00:50:00 9.2 C 7.95 g/m*3 9.2 C 4.8 km/h
588 02-05-2020 00:55:00 9.2 C 8.04 g/m*3 7.73 C 9.7 km/h
589 02-05-2020 01:00:00 9.2 C 8.04 g/m*3 8.05 C 8.1 km/h
590 02-05-2020 01:05:00 9.2 C 8.04 g/m*3 8.05 C 8.1 km/h
591 02-05-2020 01:10:00 9.3 C 8.09 g/m*3 8.16 C 8.1 km/h
592 02-05-2020 01:15:00 9.3 C 8.09 g/m*3 7.58 C 11.3 km/h
593 02-05-2020 01:20:00 9.4 C 8.05 g/m*3 7.7 C 11.3 km/h
594 02-05-2020 01:25:00 9.4 C 8.05 g/m*3 8.28 C 8.1 km/h
595 02-05-2020 01:30:00 9.5 C 8.01 g/m*3 8.4 C 8.1 km/h
596 02-05-2020 01:35:00 9.4 C 8.05 g/m*3 7.97 C 9.7 km/h
597 02-05-2020 01:40:00 9.3 C 8 g/m*3 8.16 C 8.1 km/h
598 02-05-2020 01:45:00 9.3 C 8 g/m*3 7.85 C 9.7 km/h
599 02-05-2020 01:50:00 9.2 C 7.95 g/m*3 7.73 C 9.7 km/h
600 02-05-2020 01:55:00 9.1 C 7.9 g/m*3 9.1 C 4.8 km/h
Sensor: Nr:Datum:Temp:Abs-Feuchte:Windchill:Wind:
Aussen-T/F 601 02-05-2020 02:00:00 9 C 7.93 g/m*3 9 C 4.8 km/h
602 02-05-2020 02:05:00 8.9 C 7.88 g/m*3 8.9 C 4.8 km/h
603 02-05-2020 02:10:00 8.8 C 7.83 g/m*3 8.8 C 3.2 km/h
604 02-05-2020 02:15:00 8.8 C 7.83 g/m*3 8.8 C 3.2 km/h
605 02-05-2020 02:20:00 8.8 C 7.92 g/m*3 7.25 C 9.7 km/h
606 02-05-2020 02:25:00 8.8 C 7.92 g/m*3 8.8 C 4.8 km/h
607 02-05-2020 02:30:00 8.7 C 7.87 g/m*3 8.7 C 4.8 km/h
608 02-05-2020 02:35:00 8.8 C 7.92 g/m*3 8.8 C 4.8 km/h
609 02-05-2020 02:40:00 8.8 C 7.92 g/m*3 7.58 C 8.1 km/h
610 02-05-2020 02:45:00 8.9 C 7.97 g/m*3 7.37 C 9.7 km/h
611 02-05-2020 02:50:00 8.9 C 7.88 g/m*3 7.69 C 8.1 km/h
612 02-05-2020 02:55:00 9.1 C 7.99 g/m*3 7.61 C 9.7 km/h
613 02-05-2020 03:00:00 9.2 C 7.95 g/m*3 8.05 C 8.1 km/h
614 02-05-2020 03:05:00 9.2 C 7.95 g/m*3 9.2 C 4.8 km/h
615 02-05-2020 03:10:00 9.3 C 7.91 g/m*3 7.58 C 11.3 km/h
616 02-05-2020 03:15:00 9.3 C 7.91 g/m*3 9.3 C 4.8 km/h
617 02-05-2020 03:20:00 9.3 C 7.91 g/m*3 8.16 C 8.1 km/h
618 02-05-2020 03:25:00 9.4 C 7.96 g/m*3 9.4 C 4.8 km/h
619 02-05-2020 03:30:00 9.4 C 7.96 g/m*3 7.97 C 9.7 km/h
620 02-05-2020 03:35:00 9.4 C 7.96 g/m*3 9.4 C 3.2 km/h
621 02-05-2020 03:40:00 9.4 C 7.96 g/m*3 8.68 C 6.4 km/h
622 02-05-2020 03:45:00 9.4 C 7.96 g/m*3 9.4 C 3.2 km/h
623 02-05-2020 03:50:00 9.4 C 7.96 g/m*3 9.4 C 1.6 km/h
624 02-05-2020 03:55:00 9.3 C 7.91 g/m*3 9.3 C 1.6 km/h
625 02-05-2020 04:00:00 9.3 C 7.91 g/m*3 9.3 C 0 km/h
Sensor: Nr:Datum:Temp:Abs-Feuchte:Windchill:Wind:
Aussen-T/F 626 02-05-2020 04:05:00 9.2 C 7.86 g/m*3 9.2 C 1.6 km/h
627 02-05-2020 04:10:00 9.2 C 7.95 g/m*3 9.2 C 0 km/h
628 02-05-2020 04:15:00 9.1 C 7.9 g/m*3 9.1 C 0 km/h
629 02-05-2020 04:20:00 9 C 7.85 g/m*3 9 C 1.6 km/h
630 02-05-2020 04:25:00 8.9 C 7.8 g/m*3 8.1 C 6.4 km/h
631 02-05-2020 04:30:00 8.9 C 7.8 g/m*3 8.9 C 3.2 km/h
632 02-05-2020 04:35:00 8.9 C 7.88 g/m*3 8.9 C 4.8 km/h
633 02-05-2020 04:40:00 8.9 C 7.8 g/m*3 7.69 C 8.1 km/h
634 02-05-2020 04:45:00 9.1 C 7.9 g/m*3 7.33 C 11.3 km/h
635 02-05-2020 04:50:00 9.1 C 7.9 g/m*3 9.1 C 4.8 km/h
636 02-05-2020 04:55:00 9.1 C 7.81 g/m*3 9.1 C 4.8 km/h
637 02-05-2020 05:00:00 9.1 C 7.81 g/m*3 9.1 C 4.8 km/h
638 02-05-2020 05:05:00 9.1 C 7.81 g/m*3 7.61 C 9.7 km/h
639 02-05-2020 05:10:00 9 C 7.76 g/m*3 7.49 C 9.7 km/h
640 02-05-2020 05:15:00 9 C 7.76 g/m*3 7.49 C 9.7 km/h
641 02-05-2020 05:20:00 9 C 7.76 g/m*3 9 C 3.2 km/h
642 02-05-2020 05:25:00 9 C 7.76 g/m*3 7.81 C 8.1 km/h
643 02-05-2020 05:30:00 9 C 7.67 g/m*3 7.21 C 11.3 km/h
644 02-05-2020 05:35:00 9.1 C 7.72 g/m*3 8.33 C 6.4 km/h
645 02-05-2020 05:40:00 9 C 7.67 g/m*3 7.81 C 8.1 km/h
646 02-05-2020 05:45:00 8.9 C 7.62 g/m*3 7.69 C 8.1 km/h
647 02-05-2020 05:50:00 8.8 C 7.57 g/m*3 7.25 C 9.7 km/h
648 02-05-2020 05:55:00 8.6 C 7.48 g/m*3 7.01 C 9.7 km/h
649 02-05-2020 06:00:00 8.5 C 7.43 g/m*3 6.9 C 9.7 km/h
650 02-05-2020 06:05:00 8.4 C 7.38 g/m*3 7.52 C 6.4 km/h
Sensor: Nr:Datum:Temp:Abs-Feuchte:Windchill:Wind:
Aussen-T/F 651 02-05-2020 06:10:00 8.3 C 7.33 g/m*3 6.66 C 9.7 km/h
652 02-05-2020 06:15:00 8.3 C 7.42 g/m*3 6.99 C 8.1 km/h
653 02-05-2020 06:20:00 8.2 C 7.37 g/m*3 6.25 C 11.3 km/h
654 02-05-2020 06:25:00 8.2 C 7.37 g/m*3 7.29 C 6.4 km/h
655 02-05-2020 06:30:00 8.2 C 7.37 g/m*3 6.25 C 11.3 km/h
656 02-05-2020 06:35:00 8.2 C 7.37 g/m*3 6.25 C 11.3 km/h
657 02-05-2020 06:40:00 8.2 C 7.37 g/m*3 6.54 C 9.7 km/h
658 02-05-2020 06:45:00 8.2 C 7.37 g/m*3 6.87 C 8.1 km/h
659 02-05-2020 06:50:00 8.2 C 7.37 g/m*3 6.25 C 11.3 km/h
660 02-05-2020 06:55:00 8.2 C 7.37 g/m*3 6.54 C 9.7 km/h
661 02-05-2020 07:00:00 8.2 C 7.37 g/m*3 6.25 C 11.3 km/h
662 02-05-2020 07:05:00 8.2 C 7.37 g/m*3 6.87 C 8.1 km/h
663 02-05-2020 07:10:00 8.3 C 7.42 g/m*3 5.48 C 17.7 km/h
664 02-05-2020 07:15:00 8.4 C 7.38 g/m*3 6.49 C 11.3 km/h
665 02-05-2020 07:20:00 8.5 C 7.43 g/m*3 7.64 C 6.4 km/h
666 02-05-2020 07:25:00 8.6 C 7.48 g/m*3 6.48 C 12.9 km/h
667 02-05-2020 07:30:00 8.6 C 7.48 g/m*3 5.68 C 19.3 km/h
668 02-05-2020 07:35:00 8.6 C 7.39 g/m*3 6.73 C 11.3 km/h
669 02-05-2020 07:40:00 8.6 C 7.39 g/m*3 7.34 C 8.1 km/h
670 02-05-2020 07:45:00 8.6 C 7.39 g/m*3 8.6 C 4.8 km/h
671 02-05-2020 07:50:00 8.6 C 7.39 g/m*3 6.05 C 16.1 km/h
672 02-05-2020 07:55:00 8.7 C 7.52 g/m*3 6.17 C 16.1 km/h
673 02-05-2020 08:00:00 8.7 C 7.44 g/m*3 7.13 C 9.7 km/h
674 02-05-2020 08:05:00 8.8 C 7.57 g/m*3 7.58 C 8.1 km/h
675 02-05-2020 08:10:00 8.8 C 7.49 g/m*3 7.25 C 9.7 km/h
Sensor: Nr:Datum:Temp:Abs-Feuchte:Windchill:Wind:
Aussen-T/F 676 02-05-2020 08:15:00 8.9 C 7.53 g/m*3 6.85 C 12.9 km/h
677 02-05-2020 08:20:00 9.1 C 7.72 g/m*3 7.93 C 8.1 km/h
678 02-05-2020 08:25:00 9.2 C 7.59 g/m*3 7.73 C 9.7 km/h
679 02-05-2020 08:30:00 9.3 C 7.64 g/m*3 6.92 C 16.1 km/h
680 02-05-2020 08:35:00 9.5 C 7.74 g/m*3 7.58 C 12.9 km/h
681 02-05-2020 08:40:00 9.7 C 7.74 g/m*3 7.82 C 12.9 km/h
682 02-05-2020 08:45:00 9.8 C 7.79 g/m*3 7.94 C 12.9 km/h
683 02-05-2020 08:50:00 9.8 C 7.7 g/m*3 8.18 C 11.3 km/h
684 02-05-2020 08:55:00 9.8 C 7.61 g/m*3 7.54 C 16.1 km/h
685 02-05-2020 09:00:00 9.8 C 7.52 g/m*3 7.54 C 16.1 km/h
686 02-05-2020 09:05:00 9.8 C 7.52 g/m*3 7.36 C 17.7 km/h
687 02-05-2020 09:10:00 9.8 C 7.52 g/m*3 7.94 C 12.9 km/h
688 02-05-2020 09:15:00 9.8 C 7.52 g/m*3 6.63 C 25.7 km/h
689 02-05-2020 09:20:00 9.9 C 7.56 g/m*3 7.32 C 19.3 km/h
690 02-05-2020 09:25:00 9.9 C 7.56 g/m*3 7.32 C 19.3 km/h
691 02-05-2020 09:30:00 10.1 C 7.66 g/m*3 7.42 C 20.9 km/h
692 02-05-2020 09:35:00 10.3 C 7.76 g/m*3 8.16 C 16.1 km/h
693 02-05-2020 09:40:00 10.6 C 7.81 g/m*3 8.36 C 17.7 km/h
694 02-05-2020 09:45:00 10.8 C 7.81 g/m*3 8.61 C 17.7 km/h
695 02-05-2020 09:50:00 10.8 C 7.71 g/m*3 8.45 C 19.3 km/h
696 02-05-2020 09:55:00 10.7 C 7.76 g/m*3 9.04 C 12.9 km/h
697 02-05-2020 10:00:00 10.6 C 7.71 g/m*3 8.92 C 12.9 km/h
698 02-05-2020 10:05:00 10.4 C 7.81 g/m*3 8.28 C 16.1 km/h
699 02-05-2020 10:10:00 10.1 C 7.94 g/m*3 7.42 C 20.9 km/h
700 02-05-2020 10:15:00 9.6 C 7.51 g/m*3 7.29 C 16.1 km/h
Sensor: Nr:Datum:Temp:Abs-Feuchte:Windchill:Wind:
Aussen-T/F 701 02-05-2020 10:20:00 8.8 C 7.31 g/m*3 5.93 C 19.3 km/h
702 02-05-2020 10:25:00 8.3 C 7.25 g/m*3 8.3 C 3.2 km/h
703 02-05-2020 10:30:00 8 C 7.28 g/m*3 6.64 C 8.1 km/h
704 02-05-2020 10:35:00 7.8 C 7.35 g/m*3 6.06 C 9.7 km/h
705 02-05-2020 10:40:00 7.7 C 7.3 g/m*3 5.94 C 9.7 km/h
706 02-05-2020 10:45:00 7.6 C 7.33 g/m*3 5.82 C 9.7 km/h
707 02-05-2020 10:50:00 7.6 C 7.33 g/m*3 6.6 C 6.4 km/h
708 02-05-2020 10:55:00 7.6 C 7.41 g/m*3 6.16 C 8.1 km/h
709 02-05-2020 11:00:00 7.7 C 7.46 g/m*3 6.28 C 8.1 km/h
710 02-05-2020 11:05:00 7.8 C 7.59 g/m*3 6.83 C 6.4 km/h
711 02-05-2020 11:10:00 8.1 C 7.82 g/m*3 8.1 C 3.2 km/h
712 02-05-2020 11:15:00 8.3 C 7.92 g/m*3 8.3 C 4.8 km/h
713 02-05-2020 11:20:00 8.4 C 7.89 g/m*3 7.11 C 8.1 km/h
714 02-05-2020 11:25:00 8.5 C 7.94 g/m*3 7.22 C 8.1 km/h
715 02-05-2020 11:30:00 8.7 C 8.13 g/m*3 8.7 C 4.8 km/h
716 02-05-2020 11:35:00 8.9 C 8.23 g/m*3 8.9 C 4.8 km/h
717 02-05-2020 11:40:00 9 C 8.2 g/m*3 7.21 C 11.3 km/h
718 02-05-2020 11:45:00 9.2 C 8.3 g/m*3 8.05 C 8.1 km/h
719 02-05-2020 11:50:00 9.3 C 8.36 g/m*3 9.3 C 4.8 km/h
720 02-05-2020 11:55:00 9.3 C 8.27 g/m*3 6.92 C 16.1 km/h
721 02-05-2020 12:00:00 9.3 C 8.18 g/m*3 8.56 C 6.4 km/h
722 02-05-2020 12:05:00 9.3 C 8.18 g/m*3 7.33 C 12.9 km/h
723 02-05-2020 12:10:00 9.4 C 8.05 g/m*3 7.24 C 14.5 km/h
724 02-05-2020 12:15:00 9.7 C 8.02 g/m*3 7.82 C 12.9 km/h
725 02-05-2020 12:20:00 9.8 C 7.98 g/m*3 7.54 C 16.1 km/h
Sensor: Nr:Datum:Temp:Abs-Feuchte:Windchill:Wind:
Aussen-T/F 726 02-05-2020 12:25:00 10 C 8.08 g/m*3 8.19 C 12.9 km/h
727 02-05-2020 12:30:00 10.1 C 8.04 g/m*3 8.31 C 12.9 km/h
728 02-05-2020 12:35:00 10.3 C 8.14 g/m*3 9.34 C 8.1 km/h
729 02-05-2020 12:40:00 10.5 C 8.15 g/m*3 8.59 C 14.5 km/h
730 02-05-2020 12:45:00 10.8 C 8.3 g/m*3 9.16 C 12.9 km/h
731 02-05-2020 12:50:00 10.9 C 8.26 g/m*3 10.04 C 8.1 km/h
732 02-05-2020 12:55:00 11 C 8.51 g/m*3 10.52 C 6.4 km/h
733 02-05-2020 13:00:00 11.1 C 8.16 g/m*3 11.1 C 20.9 km/h
734 02-05-2020 13:05:00 11.4 C 7.8 g/m*3 11.4 C 22.5 km/h
735 02-05-2020 13:10:00 11.6 C 8 g/m*3 11.6 C 14.5 km/h
736 02-05-2020 13:15:00 11.8 C 8 g/m*3 11.8 C 19.3 km/h
737 02-05-2020 13:20:00 11.8 C 8.1 g/m*3 11.8 C 14.5 km/h
738 02-05-2020 13:25:00 11.6 C 8 g/m*3 11.6 C 12.9 km/h
739 02-05-2020 13:30:00 11.4 C 7.9 g/m*3 11.4 C 14.5 km/h
740 02-05-2020 13:35:00 11.3 C 7.96 g/m*3 11.3 C 11.3 km/h
741 02-05-2020 13:40:00 11.3 C 8.06 g/m*3 11.3 C 11.3 km/h
742 02-05-2020 13:45:00 11.3 C 7.85 g/m*3 11.3 C 16.1 km/h
743 02-05-2020 13:50:00 11.6 C 8.11 g/m*3 11.6 C 16.1 km/h
744 02-05-2020 13:55:00 11.7 C 7.95 g/m*3 11.7 C 20.9 km/h
745 02-05-2020 14:00:00 11.9 C 8.05 g/m*3 11.9 C 17.7 km/h
746 02-05-2020 14:05:00 12.1 C 7.94 g/m*3 12.1 C 17.7 km/h
747 02-05-2020 14:10:00 12.3 C 8.04 g/m*3 12.3 C 19.3 km/h
748 02-05-2020 14:15:00 12.7 C 8.24 g/m*3 12.7 C 17.7 km/h
749 02-05-2020 14:20:00 12.9 C 8.23 g/m*3 12.9 C 16.1 km/h
750 02-05-2020 14:25:00 13.2 C 7.92 g/m*3 13.2 C 22.5 km/h
Sensor: Nr:Datum:Temp:Abs-Feuchte:Windchill:Wind:
Aussen-T/F 751 02-05-2020 14:30:00 13.2 C 7.92 g/m*3 13.2 C 11.3 km/h
752 02-05-2020 14:35:00 12.9 C 7.55 g/m*3 12.9 C 20.9 km/h
753 02-05-2020 14:40:00 11.6 C 7.48 g/m*3 11.6 C 32.2 km/h
754 02-05-2020 14:45:00 10.2 C 7.33 g/m*3 8.43 C 12.9 km/h
755 02-05-2020 14:50:00 9.6 C 7.42 g/m*3 7.11 C 17.7 km/h
756 02-05-2020 14:55:00 9.3 C 7.55 g/m*3 6.41 C 20.9 km/h
757 02-05-2020 15:00:00 8.9 C 7.45 g/m*3 6.06 C 19.3 km/h
758 02-05-2020 15:05:00 8.7 C 7.61 g/m*3 8.7 C 3.2 km/h
759 02-05-2020 15:10:00 8.7 C 7.7 g/m*3 8.7 C 1.6 km/h
760 02-05-2020 15:15:00 8.7 C 7.78 g/m*3 6.38 C 14.5 km/h
761 02-05-2020 15:20:00 8.8 C 7.92 g/m*3 7.58 C 8.1 km/h
762 02-05-2020 15:25:00 8.8 C 7.92 g/m*3 8.8 C 3.2 km/h
763 02-05-2020 15:30:00 9.1 C 8.16 g/m*3 7.93 C 8.1 km/h
764 02-05-2020 15:35:00 9.4 C 8.23 g/m*3 8.68 C 6.4 km/h
765 02-05-2020 15:40:00 10.2 C 8.85 g/m*3 9.6 C 6.4 km/h
766 02-05-2020 15:45:00 10.8 C 9.19 g/m*3 9.64 C 9.7 km/h
767 02-05-2020 15:50:00 11.3 C 9.28 g/m*3 11.3 C 9.7 km/h
768 02-05-2020 15:55:00 11.5 C 8.99 g/m*3 11.5 C 9.7 km/h
769 02-05-2020 16:00:00 12.1 C 9.33 g/m*3 12.1 C 6.4 km/h
770 02-05-2020 16:05:00 12.6 C 9.18 g/m*3 12.6 C 3.2 km/h
771 02-05-2020 16:10:00 13.1 C 9.47 g/m*3 13.1 C 16.1 km/h
772 02-05-2020 16:15:00 13.4 C 8.95 g/m*3 13.4 C 9.7 km/h
773 02-05-2020 16:20:00 13.7 C 9.47 g/m*3 13.7 C 6.4 km/h
774 02-05-2020 16:25:00 13.9 C 8.39 g/m*3 13.9 C 12.9 km/h
775 02-05-2020 16:30:00 14.2 C 8.79 g/m*3 14.2 C 11.3 km/h
Sensor: Nr:Datum:Temp:Abs-Feuchte:Windchill:Wind:
Aussen-T/F 776 02-05-2020 16:35:00 14.2 C 8.67 g/m*3 14.2 C 6.4 km/h
777 02-05-2020 16:40:00 13.9 C 8.99 g/m*3 13.9 C 4.8 km/h
778 02-05-2020 16:45:00 13.6 C 8.94 g/m*3 13.6 C 3.2 km/h
779 02-05-2020 16:50:00 13.4 C 9.07 g/m*3 13.4 C 8.1 km/h
780 02-05-2020 16:55:00 13.3 C 9.36 g/m*3 13.3 C 6.4 km/h
781 02-05-2020 17:00:00 13.7 C 9.59 g/m*3 13.7 C 8.1 km/h
782 02-05-2020 17:05:00 14.4 C 9.27 g/m*3 14.4 C 9.7 km/h
783 02-05-2020 17:10:00 14.7 C 8.69 g/m*3 14.7 C 11.3 km/h
784 02-05-2020 17:15:00 14.5 C 8.95 g/m*3 14.5 C 11.3 km/h
785 02-05-2020 17:20:00 14.1 C 8.37 g/m*3 14.1 C 8.1 km/h
786 02-05-2020 17:25:00 13.9 C 8.87 g/m*3 13.9 C 1.6 km/h
787 02-05-2020 17:30:00 13.8 C 9.06 g/m*3 13.8 C 3.2 km/h
788 02-05-2020 17:35:00 13.8 C 9.29 g/m*3 13.8 C 3.2 km/h
789 02-05-2020 17:40:00 13.8 C 8.94 g/m*3 13.8 C 4.8 km/h
790 02-05-2020 17:45:00 13.8 C 8.94 g/m*3 13.8 C 11.3 km/h
791 02-05-2020 17:50:00 13.8 C 7.74 g/m*3 13.8 C 9.7 km/h
792 02-05-2020 17:55:00 14.2 C 7.69 g/m*3 14.2 C 12.9 km/h
793 02-05-2020 18:00:00 14.7 C 7.55 g/m*3 14.7 C 12.9 km/h
794 02-05-2020 18:05:00 14.7 C 7.68 g/m*3 14.7 C 11.3 km/h
795 02-05-2020 18:10:00 14.3 C 7.37 g/m*3 14.3 C 9.7 km/h
796 02-05-2020 18:15:00 13.9 C 7.31 g/m*3 13.9 C 9.7 km/h
797 02-05-2020 18:20:00 13.7 C 7.58 g/m*3 13.7 C 11.3 km/h
798 02-05-2020 18:25:00 13.3 C 7.74 g/m*3 13.3 C 9.7 km/h
799 02-05-2020 18:30:00 13.1 C 7.87 g/m*3 13.1 C 12.9 km/h
800 02-05-2020 18:35:00 12.9 C 7.89 g/m*3 12.9 C 14.5 km/h
Sensor: Nr:Datum:Temp:Abs-Feuchte:Windchill:Wind:
Aussen-T/F 801 02-05-2020 18:40:00 12.7 C 7.79 g/m*3 12.7 C 14.5 km/h
802 02-05-2020 18:45:00 12.6 C 7.85 g/m*3 12.6 C 14.5 km/h
803 02-05-2020 18:50:00 12.4 C 7.87 g/m*3 12.4 C 14.5 km/h
804 02-05-2020 18:55:00 12.3 C 7.82 g/m*3 12.3 C 20.9 km/h
805 02-05-2020 19:00:00 12.1 C 7.72 g/m*3 12.1 C 16.1 km/h
806 02-05-2020 19:05:00 12 C 7.89 g/m*3 12 C 11.3 km/h
807 02-05-2020 19:10:00 11.8 C 7.68 g/m*3 11.8 C 20.9 km/h
808 02-05-2020 19:15:00 11.7 C 7.53 g/m*3 11.7 C 11.3 km/h
809 02-05-2020 19:20:00 11.5 C 7.02 g/m*3 11.5 C 12.9 km/h
810 02-05-2020 19:25:00 11.5 C 7.23 g/m*3 11.5 C 11.3 km/h
811 02-05-2020 19:30:00 11.5 C 7.33 g/m*3 11.5 C 8.1 km/h
812 02-05-2020 19:35:00 11.6 C 7.59 g/m*3 11.6 C 4.8 km/h
813 02-05-2020 19:40:00 11.6 C 7.8 g/m*3 11.6 C 4.8 km/h
814 02-05-2020 19:45:00 11.6 C 7.59 g/m*3 11.6 C 6.4 km/h
815 02-05-2020 19:50:00 11.7 C 7.74 g/m*3 11.7 C 8.1 km/h
816 02-05-2020 19:55:00 11.8 C 7.68 g/m*3 11.8 C 8.1 km/h
817 02-05-2020 20:00:00 12 C 7.67 g/m*3 12 C 11.3 km/h
818 02-05-2020 20:05:00 12.1 C 7.61 g/m*3 12.1 C 12.9 km/h
819 02-05-2020 20:10:00 12.1 C 7.61 g/m*3 12.1 C 9.7 km/h
820 02-05-2020 20:15:00 11.9 C 7.52 g/m*3 11.9 C 9.7 km/h
821 02-05-2020 20:20:00 11.9 C 7.63 g/m*3 11.9 C 4.8 km/h
822 02-05-2020 20:25:00 11.7 C 7.53 g/m*3 11.7 C 6.4 km/h
823 02-05-2020 20:30:00 11.6 C 7.69 g/m*3 11.6 C 3.2 km/h
824 02-05-2020 20:35:00 11.5 C 7.85 g/m*3 11.5 C 1.6 km/h
825 02-05-2020 20:40:00 11.2 C 7.8 g/m*3 11.2 C 0 km/h
Sensor: Nr:Datum:Temp:Abs-Feuchte:Windchill:Wind:
Aussen-T/F 826 02-05-2020 20:45:00 10.8 C 7.81 g/m*3 10.8 C 3.2 km/h
827 02-05-2020 20:50:00 10.4 C 7.71 g/m*3 10.4 C 4.8 km/h
828 02-05-2020 20:55:00 10 C 7.71 g/m*3 10 C 4.8 km/h
829 02-05-2020 21:00:00 9.7 C 7.65 g/m*3 9.7 C 4.8 km/h
830 02-05-2020 21:05:00 9.4 C 7.6 g/m*3 8.68 C 6.4 km/h
831 02-05-2020 21:10:00 9.2 C 7.5 g/m*3 8.05 C 8.1 km/h
832 02-05-2020 21:15:00 8.9 C 7.45 g/m*3 8.1 C 6.4 km/h
833 02-05-2020 21:20:00 8.8 C 7.4 g/m*3 7.58 C 8.1 km/h
834 02-05-2020 21:25:00 8.7 C 7.35 g/m*3 7.46 C 8.1 km/h
835 02-05-2020 21:30:00 8.6 C 7.39 g/m*3 7.34 C 8.1 km/h
836 02-05-2020 21:35:00 8.4 C 7.3 g/m*3 7.52 C 6.4 km/h
837 02-05-2020 21:40:00 8.3 C 7.33 g/m*3 7.41 C 6.4 km/h
838 02-05-2020 21:45:00 8.3 C 7.33 g/m*3 7.41 C 6.4 km/h
839 02-05-2020 21:50:00 8.2 C 7.37 g/m*3 8.2 C 4.8 km/h
840 02-05-2020 21:55:00 8.1 C 7.32 g/m*3 8.1 C 3.2 km/h
841 02-05-2020 22:00:00 8 C 7.28 g/m*3 8 C 1.6 km/h
842 02-05-2020 22:05:00 7.9 C 7.31 g/m*3 7.9 C 0 km/h
843 02-05-2020 22:10:00 7.8 C 7.26 g/m*3 7.8 C 3.2 km/h
844 02-05-2020 22:15:00 7.7 C 7.22 g/m*3 7.7 C 3.2 km/h
845 02-05-2020 22:20:00 7.6 C 7.17 g/m*3 7.6 C 1.6 km/h
846 02-05-2020 22:25:00 7.4 C 7.16 g/m*3 7.4 C 0 km/h
847 02-05-2020 22:30:00 7.3 C 7.11 g/m*3 7.3 C 0 km/h
848 02-05-2020 22:35:00 7.2 C 7.06 g/m*3 7.2 C 1.6 km/h
849 02-05-2020 22:40:00 7.2 C 7.06 g/m*3 7.2 C 3.2 km/h
850 02-05-2020 22:45:00 7.1 C 7.1 g/m*3 7.1 C 3.2 km/h
Sensor: Nr:Datum:Temp:Abs-Feuchte:Windchill:Wind:
Aussen-T/F 851 02-05-2020 22:50:00 7 C 7.05 g/m*3 7 C 1.6 km/h
852 02-05-2020 22:55:00 7 C 7.05 g/m*3 7 C 3.2 km/h
853 02-05-2020 23:00:00 7 C 7.05 g/m*3 7 C 3.2 km/h
854 02-05-2020 23:05:00 6.9 C 7.08 g/m*3 6.9 C 3.2 km/h
855 02-05-2020 23:10:00 6.9 C 7.08 g/m*3 6.9 C 1.6 km/h
856 02-05-2020 23:15:00 6.9 C 7.08 g/m*3 6.9 C 3.2 km/h
857 02-05-2020 23:20:00 6.9 C 7.08 g/m*3 5.79 C 6.4 km/h
858 02-05-2020 23:25:00 6.9 C 7.08 g/m*3 6.9 C 4.8 km/h
859 02-05-2020 23:30:00 6.9 C 7.08 g/m*3 6.9 C 4.8 km/h
860 02-05-2020 23:35:00 6.9 C 7.08 g/m*3 6.9 C 4.8 km/h
861 02-05-2020 23:40:00 6.9 C 7.08 g/m*3 6.9 C 3.2 km/h
862 02-05-2020 23:45:00 6.8 C 7.04 g/m*3 6.8 C 1.6 km/h
863 02-05-2020 23:50:00 6.8 C 7.04 g/m*3 6.8 C 3.2 km/h
864 02-05-2020 23:55:00 6.7 C 6.99 g/m*3 6.7 C 0 km/h
865 03-05-2020 00:00:00 6.7 C 6.99 g/m*3 5.56 C 6.4 km/h
866 03-05-2020 00:05:00 6.6 C 6.95 g/m*3 6.6 C 3.2 km/h
867 03-05-2020 00:10:00 6.6 C 6.95 g/m*3 6.6 C 3.2 km/h
868 03-05-2020 00:15:00 6.5 C 6.9 g/m*3 6.5 C 3.2 km/h
869 03-05-2020 00:20:00 6.4 C 6.93 g/m*3 6.4 C 1.6 km/h
870 03-05-2020 00:25:00 6.4 C 6.93 g/m*3 6.4 C 1.6 km/h
871 03-05-2020 00:30:00 6.4 C 6.93 g/m*3 6.4 C 4.8 km/h
872 03-05-2020 00:35:00 6.3 C 6.88 g/m*3 6.3 C 1.6 km/h
873 03-05-2020 00:40:00 6.2 C 6.84 g/m*3 6.2 C 3.2 km/h
874 03-05-2020 00:45:00 6.2 C 6.84 g/m*3 6.2 C 0 km/h
875 03-05-2020 00:50:00 6.1 C 6.79 g/m*3 6.1 C 0 km/h
Sensor: Nr:Datum:Temp:Abs-Feuchte:Windchill:Wind:
Aussen-T/F 876 03-05-2020 00:55:00 6.1 C 6.79 g/m*3 6.1 C 3.2 km/h
877 03-05-2020 01:00:00 6 C 6.75 g/m*3 6 C 0 km/h
878 03-05-2020 01:05:00 5.9 C 6.71 g/m*3 5.9 C 0 km/h
879 03-05-2020 01:10:00 5.8 C 6.66 g/m*3 5.8 C 1.6 km/h
880 03-05-2020 01:15:00 5.8 C 6.66 g/m*3 5.8 C 1.6 km/h
881 03-05-2020 01:20:00 5.7 C 6.62 g/m*3 5.7 C 1.6 km/h
882 03-05-2020 01:25:00 5.7 C 6.62 g/m*3 5.7 C 1.6 km/h
883 03-05-2020 01:30:00 5.6 C 6.57 g/m*3 5.6 C 0 km/h
884 03-05-2020 01:35:00 5.5 C 6.53 g/m*3 5.5 C 0 km/h
885 03-05-2020 01:40:00 5.4 C 6.49 g/m*3 5.4 C 0 km/h
886 03-05-2020 01:45:00 5.3 C 6.52 g/m*3 5.3 C 1.6 km/h
887 03-05-2020 01:50:00 5.3 C 6.52 g/m*3 5.3 C 1.6 km/h
888 03-05-2020 01:55:00 5.3 C 6.52 g/m*3 5.3 C 0 km/h
889 03-05-2020 02:00:00 5.3 C 6.52 g/m*3 5.3 C 1.6 km/h
890 03-05-2020 02:05:00 5.3 C 6.52 g/m*3 5.3 C 0 km/h
891 03-05-2020 02:10:00 5.3 C 6.52 g/m*3 5.3 C 4.8 km/h
892 03-05-2020 02:15:00 5.4 C 6.56 g/m*3 5.4 C 3.2 km/h
893 03-05-2020 02:20:00 5.4 C 6.56 g/m*3 5.4 C 3.2 km/h
894 03-05-2020 02:25:00 5.4 C 6.56 g/m*3 5.4 C 0 km/h
895 03-05-2020 02:30:00 5.3 C 6.52 g/m*3 5.3 C 0 km/h
896 03-05-2020 02:35:00 5.3 C 6.52 g/m*3 5.3 C 1.6 km/h
897 03-05-2020 02:40:00 5.2 C 6.47 g/m*3 5.2 C 0 km/h
898 03-05-2020 02:45:00 5.2 C 6.47 g/m*3 5.2 C 1.6 km/h
899 03-05-2020 02:50:00 5.1 C 6.43 g/m*3 5.1 C 1.6 km/h
900 03-05-2020 02:55:00 5 C 6.39 g/m*3 5 C 0 km/h
Sensor: Nr:Datum:Temp:Abs-Feuchte:Windchill:Wind:
Aussen-T/F 901 03-05-2020 03:00:00 4.9 C 6.35 g/m*3 4.9 C 1.6 km/h
902 03-05-2020 03:05:00 4.9 C 6.35 g/m*3 4.9 C 1.6 km/h
903 03-05-2020 03:10:00 4.8 C 6.3 g/m*3 4.8 C 0 km/h
904 03-05-2020 03:15:00 4.8 C 6.3 g/m*3 4.8 C 1.6 km/h
905 03-05-2020 03:20:00 4.8 C 6.37 g/m*3 4.8 C 3.2 km/h
906 03-05-2020 03:25:00 4.8 C 6.37 g/m*3 4.8 C 3.2 km/h
907 03-05-2020 03:30:00 4.8 C 6.37 g/m*3 4.8 C 0 km/h
908 03-05-2020 03:35:00 4.8 C 6.37 g/m*3 3.36 C 6.4 km/h
909 03-05-2020 03:40:00 4.8 C 6.37 g/m*3 4.8 C 1.6 km/h
910 03-05-2020 03:45:00 4.8 C 6.37 g/m*3 4.8 C 3.2 km/h
911 03-05-2020 03:50:00 4.8 C 6.37 g/m*3 4.8 C 3.2 km/h
912 03-05-2020 03:55:00 4.8 C 6.37 g/m*3 4.8 C 0 km/h
913 03-05-2020 04:00:00 4.8 C 6.37 g/m*3 4.8 C 3.2 km/h
914 03-05-2020 04:05:00 4.8 C 6.37 g/m*3 4.8 C 0 km/h
915 03-05-2020 04:10:00 4.7 C 6.33 g/m*3 4.7 C 0 km/h
916 03-05-2020 04:15:00 4.6 C 6.29 g/m*3 4.6 C 0 km/h
917 03-05-2020 04:20:00 4.4 C 6.2 g/m*3 4.4 C 0 km/h
918 03-05-2020 04:25:00 4.3 C 6.16 g/m*3 4.3 C 0 km/h
919 03-05-2020 04:30:00 4.1 C 6.08 g/m*3 4.1 C 0 km/h
920 03-05-2020 04:35:00 4 C 5.98 g/m*3 4 C 0 km/h
921 03-05-2020 04:40:00 3.9 C 6 g/m*3 3.9 C 0 km/h
922 03-05-2020 04:45:00 3.8 C 5.9 g/m*3 3.8 C 0 km/h
923 03-05-2020 04:50:00 3.7 C 5.92 g/m*3 3.7 C 0 km/h
924 03-05-2020 04:55:00 3.7 C 5.92 g/m*3 3.7 C 0 km/h
925 03-05-2020 05:00:00 3.7 C 5.92 g/m*3 3.7 C 0 km/h
Sensor: Nr:Datum:Temp:Abs-Feuchte:Windchill:Wind:
Aussen-T/F 926 03-05-2020 05:05:00 3.6 C 5.88 g/m*3 3.6 C 1.6 km/h
927 03-05-2020 05:10:00 3.6 C 5.88 g/m*3 3.6 C 0 km/h
928 03-05-2020 05:15:00 3.6 C 5.88 g/m*3 3.6 C 0 km/h
929 03-05-2020 05:20:00 3.5 C 5.84 g/m*3 3.5 C 0 km/h
930 03-05-2020 05:25:00 3.4 C 5.8 g/m*3 3.4 C 0 km/h
931 03-05-2020 05:30:00 3.4 C 5.8 g/m*3 3.4 C 0 km/h
932 03-05-2020 05:35:00 3.4 C 5.8 g/m*3 3.4 C 0 km/h
933 03-05-2020 05:40:00 3.4 C 5.8 g/m*3 3.4 C 0 km/h
934 03-05-2020 05:45:00 3.5 C 5.84 g/m*3 3.5 C 3.2 km/h
935 03-05-2020 05:50:00 3.6 C 5.94 g/m*3 3.6 C 0 km/h
936 03-05-2020 05:55:00 3.7 C 5.98 g/m*3 3.7 C 0 km/h
937 03-05-2020 06:00:00 3.8 C 6.02 g/m*3 3.8 C 0 km/h
938 03-05-2020 06:05:00 3.9 C 6.06 g/m*3 3.9 C 0 km/h
939 03-05-2020 06:10:00 3.9 C 6.06 g/m*3 3.9 C 0 km/h
940 03-05-2020 06:15:00 4.1 C 6.14 g/m*3 4.1 C 3.2 km/h
941 03-05-2020 06:20:00 4.2 C 6.19 g/m*3 4.2 C 1.6 km/h
942 03-05-2020 06:25:00 4.2 C 6.19 g/m*3 4.2 C 0 km/h
943 03-05-2020 06:30:00 4.3 C 6.23 g/m*3 4.3 C 3.2 km/h
944 03-05-2020 06:35:00 4.4 C 6.27 g/m*3 4.4 C 0 km/h
945 03-05-2020 06:40:00 4.4 C 6.27 g/m*3 4.4 C 0 km/h
946 03-05-2020 06:45:00 4.4 C 6.27 g/m*3 4.4 C 0 km/h
947 03-05-2020 06:50:00 4.5 C 6.31 g/m*3 4.5 C 3.2 km/h
948 03-05-2020 06:55:00 4.5 C 6.31 g/m*3 4.5 C 0 km/h
949 03-05-2020 07:00:00 4.5 C 6.31 g/m*3 4.5 C 0 km/h
950 03-05-2020 07:05:00 4.5 C 6.31 g/m*3 4.5 C 1.6 km/h
Sensor: Nr:Datum:Temp:Abs-Feuchte:Windchill:Wind:
Aussen-T/F 951 03-05-2020 07:10:00 4.4 C 6.27 g/m*3 4.4 C 4.8 km/h
952 03-05-2020 07:15:00 4.5 C 6.31 g/m*3 2.52 C 8.1 km/h
953 03-05-2020 07:20:00 4.4 C 6.27 g/m*3 4.4 C 4.8 km/h
954 03-05-2020 07:25:00 4.4 C 6.27 g/m*3 4.4 C 3.2 km/h
955 03-05-2020 07:30:00 4.4 C 6.27 g/m*3 4.4 C 3.2 km/h
956 03-05-2020 07:35:00 4.5 C 6.31 g/m*3 4.5 C 4.8 km/h
957 03-05-2020 07:40:00 4.6 C 6.35 g/m*3 3.13 C 6.4 km/h
958 03-05-2020 07:45:00 4.6 C 6.35 g/m*3 3.13 C 6.4 km/h
959 03-05-2020 07:50:00 4.6 C 6.35 g/m*3 3.13 C 6.4 km/h
960 03-05-2020 07:55:00 4.6 C 6.35 g/m*3 4.6 C 3.2 km/h
961 03-05-2020 08:00:00 4.7 C 6.39 g/m*3 4.7 C 3.2 km/h
962 03-05-2020 08:05:00 4.7 C 6.39 g/m*3 4.7 C 3.2 km/h
963 03-05-2020 08:10:00 4.7 C 6.39 g/m*3 4.7 C 1.6 km/h
964 03-05-2020 08:15:00 4.7 C 6.39 g/m*3 4.7 C 0 km/h
965 03-05-2020 08:20:00 4.8 C 6.44 g/m*3 4.8 C 0 km/h
966 03-05-2020 08:25:00 4.8 C 6.44 g/m*3 4.8 C 0 km/h
967 03-05-2020 08:30:00 4.9 C 6.48 g/m*3 4.9 C 1.6 km/h
968 03-05-2020 08:35:00 5 C 6.52 g/m*3 5 C 0 km/h
969 03-05-2020 08:40:00 5.1 C 6.63 g/m*3 5.1 C 1.6 km/h
970 03-05-2020 08:45:00 5.2 C 6.68 g/m*3 5.2 C 4.8 km/h
971 03-05-2020 08:50:00 5.3 C 6.72 g/m*3 5.3 C 4.8 km/h
972 03-05-2020 08:55:00 5.4 C 6.77 g/m*3 5.4 C 4.8 km/h
973 03-05-2020 09:00:00 5.6 C 6.86 g/m*3 5.6 C 4.8 km/h
974 03-05-2020 09:05:00 5.7 C 6.9 g/m*3 5.7 C 4.8 km/h
975 03-05-2020 09:10:00 5.7 C 6.9 g/m*3 5.7 C 4.8 km/h
Sensor: Nr:Datum:Temp:Abs-Feuchte:Windchill:Wind:
Aussen-T/F 976 03-05-2020 09:15:00 5.8 C 6.95 g/m*3 5.8 C 3.2 km/h
977 03-05-2020 09:20:00 6 C 7.04 g/m*3 6 C 4.8 km/h
978 03-05-2020 09:25:00 6.1 C 7.09 g/m*3 6.1 C 1.6 km/h
979 03-05-2020 09:30:00 6.3 C 7.18 g/m*3 6.3 C 0 km/h
980 03-05-2020 09:35:00 6.3 C 7.18 g/m*3 6.3 C 1.6 km/h
981 03-05-2020 09:40:00 6.4 C 7.23 g/m*3 6.4 C 1.6 km/h
982 03-05-2020 09:45:00 6.7 C 7.37 g/m*3 6.7 C 1.6 km/h
983 03-05-2020 09:50:00 6.9 C 7.47 g/m*3 6.9 C 1.6 km/h
984 03-05-2020 09:55:00 7.1 C 7.57 g/m*3 7.1 C 0 km/h
985 03-05-2020 10:00:00 7.3 C 7.66 g/m*3 7.3 C 0 km/h
986 03-05-2020 10:05:00 7.5 C 7.76 g/m*3 7.5 C 0 km/h
987 03-05-2020 10:10:00 7.6 C 7.81 g/m*3 7.6 C 0 km/h
988 03-05-2020 10:15:00 7.8 C 7.92 g/m*3 7.8 C 0 km/h
989 03-05-2020 10:20:00 8.1 C 8.07 g/m*3 8.1 C 0 km/h
990 03-05-2020 10:25:00 8.3 C 8.09 g/m*3 8.3 C 0 km/h
991 03-05-2020 10:30:00 8.6 C 8.25 g/m*3 8.6 C 0 km/h
992 03-05-2020 10:35:00 8.8 C 8.27 g/m*3 8.8 C 0 km/h
993 03-05-2020 10:40:00 9.1 C 8.34 g/m*3 9.1 C 0 km/h
994 03-05-2020 10:45:00 9.6 C 8.52 g/m*3 9.6 C 3.2 km/h
995 03-05-2020 10:50:00 9.9 C 8.68 g/m*3 9.9 C 1.6 km/h
996 03-05-2020 10:55:00 10.2 C 8.66 g/m*3 10.2 C 4.8 km/h
997 03-05-2020 11:00:00 10.6 C 8.78 g/m*3 10.6 C 4.8 km/h
998 03-05-2020 11:05:00 10.9 C 8.65 g/m*3 10.04 C 8.1 km/h
999 03-05-2020 11:10:00 11.2 C 8.62 g/m*3 11.2 C 3.2 km/h
1000 03-05-2020 11:15:00 11.5 C 8.57 g/m*3 11.5 C 3.2 km/h
Sensor: Nr:Datum:Temp:Abs-Feuchte:Windchill:Wind:
Aussen-T/F 1001 03-05-2020 11:20:00 11.7 C 8.58 g/m*3 11.7 C 1.6 km/h
1002 03-05-2020 11:25:00 12.1 C 8.9 g/m*3 12.1 C 4.8 km/h
1003 03-05-2020 11:30:00 12.5 C 8.8 g/m*3 12.5 C 4.8 km/h
1004 03-05-2020 11:35:00 12.8 C 8.51 g/m*3 12.8 C 6.4 km/h
1005 03-05-2020 11:40:00 13.1 C 8.44 g/m*3 13.1 C 6.4 km/h
1006 03-05-2020 11:45:00 13.2 C 7.92 g/m*3 13.2 C 9.7 km/h
1007 03-05-2020 11:50:00 13.4 C 8.02 g/m*3 13.4 C 9.7 km/h
1008 03-05-2020 11:55:00 13.6 C 7.65 g/m*3 13.6 C 11.3 km/h
1009 03-05-2020 12:00:00 13.7 C 7.7 g/m*3 13.7 C 8.1 km/h
1010 03-05-2020 12:05:00 13.8 C 7.51 g/m*3 13.8 C 8.1 km/h
1011 03-05-2020 12:10:00 13.9 C 7.55 g/m*3 13.9 C 6.4 km/h
1012 03-05-2020 12:15:00 14.1 C 7.52 g/m*3 14.1 C 8.1 km/h
1013 03-05-2020 12:20:00 14.2 C 7.45 g/m*3 14.2 C 11.3 km/h
1014 03-05-2020 12:25:00 14.3 C 7.13 g/m*3 14.3 C 9.7 km/h
1015 03-05-2020 12:30:00 14.3 C 7.25 g/m*3 14.3 C 11.3 km/h
1016 03-05-2020 12:35:00 14.3 C 7.13 g/m*3 14.3 C 4.8 km/h
1017 03-05-2020 12:40:00 14.4 C 7.42 g/m*3 14.4 C 8.1 km/h
1018 03-05-2020 12:45:00 14.5 C 6.72 g/m*3 14.5 C 9.7 km/h
1019 03-05-2020 12:50:00 14.6 C 6.76 g/m*3 14.6 C 9.7 km/h
1020 03-05-2020 12:55:00 14.7 C 6.42 g/m*3 14.7 C 11.3 km/h
1021 03-05-2020 13:00:00 14.8 C 6.71 g/m*3 14.8 C 11.3 km/h
1022 03-05-2020 13:05:00 15 C 6.8 g/m*3 15 C 9.7 km/h
1023 03-05-2020 13:10:00 15.2 C 7.01 g/m*3 15.2 C 9.7 km/h
1024 03-05-2020 13:15:00 15.2 C 7.01 g/m*3 15.2 C 6.4 km/h
1025 03-05-2020 13:20:00 15.3 C 6.79 g/m*3 15.3 C 14.5 km/h
Sensor: Nr:Datum:Temp:Abs-Feuchte:Windchill:Wind:
Aussen-T/F 1026 03-05-2020 13:25:00 15.4 C 6.18 g/m*3 15.4 C 14.5 km/h
1027 03-05-2020 13:30:00 15.4 C 6.31 g/m*3 15.4 C 9.7 km/h
1028 03-05-2020 13:35:00 15.5 C 6.61 g/m*3 15.5 C 9.7 km/h
1029 03-05-2020 13:40:00 15.7 C 6.29 g/m*3 15.7 C 11.3 km/h
1030 03-05-2020 13:45:00 15.8 C 6.6 g/m*3 15.8 C 11.3 km/h
1031 03-05-2020 13:50:00 15.8 C 6.73 g/m*3 15.8 C 9.7 km/h
1032 03-05-2020 13:55:00 15.8 C 6.6 g/m*3 15.8 C 11.3 km/h
1033 03-05-2020 14:00:00 15.8 C 6.6 g/m*3 15.8 C 11.3 km/h
1034 03-05-2020 14:05:00 15.9 C 6.91 g/m*3 15.9 C 6.4 km/h
1035 03-05-2020 14:10:00 16 C 6.4 g/m*3 16 C 9.7 km/h
1036 03-05-2020 14:15:00 16.1 C 6.72 g/m*3 16.1 C 9.7 km/h
1037 03-05-2020 14:20:00 16.2 C 6.21 g/m*3 16.2 C 12.9 km/h
1038 03-05-2020 14:25:00 16.2 C 6.48 g/m*3 16.2 C 12.9 km/h
1039 03-05-2020 14:30:00 16.2 C 6.48 g/m*3 16.2 C 9.7 km/h
1040 03-05-2020 14:35:00 16.2 C 6.34 g/m*3 16.2 C 4.8 km/h
1041 03-05-2020 14:40:00 16.3 C 6.66 g/m*3 16.3 C 9.7 km/h
1042 03-05-2020 14:45:00 16.4 C 6.7 g/m*3 16.4 C 8.1 km/h
1043 03-05-2020 14:50:00 16.7 C 6.54 g/m*3 16.7 C 8.1 km/h
1044 03-05-2020 14:55:00 16.8 C 7.15 g/m*3 16.8 C 9.7 km/h
1045 03-05-2020 15:00:00 17.1 C 6.99 g/m*3 17.1 C 11.3 km/h
1046 03-05-2020 15:05:00 17.2 C 6.74 g/m*3 17.2 C 12.9 km/h
1047 03-05-2020 15:10:00 17.3 C 6.78 g/m*3 17.3 C 9.7 km/h
1048 03-05-2020 15:15:00 17.4 C 6.97 g/m*3 17.4 C 9.7 km/h
1049 03-05-2020 15:20:00 17.3 C 6.78 g/m*3 17.3 C 8.1 km/h
1050 03-05-2020 15:25:00 17.3 C 7.07 g/m*3 17.3 C 8.1 km/h
Sensor: Nr:Datum:Temp:Abs-Feuchte:Windchill:Wind:
Aussen-T/F 1051 03-05-2020 15:30:00 17.3 C 7.37 g/m*3 17.3 C 6.4 km/h
1052 03-05-2020 15:35:00 17.3 C 6.78 g/m*3 17.3 C 9.7 km/h
1053 03-05-2020 15:40:00 17.4 C 6.52 g/m*3 17.4 C 8.1 km/h
1054 03-05-2020 15:45:00 17.6 C 6.6 g/m*3 17.6 C 9.7 km/h
1055 03-05-2020 15:50:00 17.8 C 6.68 g/m*3 17.8 C 11.3 km/h
1056 03-05-2020 15:55:00 17.7 C 6.64 g/m*3 17.7 C 12.9 km/h
1057 03-05-2020 16:00:00 17.7 C 7.24 g/m*3 17.7 C 11.3 km/h
1058 03-05-2020 16:05:00 17.6 C 6.9 g/m*3 17.6 C 11.3 km/h
1059 03-05-2020 16:10:00 17.4 C 6.97 g/m*3 17.4 C 9.7 km/h
1060 03-05-2020 16:15:00 17.3 C 6.63 g/m*3 17.3 C 6.4 km/h
1061 03-05-2020 16:20:00 17.3 C 6.78 g/m*3 17.3 C 6.4 km/h
1062 03-05-2020 16:25:00 17.3 C 7.22 g/m*3 17.3 C 4.8 km/h
1063 03-05-2020 16:30:00 17.3 C 7.22 g/m*3 17.3 C 11.3 km/h
1064 03-05-2020 16:35:00 17.3 C 7.22 g/m*3 17.3 C 9.7 km/h
1065 03-05-2020 16:40:00 17.3 C 7.07 g/m*3 17.3 C 9.7 km/h
1066 03-05-2020 16:45:00 17.3 C 7.07 g/m*3 17.3 C 9.7 km/h
1067 03-05-2020 16:50:00 17.4 C 7.26 g/m*3 17.4 C 8.1 km/h
1068 03-05-2020 16:55:00 17.4 C 7.26 g/m*3 17.4 C 8.1 km/h
1069 03-05-2020 17:00:00 17.3 C 7.37 g/m*3 17.3 C 8.1 km/h
1070 03-05-2020 17:05:00 17.3 C 7.07 g/m*3 17.3 C 6.4 km/h
1071 03-05-2020 17:10:00 17.2 C 7.18 g/m*3 17.2 C 6.4 km/h
1072 03-05-2020 17:15:00 17.2 C 6.88 g/m*3 17.2 C 11.3 km/h
1073 03-05-2020 17:20:00 17 C 7.09 g/m*3 17 C 11.3 km/h
1074 03-05-2020 17:25:00 16.8 C 6.86 g/m*3 16.8 C 9.7 km/h
1075 03-05-2020 17:30:00 16.7 C 7.39 g/m*3 16.7 C 4.8 km/h
Sensor: Nr:Datum:Temp:Abs-Feuchte:Windchill:Wind:
Aussen-T/F 1076 03-05-2020 17:35:00 16.8 C 7.72 g/m*3 16.8 C 4.8 km/h
1077 03-05-2020 17:40:00 16.9 C 7.19 g/m*3 16.9 C 9.7 km/h
1078 03-05-2020 17:45:00 16.9 C 6.9 g/m*3 16.9 C 8.1 km/h
1079 03-05-2020 17:50:00 16.8 C 6.86 g/m*3 16.8 C 8.1 km/h
1080 03-05-2020 17:55:00 16.8 C 7.01 g/m*3 16.8 C 9.7 km/h
1081 03-05-2020 18:00:00 16.7 C 7.11 g/m*3 16.7 C 6.4 km/h
1082 03-05-2020 18:05:00 16.6 C 6.92 g/m*3 16.6 C 6.4 km/h
1083 03-05-2020 18:10:00 16.6 C 7.49 g/m*3 16.6 C 8.1 km/h
1084 03-05-2020 18:15:00 16.6 C 7.2 g/m*3 16.6 C 6.4 km/h
1085 03-05-2020 18:20:00 16.6 C 7.77 g/m*3 16.6 C 4.8 km/h
1086 03-05-2020 18:25:00 16.6 C 7.91 g/m*3 16.6 C 1.6 km/h
1087 03-05-2020 18:30:00 16.6 C 7.49 g/m*3 16.6 C 3.2 km/h
1088 03-05-2020 18:35:00 16.5 C 7.02 g/m*3 16.5 C 6.4 km/h
1089 03-05-2020 18:40:00 16.6 C 8.19 g/m*3 16.6 C 3.2 km/h
1090 03-05-2020 18:45:00 16.7 C 7.96 g/m*3 16.7 C 3.2 km/h
1091 03-05-2020 18:50:00 16.7 C 7.82 g/m*3 16.7 C 3.2 km/h
1092 03-05-2020 18:55:00 16.7 C 7.96 g/m*3 16.7 C 6.4 km/h
1093 03-05-2020 19:00:00 16.6 C 7.35 g/m*3 16.6 C 6.4 km/h
1094 03-05-2020 19:05:00 16.5 C 8.57 g/m*3 16.5 C 1.6 km/h
1095 03-05-2020 19:10:00 16.4 C 8.93 g/m*3 16.4 C 3.2 km/h
1096 03-05-2020 19:15:00 16.1 C 8.22 g/m*3 16.1 C 3.2 km/h
1097 03-05-2020 19:20:00 16 C 8.45 g/m*3 16 C 3.2 km/h
1098 03-05-2020 19:25:00 15.8 C 8.21 g/m*3 15.8 C 4.8 km/h
1099 03-05-2020 19:30:00 15.8 C 9.02 g/m*3 15.8 C 0 km/h
1100 03-05-2020 19:35:00 15.7 C 8.83 g/m*3 15.7 C 3.2 km/h
Sensor: Nr:Datum:Temp:Abs-Feuchte:Windchill:Wind:
Aussen-T/F 1101 03-05-2020 19:40:00 15.6 C 9.18 g/m*3 15.6 C 4.8 km/h
1102 03-05-2020 19:45:00 15.4 C 9.2 g/m*3 15.4 C 4.8 km/h
1103 03-05-2020 19:50:00 15.2 C 9.22 g/m*3 15.2 C 4.8 km/h
1104 03-05-2020 19:55:00 15 C 9.1 g/m*3 15 C 6.4 km/h
1105 03-05-2020 20:00:00 14.8 C 9.25 g/m*3 14.8 C 4.8 km/h
1106 03-05-2020 20:05:00 14.6 C 9.01 g/m*3 14.6 C 4.8 km/h
1107 03-05-2020 20:10:00 14.3 C 8.85 g/m*3 14.3 C 6.4 km/h
1108 03-05-2020 20:15:00 14 C 8.68 g/m*3 14 C 6.4 km/h
1109 03-05-2020 20:20:00 13.7 C 8.64 g/m*3 13.7 C 6.4 km/h
1110 03-05-2020 20:25:00 13.4 C 8.6 g/m*3 13.4 C 4.8 km/h
1111 03-05-2020 20:30:00 13.2 C 8.38 g/m*3 13.2 C 6.4 km/h
1112 03-05-2020 20:35:00 13.1 C 8.56 g/m*3 13.1 C 4.8 km/h
1113 03-05-2020 20:40:00 12.9 C 8.45 g/m*3 12.9 C 4.8 km/h
1114 03-05-2020 20:45:00 12.7 C 8.35 g/m*3 12.7 C 6.4 km/h
1115 03-05-2020 20:50:00 12.6 C 8.3 g/m*3 12.6 C 6.4 km/h
1116 03-05-2020 20:55:00 12.5 C 8.36 g/m*3 12.5 C 4.8 km/h
1117 03-05-2020 21:00:00 12.3 C 8.25 g/m*3 12.3 C 4.8 km/h
1118 03-05-2020 21:05:00 12.3 C 8.36 g/m*3 12.3 C 3.2 km/h
1119 03-05-2020 21:10:00 12.2 C 8.2 g/m*3 12.2 C 6.4 km/h
1120 03-05-2020 21:15:00 12.2 C 8.31 g/m*3 12.2 C 4.8 km/h
1121 03-05-2020 21:20:00 12.1 C 8.26 g/m*3 12.1 C 4.8 km/h
1122 03-05-2020 21:25:00 12.1 C 8.26 g/m*3 12.1 C 3.2 km/h
1123 03-05-2020 21:30:00 12.1 C 8.47 g/m*3 12.1 C 4.8 km/h
1124 03-05-2020 21:35:00 12 C 8.42 g/m*3 12 C 4.8 km/h
1125 03-05-2020 21:40:00 11.9 C 8.26 g/m*3 11.9 C 3.2 km/h
Sensor: Nr:Datum:Temp:Abs-Feuchte:Windchill:Wind:
Aussen-T/F 1126 03-05-2020 21:45:00 11.9 C 8.37 g/m*3 11.9 C 0 km/h
1127 03-05-2020 21:50:00 12 C 8.63 g/m*3 12 C 0 km/h
1128 03-05-2020 21:55:00 11.9 C 8.47 g/m*3 11.9 C 0 km/h
1129 03-05-2020 22:00:00 11.9 C 8.47 g/m*3 11.9 C 1.6 km/h
1130 03-05-2020 22:05:00 11.9 C 8.47 g/m*3 11.9 C 0 km/h
1131 03-05-2020 22:10:00 11.8 C 8.42 g/m*3 11.8 C 0 km/h
1132 03-05-2020 22:15:00 11.8 C 8.31 g/m*3 11.8 C 3.2 km/h
1133 03-05-2020 22:20:00 11.8 C 8.42 g/m*3 11.8 C 0 km/h
1134 03-05-2020 22:25:00 11.8 C 8.42 g/m*3 11.8 C 0 km/h
1135 03-05-2020 22:30:00 11.8 C 8.53 g/m*3 11.8 C 0 km/h
1136 03-05-2020 22:35:00 11.7 C 8.37 g/m*3 11.7 C 0 km/h
1137 03-05-2020 22:40:00 11.7 C 8.37 g/m*3 11.7 C 0 km/h
1138 03-05-2020 22:45:00 11.6 C 8.21 g/m*3 11.6 C 0 km/h
1139 03-05-2020 22:50:00 11.6 C 8.21 g/m*3 11.6 C 0 km/h
1140 03-05-2020 22:55:00 11.6 C 8.21 g/m*3 11.6 C 0 km/h
1141 03-05-2020 23:00:00 11.6 C 8.32 g/m*3 11.6 C 0 km/h
1142 03-05-2020 23:05:00 11.6 C 8.42 g/m*3 11.6 C 0 km/h
1143 03-05-2020 23:10:00 11.6 C 8.52 g/m*3 11.6 C 0 km/h
1144 03-05-2020 23:15:00 11.5 C 8.37 g/m*3 11.5 C 0 km/h
1145 03-05-2020 23:20:00 11.5 C 8.37 g/m*3 11.5 C 0 km/h
1146 03-05-2020 23:25:00 11.4 C 8.21 g/m*3 11.4 C 0 km/h
1147 03-05-2020 23:30:00 11.4 C 8.21 g/m*3 11.4 C 0 km/h
1148 03-05-2020 23:35:00 11.4 C 8.21 g/m*3 11.4 C 4.8 km/h
1149 03-05-2020 23:40:00 11.4 C 8.21 g/m*3 11.4 C 3.2 km/h
1150 03-05-2020 23:45:00 11.4 C 8.11 g/m*3 11.4 C 3.2 km/h
Sensor: Nr:Datum:Temp:Abs-Feuchte:Windchill:Wind:
Aussen-T/F 1151 03-05-2020 23:50:00 11.4 C 8.21 g/m*3 11.4 C 3.2 km/h
1152 03-05-2020 23:55:00 11.4 C 8.21 g/m*3 11.4 C 0 km/h
1153 04-05-2020 00:00:00 11.4 C 8.01 g/m*3 11.4 C 0 km/h
1154 04-05-2020 00:05:00 11.4 C 8.21 g/m*3 11.4 C 0 km/h
1155 04-05-2020 00:10:00 11.4 C 8.21 g/m*3 11.4 C 0 km/h
1156 04-05-2020 00:15:00 11.4 C 8.31 g/m*3 11.4 C 0 km/h
1157 04-05-2020 00:20:00 11.4 C 8.31 g/m*3 11.4 C 0 km/h
1158 04-05-2020 00:25:00 11.3 C 8.36 g/m*3 11.3 C 0 km/h
1159 04-05-2020 00:30:00 11.3 C 8.36 g/m*3 11.3 C 0 km/h
1160 04-05-2020 00:35:00 11.3 C 8.36 g/m*3 11.3 C 0 km/h
1161 04-05-2020 00:40:00 11.3 C 8.36 g/m*3 11.3 C 0 km/h
1162 04-05-2020 00:45:00 11.2 C 8.41 g/m*3 11.2 C 0 km/h
1163 04-05-2020 00:50:00 11.2 C 8.41 g/m*3 11.2 C 0 km/h
1164 04-05-2020 00:55:00 11.2 C 8.31 g/m*3 11.2 C 0 km/h
1165 04-05-2020 01:00:00 11.2 C 8.41 g/m*3 11.2 C 0 km/h
1166 04-05-2020 01:05:00 11.2 C 8.31 g/m*3 11.2 C 0 km/h
1167 04-05-2020 01:10:00 11.1 C 8.26 g/m*3 11.1 C 0 km/h
1168 04-05-2020 01:15:00 11.1 C 8.26 g/m*3 11.1 C 0 km/h
1169 04-05-2020 01:20:00 11 C 8.21 g/m*3 11 C 0 km/h
1170 04-05-2020 01:25:00 11 C 8.21 g/m*3 11 C 4.8 km/h
1171 04-05-2020 01:30:00 10.9 C 8.16 g/m*3 10.9 C 1.6 km/h
1172 04-05-2020 01:35:00 11 C 8.11 g/m*3 11 C 0 km/h
1173 04-05-2020 01:40:00 11 C 8.11 g/m*3 11 C 0 km/h
1174 04-05-2020 01:45:00 11.1 C 8.06 g/m*3 11.1 C 0 km/h
1175 04-05-2020 01:50:00 11.1 C 8.06 g/m*3 11.1 C 0 km/h
Sensor: Nr:Datum:Temp:Abs-Feuchte:Windchill:Wind:
Aussen-T/F 1176 04-05-2020 01:55:00 11.2 C 8.21 g/m*3 11.2 C 0 km/h
1177 04-05-2020 02:00:00 11.2 C 8.31 g/m*3 11.2 C 0 km/h
1178 04-05-2020 02:05:00 11.2 C 8.41 g/m*3 11.2 C 0 km/h
1179 04-05-2020 02:10:00 11.2 C 8.41 g/m*3 11.2 C 0 km/h
1180 04-05-2020 02:15:00 11.1 C 8.36 g/m*3 11.1 C 0 km/h
1181 04-05-2020 02:20:00 11.1 C 8.36 g/m*3 11.1 C 0 km/h
1182 04-05-2020 02:25:00 11 C 8.21 g/m*3 11 C 0 km/h
1183 04-05-2020 02:30:00 11 C 8.31 g/m*3 11 C 0 km/h
1184 04-05-2020 02:35:00 11 C 8.41 g/m*3 11 C 0 km/h
1185 04-05-2020 02:40:00 10.9 C 8.26 g/m*3 10.9 C 0 km/h
1186 04-05-2020 02:45:00 10.9 C 8.36 g/m*3 10.9 C 0 km/h
1187 04-05-2020 02:50:00 10.9 C 8.36 g/m*3 10.9 C 0 km/h
1188 04-05-2020 02:55:00 10.8 C 8.2 g/m*3 10.8 C 0 km/h
1189 04-05-2020 03:00:00 10.7 C 8.05 g/m*3 10.7 C 4.8 km/h
1190 04-05-2020 03:05:00 10.5 C 8.05 g/m*3 10.5 C 0 km/h
1191 04-05-2020 03:10:00 10.4 C 8.1 g/m*3 10.4 C 0 km/h
1192 04-05-2020 03:15:00 10.3 C 8.04 g/m*3 10.3 C 1.6 km/h
1193 04-05-2020 03:20:00 10.2 C 7.99 g/m*3 10.2 C 1.6 km/h
1194 04-05-2020 03:25:00 10 C 7.89 g/m*3 10 C 0 km/h
1195 04-05-2020 03:30:00 9.9 C 7.84 g/m*3 9.9 C 0 km/h
1196 04-05-2020 03:35:00 9.8 C 7.89 g/m*3 9.8 C 0 km/h
1197 04-05-2020 03:40:00 9.7 C 7.74 g/m*3 9.7 C 0 km/h
1198 04-05-2020 03:45:00 9.6 C 7.69 g/m*3 9.6 C 0 km/h
1199 04-05-2020 03:50:00 9.5 C 7.74 g/m*3 9.5 C 0 km/h
1200 04-05-2020 03:55:00 9.4 C 7.6 g/m*3 9.4 C 0 km/h
Sensor: Nr:Datum:Temp:Abs-Feuchte:Windchill:Wind:
Aussen-T/F 1201 04-05-2020 04:00:00 9.3 C 7.64 g/m*3 9.3 C 0 km/h
1202 04-05-2020 04:05:00 9.3 C 7.73 g/m*3 9.3 C 0 km/h
1203 04-05-2020 04:10:00 9.3 C 7.73 g/m*3 9.3 C 0 km/h
1204 04-05-2020 04:15:00 9.2 C 7.68 g/m*3 9.2 C 0 km/h
1205 04-05-2020 04:20:00 9.2 C 7.77 g/m*3 9.2 C 0 km/h
1206 04-05-2020 04:25:00 9.2 C 7.77 g/m*3 9.2 C 0 km/h
1207 04-05-2020 04:30:00 9.2 C 7.77 g/m*3 9.2 C 0 km/h
1208 04-05-2020 04:35:00 9.2 C 7.86 g/m*3 9.2 C 0 km/h
1209 04-05-2020 04:40:00 9.3 C 7.91 g/m*3 9.3 C 0 km/h
1210 04-05-2020 04:45:00 9.3 C 7.91 g/m*3 9.3 C 0 km/h
1211 04-05-2020 04:50:00 9.4 C 7.96 g/m*3 9.4 C 0 km/h
1212 04-05-2020 04:55:00 9.5 C 8.1 g/m*3 9.5 C 0 km/h
1213 04-05-2020 05:00:00 9.5 C 8.01 g/m*3 9.5 C 0 km/h
1214 04-05-2020 05:05:00 9.6 C 8.06 g/m*3 9.6 C 0 km/h
1215 04-05-2020 05:10:00 9.6 C 8.15 g/m*3 9.6 C 0 km/h
1216 04-05-2020 05:15:00 9.7 C 8.11 g/m*3 9.7 C 0 km/h
1217 04-05-2020 05:20:00 9.7 C 8.11 g/m*3 9.7 C 0 km/h
1218 04-05-2020 05:25:00 9.7 C 8.11 g/m*3 9.7 C 0 km/h
1219 04-05-2020 05:30:00 9.8 C 8.16 g/m*3 9.8 C 0 km/h
1220 04-05-2020 05:35:00 9.8 C 8.16 g/m*3 9.8 C 0 km/h
1221 04-05-2020 05:40:00 9.8 C 8.16 g/m*3 9.8 C 0 km/h
1222 04-05-2020 05:45:00 9.8 C 8.16 g/m*3 9.8 C 0 km/h
1223 04-05-2020 05:50:00 9.8 C 8.16 g/m*3 9.8 C 0 km/h
1224 04-05-2020 05:55:00 9.8 C 8.16 g/m*3 9.8 C 0 km/h
1225 04-05-2020 06:00:00 9.8 C 8.26 g/m*3 9.8 C 0 km/h
Sensor: Nr:Datum:Temp:Abs-Feuchte:Windchill:Wind:
Aussen-T/F 1226 04-05-2020 06:05:00 9.8 C 8.16 g/m*3 9.8 C 0 km/h
1227 04-05-2020 06:10:00 9.8 C 8.26 g/m*3 9.8 C 0 km/h
1228 04-05-2020 06:15:00 9.9 C 8.31 g/m*3 9.9 C 0 km/h
1229 04-05-2020 06:20:00 9.9 C 8.31 g/m*3 9.9 C 0 km/h
1230 04-05-2020 06:25:00 9.9 C 8.31 g/m*3 9.9 C 0 km/h
1231 04-05-2020 06:30:00 9.9 C 8.31 g/m*3 9.9 C 0 km/h
1232 04-05-2020 06:35:00 9.9 C 8.31 g/m*3 9.9 C 0 km/h
1233 04-05-2020 06:40:00 9.9 C 8.31 g/m*3 9.9 C 0 km/h
1234 04-05-2020 06:45:00 9.9 C 8.31 g/m*3 9.9 C 0 km/h
1235 04-05-2020 06:50:00 9.9 C 8.31 g/m*3 9.9 C 0 km/h
1236 04-05-2020 06:55:00 9.9 C 8.4 g/m*3 9.9 C 0 km/h
1237 04-05-2020 07:00:00 9.9 C 8.4 g/m*3 9.9 C 0 km/h
1238 04-05-2020 07:05:00 9.9 C 8.4 g/m*3 9.9 C 0 km/h
1239 04-05-2020 07:10:00 10 C 8.46 g/m*3 10 C 0 km/h
1240 04-05-2020 07:15:00 10.1 C 8.51 g/m*3 10.1 C 0 km/h
1241 04-05-2020 07:20:00 10.1 C 8.51 g/m*3 10.1 C 0 km/h
1242 04-05-2020 07:25:00 10.2 C 8.66 g/m*3 10.2 C 0 km/h
1243 04-05-2020 07:30:00 10.3 C 8.71 g/m*3 10.3 C 1.6 km/h
1244 04-05-2020 07:35:00 10.7 C 8.74 g/m*3 9.81 C 8.1 km/h
1245 04-05-2020 07:40:00 10.9 C 8.75 g/m*3 10.9 C 4.8 km/h
1246 04-05-2020 07:45:00 11.1 C 8.76 g/m*3 11.1 C 3.2 km/h
1247 04-05-2020 07:50:00 11.3 C 8.77 g/m*3 11.3 C 4.8 km/h
1248 04-05-2020 07:55:00 11.4 C 8.93 g/m*3 11.4 C 0 km/h
1249 04-05-2020 08:00:00 11.5 C 8.99 g/m*3 11.5 C 0 km/h
1250 04-05-2020 08:05:00 11.6 C 9.15 g/m*3 11.6 C 6.4 km/h
Sensor: Nr:Datum:Temp:Abs-Feuchte:Windchill:Wind:
Aussen-T/F 1251 04-05-2020 08:10:00 11.6 C 9.15 g/m*3 11.6 C 8.1 km/h
1252 04-05-2020 08:15:00 11.6 C 9.25 g/m*3 11.6 C 0 km/h
1253 04-05-2020 08:20:00 11.5 C 9.3 g/m*3 11.5 C 1.6 km/h
1254 04-05-2020 08:25:00 11.5 C 9.3 g/m*3 11.5 C 1.6 km/h
1255 04-05-2020 08:30:00 11.5 C 9.4 g/m*3 11.5 C 3.2 km/h
1256 04-05-2020 08:35:00 11.6 C 9.56 g/m*3 11.6 C 1.6 km/h
1257 04-05-2020 08:40:00 11.6 C 9.56 g/m*3 11.6 C 3.2 km/h
1258 04-05-2020 08:45:00 11.7 C 9.62 g/m*3 11.7 C 3.2 km/h
1259 04-05-2020 08:50:00 11.7 C 9.62 g/m*3 11.7 C 6.4 km/h
1260 04-05-2020 08:55:00 11.7 C 9.62 g/m*3 11.7 C 3.2 km/h
1261 04-05-2020 09:00:00 11.7 C 9.62 g/m*3 11.7 C 0 km/h
1262 04-05-2020 09:05:00 11.6 C 9.56 g/m*3 11.6 C 0 km/h
1263 04-05-2020 09:10:00 11.7 C 9.62 g/m*3 11.7 C 0 km/h
1264 04-05-2020 09:15:00 11.7 C 9.73 g/m*3 11.7 C 0 km/h
1265 04-05-2020 09:20:00 11.8 C 9.79 g/m*3 11.8 C 0 km/h
1266 04-05-2020 09:25:00 11.8 C 9.79 g/m*3 11.8 C 0 km/h
1267 04-05-2020 09:30:00 11.9 C 9.85 g/m*3 11.9 C 1.6 km/h
1268 04-05-2020 09:35:00 11.9 C 9.85 g/m*3 11.9 C 1.6 km/h
1269 04-05-2020 09:40:00 12 C 9.91 g/m*3 12 C 1.6 km/h
1270 04-05-2020 09:45:00 12 C 9.91 g/m*3 12 C 3.2 km/h
1271 04-05-2020 09:50:00 12.1 C 9.97 g/m*3 12.1 C 4.8 km/h
1272 04-05-2020 09:55:00 12.2 C 10.04 g/m*3 12.2 C 4.8 km/h
1273 04-05-2020 10:00:00 12.4 C 10.05 g/m*3 12.4 C 4.8 km/h
1274 04-05-2020 10:05:00 12.6 C 10.18 g/m*3 12.6 C 6.4 km/h
1275 04-05-2020 10:10:00 12.7 C 10.24 g/m*3 12.7 C 3.2 km/h
Sensor: Nr:Datum:Temp:Abs-Feuchte:Windchill:Wind:
Aussen-T/F 1276 04-05-2020 10:15:00 12.9 C 10.26 g/m*3 12.9 C 4.8 km/h
1277 04-05-2020 10:20:00 12.9 C 10.14 g/m*3 12.9 C 8.1 km/h
1278 04-05-2020 10:25:00 13.1 C 10.27 g/m*3 13.1 C 6.4 km/h
1279 04-05-2020 10:30:00 13.3 C 10.51 g/m*3 13.3 C 8.1 km/h
1280 04-05-2020 10:35:00 13.5 C 10.41 g/m*3 13.5 C 8.1 km/h
1281 04-05-2020 10:40:00 13.7 C 10.54 g/m*3 13.7 C 8.1 km/h
1282 04-05-2020 10:45:00 13.7 C 10.54 g/m*3 13.7 C 8.1 km/h
1283 04-05-2020 10:50:00 13.8 C 10.48 g/m*3 13.8 C 4.8 km/h
1284 04-05-2020 10:55:00 13.9 C 10.67 g/m*3 13.9 C 6.4 km/h
1285 04-05-2020 11:00:00 13.9 C 10.55 g/m*3 13.9 C 3.2 km/h
1286 04-05-2020 11:05:00 13.8 C 10.48 g/m*3 13.8 C 6.4 km/h
1287 04-05-2020 11:10:00 13.8 C 10.6 g/m*3 13.8 C 1.6 km/h
1288 04-05-2020 11:15:00 13.7 C 10.54 g/m*3 13.7 C 3.2 km/h
1289 04-05-2020 11:20:00 13.6 C 10.47 g/m*3 13.6 C 6.4 km/h
1290 04-05-2020 11:25:00 13.4 C 10.46 g/m*3 13.4 C 9.7 km/h
1291 04-05-2020 11:30:00 13.2 C 10.22 g/m*3 13.2 C 9.7 km/h
1292 04-05-2020 11:35:00 12.9 C 10.14 g/m*3 12.9 C 4.8 km/h
1293 04-05-2020 11:40:00 12.8 C 10.08 g/m*3 12.8 C 8.1 km/h
1294 04-05-2020 11:45:00 12.7 C 10.13 g/m*3 12.7 C 6.4 km/h
1295 04-05-2020 11:50:00 12.6 C 10.07 g/m*3 12.6 C 8.1 km/h
1296 04-05-2020 11:55:00 12.4 C 9.94 g/m*3 12.4 C 9.7 km/h
1297 04-05-2020 12:00:00 12.3 C 9.99 g/m*3 12.3 C 3.2 km/h
1298 04-05-2020 12:05:00 12.3 C 9.99 g/m*3 12.3 C 4.8 km/h
1299 04-05-2020 12:10:00 12.3 C 9.99 g/m*3 12.3 C 4.8 km/h
1300 04-05-2020 12:15:00 12.3 C 9.99 g/m*3 12.3 C 11.3 km/h
Sensor: Nr:Datum:Temp:Abs-Feuchte:Windchill:Wind:
Aussen-T/F 1301 04-05-2020 12:20:00 12.4 C 10.05 g/m*3 12.4 C 11.3 km/h
1302 04-05-2020 12:25:00 12.6 C 10.29 g/m*3 12.6 C 11.3 km/h
1303 04-05-2020 12:30:00 12.8 C 10.42 g/m*3 12.8 C 9.7 km/h
1304 04-05-2020 12:35:00 12.9 C 10.37 g/m*3 12.9 C 12.9 km/h
1305 04-05-2020 12:40:00 12.9 C 10.26 g/m*3 12.9 C 8.1 km/h
1306 04-05-2020 12:45:00 13 C 10.32 g/m*3 13 C 12.9 km/h
1307 04-05-2020 12:50:00 12.9 C 10.26 g/m*3 12.9 C 11.3 km/h
1308 04-05-2020 12:55:00 13.1 C 10.38 g/m*3 13.1 C 6.4 km/h
1309 04-05-2020 13:00:00 13.3 C 10.63 g/m*3 13.3 C 9.7 km/h
1310 04-05-2020 13:05:00 13.4 C 10.58 g/m*3 13.4 C 8.1 km/h
1311 04-05-2020 13:10:00 13.4 C 10.35 g/m*3 13.4 C 6.4 km/h
1312 04-05-2020 13:15:00 13.4 C 10.23 g/m*3 13.4 C 1.6 km/h
1313 04-05-2020 13:20:00 13.7 C 10.42 g/m*3 13.7 C 12.9 km/h
1314 04-05-2020 13:25:00 13.9 C 10.19 g/m*3 13.9 C 8.1 km/h
1315 04-05-2020 13:30:00 14.1 C 10.19 g/m*3 14.1 C 8.1 km/h
1316 04-05-2020 13:35:00 14.3 C 10.32 g/m*3 14.3 C 8.1 km/h
1317 04-05-2020 13:40:00 14.6 C 10.51 g/m*3 14.6 C 6.4 km/h
1318 04-05-2020 13:45:00 14.7 C 10.32 g/m*3 14.7 C 11.3 km/h
1319 04-05-2020 13:50:00 14.7 C 10.2 g/m*3 14.7 C 6.4 km/h
1320 04-05-2020 13:55:00 14.6 C 10.26 g/m*3 14.6 C 6.4 km/h
1321 04-05-2020 14:00:00 14.6 C 10.39 g/m*3 14.6 C 8.1 km/h
1322 04-05-2020 14:05:00 14.5 C 10.07 g/m*3 14.5 C 11.3 km/h
1323 04-05-2020 14:10:00 14.5 C 10.07 g/m*3 14.5 C 9.7 km/h
1324 04-05-2020 14:15:00 14.6 C 10.26 g/m*3 14.6 C 12.9 km/h
1325 04-05-2020 14:20:00 14.8 C 10.39 g/m*3 14.8 C 16.1 km/h
Sensor: Nr:Datum:Temp:Abs-Feuchte:Windchill:Wind:
Aussen-T/F 1326 04-05-2020 14:25:00 14.9 C 10.32 g/m*3 14.9 C 16.1 km/h
1327 04-05-2020 14:30:00 15 C 10.39 g/m*3 15 C 9.7 km/h
1328 04-05-2020 14:35:00 15.1 C 10.45 g/m*3 15.1 C 11.3 km/h
1329 04-05-2020 14:40:00 14.9 C 10.2 g/m*3 14.9 C 14.5 km/h
1330 04-05-2020 14:45:00 14.7 C 9.95 g/m*3 14.7 C 14.5 km/h
1331 04-05-2020 14:50:00 14.6 C 10.01 g/m*3 14.6 C 11.3 km/h
1332 04-05-2020 14:55:00 14.5 C 10.07 g/m*3 14.5 C 9.7 km/h
1333 04-05-2020 15:00:00 14.4 C 10.01 g/m*3 14.4 C 9.7 km/h
1334 04-05-2020 15:05:00 14.3 C 10.07 g/m*3 14.3 C 9.7 km/h
1335 04-05-2020 15:10:00 14.3 C 10.07 g/m*3 14.3 C 11.3 km/h
1336 04-05-2020 15:15:00 14.3 C 10.07 g/m*3 14.3 C 6.4 km/h
1337 04-05-2020 15:20:00 14.3 C 10.07 g/m*3 14.3 C 8.1 km/h
1338 04-05-2020 15:25:00 14.4 C 9.89 g/m*3 14.4 C 8.1 km/h
1339 04-05-2020 15:30:00 14.3 C 9.71 g/m*3 14.3 C 8.1 km/h
1340 04-05-2020 15:35:00 14.2 C 9.65 g/m*3 14.2 C 8.1 km/h
1341 04-05-2020 15:40:00 14.2 C 9.65 g/m*3 14.2 C 9.7 km/h
1342 04-05-2020 15:45:00 14.3 C 9.58 g/m*3 14.3 C 6.4 km/h
1343 04-05-2020 15:50:00 14.4 C 9.64 g/m*3 14.4 C 9.7 km/h
1344 04-05-2020 15:55:00 14.6 C 9.76 g/m*3 14.6 C 11.3 km/h
1345 04-05-2020 16:00:00 14.7 C 9.82 g/m*3 14.7 C 9.7 km/h
1346 04-05-2020 16:05:00 14.7 C 9.44 g/m*3 14.7 C 11.3 km/h
1347 04-05-2020 16:10:00 14.7 C 9.32 g/m*3 14.7 C 12.9 km/h
1348 04-05-2020 16:15:00 14.8 C 9.5 g/m*3 14.8 C 11.3 km/h
1349 04-05-2020 16:20:00 14.8 C 9.37 g/m*3 14.8 C 9.7 km/h
1350 04-05-2020 16:25:00 14.7 C 9.32 g/m*3 14.7 C 11.3 km/h
Sensor: Nr:Datum:Temp:Abs-Feuchte:Windchill:Wind:
Aussen-T/F 1351 04-05-2020 16:30:00 14.4 C 8.9 g/m*3 14.4 C 12.9 km/h
1352 04-05-2020 16:35:00 14.3 C 8.97 g/m*3 14.3 C 12.9 km/h
1353 04-05-2020 16:40:00 14.4 C 9.27 g/m*3 14.4 C 9.7 km/h
1354 04-05-2020 16:45:00 14.4 C 9.15 g/m*3 14.4 C 9.7 km/h
1355 04-05-2020 16:50:00 14.6 C 9.13 g/m*3 14.6 C 14.5 km/h
1356 04-05-2020 16:55:00 14.6 C 9.13 g/m*3 14.6 C 11.3 km/h
1357 04-05-2020 17:00:00 14.5 C 8.95 g/m*3 14.5 C 12.9 km/h
1358 04-05-2020 17:05:00 14.4 C 9.02 g/m*3 14.4 C 16.1 km/h
1359 04-05-2020 17:10:00 14.4 C 8.9 g/m*3 14.4 C 12.9 km/h
1360 04-05-2020 17:15:00 14.3 C 8.97 g/m*3 14.3 C 12.9 km/h
1361 04-05-2020 17:20:00 14.3 C 9.09 g/m*3 14.3 C 11.3 km/h
1362 04-05-2020 17:25:00 14.3 C 8.97 g/m*3 14.3 C 6.4 km/h
1363 04-05-2020 17:30:00 14.3 C 8.85 g/m*3 14.3 C 6.4 km/h
1364 04-05-2020 17:35:00 14.3 C 8.97 g/m*3 14.3 C 11.3 km/h
1365 04-05-2020 17:40:00 14.2 C 8.55 g/m*3 14.2 C 12.9 km/h
1366 04-05-2020 17:45:00 14.2 C 8.67 g/m*3 14.2 C 11.3 km/h
1367 04-05-2020 17:50:00 14.2 C 8.79 g/m*3 14.2 C 9.7 km/h
1368 04-05-2020 17:55:00 14.2 C 8.67 g/m*3 14.2 C 11.3 km/h
1369 04-05-2020 18:00:00 14.2 C 8.55 g/m*3 14.2 C 6.4 km/h
1370 04-05-2020 18:05:00 14.3 C 8.6 g/m*3 14.3 C 9.7 km/h
1371 04-05-2020 18:10:00 14.3 C 8.6 g/m*3 14.3 C 6.4 km/h
1372 04-05-2020 18:15:00 14.3 C 8.6 g/m*3 14.3 C 4.8 km/h
1373 04-05-2020 18:20:00 14.2 C 8.43 g/m*3 14.2 C 3.2 km/h
1374 04-05-2020 18:25:00 14.1 C 8.62 g/m*3 14.1 C 4.8 km/h
1375 04-05-2020 18:30:00 14 C 8.44 g/m*3 14 C 6.4 km/h
Sensor: Nr:Datum:Temp:Abs-Feuchte:Windchill:Wind:
Aussen-T/F 1376 04-05-2020 18:35:00 14 C 8.93 g/m*3 14 C 1.6 km/h
1377 04-05-2020 18:40:00 13.9 C 8.51 g/m*3 13.9 C 6.4 km/h
1378 04-05-2020 18:45:00 13.8 C 8.34 g/m*3 13.8 C 4.8 km/h
1379 04-05-2020 18:50:00 13.8 C 8.34 g/m*3 13.8 C 6.4 km/h
1380 04-05-2020 18:55:00 13.8 C 8.34 g/m*3 13.8 C 4.8 km/h
1381 04-05-2020 19:00:00 13.8 C 8.34 g/m*3 13.8 C 3.2 km/h
1382 04-05-2020 19:05:00 13.8 C 9.06 g/m*3 13.8 C 0 km/h
1383 04-05-2020 19:10:00 13.8 C 8.94 g/m*3 13.8 C 0 km/h
1384 04-05-2020 19:15:00 13.7 C 9 g/m*3 13.7 C 0 km/h
1385 04-05-2020 19:20:00 13.6 C 8.94 g/m*3 13.6 C 0 km/h
1386 04-05-2020 19:25:00 13.4 C 8.6 g/m*3 13.4 C 3.2 km/h
1387 04-05-2020 19:30:00 13.3 C 8.78 g/m*3 13.3 C 1.6 km/h
1388 04-05-2020 19:35:00 13.3 C 9.24 g/m*3 13.3 C 0 km/h
1389 04-05-2020 19:40:00 13.3 C 9.36 g/m*3 13.3 C 0 km/h
1390 04-05-2020 19:45:00 13.2 C 9.19 g/m*3 13.2 C 0 km/h
1391 04-05-2020 19:50:00 13.1 C 9.36 g/m*3 13.1 C 0 km/h
1392 04-05-2020 19:55:00 13.1 C 9.47 g/m*3 13.1 C 0 km/h
1393 04-05-2020 20:00:00 13.1 C 9.36 g/m*3 13.1 C 0 km/h
1394 04-05-2020 20:05:00 13 C 9.3 g/m*3 13 C 0 km/h
1395 04-05-2020 20:10:00 13 C 9.3 g/m*3 13 C 0 km/h
1396 04-05-2020 20:15:00 12.9 C 9.35 g/m*3 12.9 C 0 km/h
1397 04-05-2020 20:20:00 12.9 C 9.47 g/m*3 12.9 C 0 km/h
1398 04-05-2020 20:25:00 12.8 C 9.41 g/m*3 12.8 C 0 km/h
1399 04-05-2020 20:30:00 12.6 C 9.18 g/m*3 12.6 C 0 km/h
1400 04-05-2020 20:35:00 12.4 C 9.07 g/m*3 12.4 C 0 km/h
Sensor: Nr:Datum:Temp:Abs-Feuchte:Windchill:Wind:
Aussen-T/F 1401 04-05-2020 20:40:00 12.2 C 8.52 g/m*3 12.2 C 6.4 km/h
1402 04-05-2020 20:45:00 12.2 C 8.52 g/m*3 12.2 C 4.8 km/h
1403 04-05-2020 20:50:00 12.2 C 8.74 g/m*3 12.2 C 4.8 km/h
1404 04-05-2020 20:55:00 12.1 C 8.69 g/m*3 12.1 C 4.8 km/h
1405 04-05-2020 21:00:00 11.9 C 8.47 g/m*3 11.9 C 1.6 km/h
1406 04-05-2020 21:05:00 11.7 C 8.37 g/m*3 11.7 C 0 km/h
1407 04-05-2020 21:10:00 11.4 C 8.21 g/m*3 11.4 C 1.6 km/h
1408 04-05-2020 21:15:00 11.1 C 7.96 g/m*3 11.1 C 1.6 km/h
1409 04-05-2020 21:20:00 10.8 C 7.81 g/m*3 10.8 C 0 km/h
1410 04-05-2020 21:25:00 10.6 C 7.71 g/m*3 10.6 C 0 km/h
1411 04-05-2020 21:30:00 10.3 C 7.57 g/m*3 10.3 C 1.6 km/h
1412 04-05-2020 21:35:00 10.1 C 7.56 g/m*3 10.1 C 0 km/h
1413 04-05-2020 21:40:00 9.9 C 7.38 g/m*3 9.9 C 1.6 km/h
1414 04-05-2020 21:45:00 9.7 C 7.47 g/m*3 9.7 C 1.6 km/h
1415 04-05-2020 21:50:00 9.6 C 7.42 g/m*3 9.6 C 0 km/h
1416 04-05-2020 21:55:00 9.4 C 7.33 g/m*3 9.4 C 3.2 km/h
1417 04-05-2020 22:00:00 9.2 C 7.23 g/m*3 9.2 C 4.8 km/h
1418 04-05-2020 22:05:00 9.1 C 7.19 g/m*3 9.1 C 3.2 km/h
1419 04-05-2020 22:10:00 9 C 7.14 g/m*3 9 C 3.2 km/h
1420 04-05-2020 22:15:00 8.9 C 7.18 g/m*3 8.9 C 0 km/h
1421 04-05-2020 22:20:00 8.8 C 7.14 g/m*3 8.8 C 0 km/h
1422 04-05-2020 22:25:00 8.6 C 7.13 g/m*3 8.6 C 0 km/h
1423 04-05-2020 22:30:00 8.5 C 7.17 g/m*3 8.5 C 0 km/h
1424 04-05-2020 22:35:00 8.3 C 7.16 g/m*3 8.3 C 0 km/h
1425 04-05-2020 22:40:00 8.2 C 7.12 g/m*3 8.2 C 0 km/h
Sensor: Nr:Datum:Temp:Abs-Feuchte:Windchill:Wind:
Aussen-T/F 1426 04-05-2020 22:45:00 8.1 C 7.16 g/m*3 8.1 C 0 km/h
1427 04-05-2020 22:50:00 8 C 7.11 g/m*3 8 C 0 km/h
1428 04-05-2020 22:55:00 7.9 C 7.15 g/m*3 7.9 C 0 km/h
1429 04-05-2020 23:00:00 7.8 C 7.1 g/m*3 7.8 C 1.6 km/h
1430 04-05-2020 23:05:00 7.6 C 7.01 g/m*3 7.6 C 0 km/h
1431 04-05-2020 23:10:00 7.6 C 7.01 g/m*3 7.6 C 1.6 km/h
1432 04-05-2020 23:15:00 7.4 C 6.92 g/m*3 7.4 C 3.2 km/h
1433 04-05-2020 23:20:00 7.3 C 6.87 g/m*3 7.3 C 3.2 km/h
1434 04-05-2020 23:25:00 7.2 C 6.83 g/m*3 7.2 C 3.2 km/h
1435 04-05-2020 23:30:00 7.2 C 6.83 g/m*3 7.2 C 3.2 km/h
1436 04-05-2020 23:35:00 7.1 C 6.79 g/m*3 7.1 C 3.2 km/h
1437 04-05-2020 23:40:00 7.1 C 6.79 g/m*3 7.1 C 3.2 km/h
1438 04-05-2020 23:45:00 7 C 6.74 g/m*3 7 C 1.6 km/h
1439 04-05-2020 23:50:00 6.9 C 6.77 g/m*3 6.9 C 1.6 km/h
1440 04-05-2020 23:55:00 6.9 C 6.77 g/m*3 6.9 C 3.2 km/h
1441 05-05-2020 00:00:00 6.8 C 6.73 g/m*3 6.8 C 3.2 km/h
1442 05-05-2020 00:05:00 6.7 C 6.69 g/m*3 6.7 C 3.2 km/h
1443 05-05-2020 00:10:00 6.7 C 6.69 g/m*3 6.7 C 1.6 km/h
1444 05-05-2020 00:15:00 6.6 C 6.64 g/m*3 6.6 C 3.2 km/h
1445 05-05-2020 00:20:00 6.5 C 6.67 g/m*3 6.5 C 1.6 km/h
1446 05-05-2020 00:25:00 6.4 C 6.63 g/m*3 6.4 C 0 km/h
1447 05-05-2020 00:30:00 6.4 C 6.63 g/m*3 6.4 C 0 km/h
1448 05-05-2020 00:35:00 6.3 C 6.66 g/m*3 6.3 C 0 km/h
1449 05-05-2020 00:40:00 6.2 C 6.62 g/m*3 6.2 C 0 km/h
1450 05-05-2020 00:45:00 6.2 C 6.62 g/m*3 6.2 C 1.6 km/h
Sensor: Nr:Datum:Temp:Abs-Feuchte:Windchill:Wind:
Aussen-T/F 1451 05-05-2020 00:50:00 6.1 C 6.58 g/m*3 6.1 C 1.6 km/h
1452 05-05-2020 00:55:00 6 C 6.6 g/m*3 6 C 0 km/h
1453 05-05-2020 01:00:00 6 C 6.6 g/m*3 6 C 0 km/h
1454 05-05-2020 01:05:00 5.9 C 6.56 g/m*3 5.9 C 0 km/h
1455 05-05-2020 01:10:00 5.8 C 6.52 g/m*3 5.8 C 0 km/h
1456 05-05-2020 01:15:00 5.8 C 6.52 g/m*3 5.8 C 0 km/h
1457 05-05-2020 01:20:00 5.7 C 6.48 g/m*3 5.7 C 0 km/h
1458 05-05-2020 01:25:00 5.7 C 6.48 g/m*3 5.7 C 0 km/h
1459 05-05-2020 01:30:00 5.7 C 6.48 g/m*3 5.7 C 0 km/h
1460 05-05-2020 01:35:00 5.6 C 6.43 g/m*3 5.6 C 0 km/h
1461 05-05-2020 01:40:00 5.5 C 6.39 g/m*3 5.5 C 0 km/h
1462 05-05-2020 01:45:00 5.3 C 6.38 g/m*3 5.3 C 0 km/h
1463 05-05-2020 01:50:00 5.3 C 6.31 g/m*3 5.3 C 0 km/h
1464 05-05-2020 01:55:00 5.2 C 6.33 g/m*3 5.2 C 0 km/h
1465 05-05-2020 02:00:00 5.1 C 6.29 g/m*3 5.1 C 0 km/h
1466 05-05-2020 02:05:00 5.1 C 6.29 g/m*3 5.1 C 0 km/h
1467 05-05-2020 02:10:00 5 C 6.25 g/m*3 5 C 0 km/h
1468 05-05-2020 02:15:00 4.9 C 6.28 g/m*3 4.9 C 0 km/h
1469 05-05-2020 02:20:00 4.9 C 6.28 g/m*3 4.9 C 0 km/h
1470 05-05-2020 02:25:00 4.9 C 6.28 g/m*3 4.9 C 0 km/h
1471 05-05-2020 02:30:00 4.9 C 6.28 g/m*3 4.9 C 0 km/h
1472 05-05-2020 02:35:00 4.9 C 6.28 g/m*3 4.9 C 0 km/h
1473 05-05-2020 02:40:00 4.8 C 6.24 g/m*3 4.8 C 0 km/h
1474 05-05-2020 02:45:00 4.8 C 6.24 g/m*3 4.8 C 0 km/h
1475 05-05-2020 02:50:00 4.8 C 6.24 g/m*3 4.8 C 0 km/h
Sensor: Nr:Datum:Temp:Abs-Feuchte:Windchill:Wind:
Aussen-T/F 1476 05-05-2020 02:55:00 4.7 C 6.19 g/m*3 4.7 C 0 km/h
1477 05-05-2020 03:00:00 4.7 C 6.19 g/m*3 4.7 C 0 km/h
1478 05-05-2020 03:05:00 4.7 C 6.26 g/m*3 4.7 C 3.2 km/h
1479 05-05-2020 03:10:00 4.8 C 6.3 g/m*3 4.8 C 1.6 km/h
1480 05-05-2020 03:15:00 4.8 C 6.3 g/m*3 4.8 C 0 km/h
1481 05-05-2020 03:20:00 4.8 C 6.3 g/m*3 4.8 C 1.6 km/h
1482 05-05-2020 03:25:00 4.8 C 6.3 g/m*3 4.8 C 0 km/h
1483 05-05-2020 03:30:00 4.9 C 6.35 g/m*3 4.9 C 0 km/h
1484 05-05-2020 03:35:00 4.9 C 6.35 g/m*3 4.9 C 0 km/h
1485 05-05-2020 03:40:00 4.9 C 6.35 g/m*3 4.9 C 0 km/h
1486 05-05-2020 03:45:00 4.9 C 6.35 g/m*3 4.9 C 0 km/h
1487 05-05-2020 03:50:00 4.8 C 6.3 g/m*3 4.8 C 0 km/h
1488 05-05-2020 03:55:00 4.8 C 6.3 g/m*3 4.8 C 0 km/h
1489 05-05-2020 04:00:00 4.8 C 6.3 g/m*3 4.8 C 0 km/h
1490 05-05-2020 04:05:00 4.8 C 6.3 g/m*3 4.8 C 0 km/h
1491 05-05-2020 04:10:00 4.7 C 6.26 g/m*3 4.7 C 0 km/h
1492 05-05-2020 04:15:00 4.7 C 6.26 g/m*3 4.7 C 0 km/h
1493 05-05-2020 04:20:00 4.6 C 6.22 g/m*3 4.6 C 0 km/h
1494 05-05-2020 04:25:00 4.6 C 6.22 g/m*3 4.6 C 0 km/h
1495 05-05-2020 04:30:00 4.4 C 6.14 g/m*3 4.4 C 0 km/h
1496 05-05-2020 04:35:00 4.4 C 6.14 g/m*3 4.4 C 0 km/h
1497 05-05-2020 04:40:00 4.3 C 6.1 g/m*3 4.3 C 0 km/h
1498 05-05-2020 04:45:00 4.3 C 6.1 g/m*3 4.3 C 0 km/h
1499 05-05-2020 04:50:00 4.3 C 6.16 g/m*3 4.3 C 0 km/h
1500 05-05-2020 04:55:00 4.3 C 6.16 g/m*3 4.3 C 0 km/h
Sensor: Nr:Datum:Temp:Abs-Feuchte:Windchill:Wind:
Aussen-T/F 1501 05-05-2020 05:00:00 4.3 C 6.16 g/m*3 4.3 C 0 km/h
1502 05-05-2020 05:05:00 4.2 C 6.12 g/m*3 4.2 C 0 km/h
1503 05-05-2020 05:10:00 4.2 C 6.12 g/m*3 4.2 C 0 km/h
1504 05-05-2020 05:15:00 4.3 C 6.16 g/m*3 4.3 C 0 km/h
1505 05-05-2020 05:20:00 4.3 C 6.16 g/m*3 4.3 C 0 km/h
1506 05-05-2020 05:25:00 4.3 C 6.16 g/m*3 4.3 C 0 km/h
1507 05-05-2020 05:30:00 4.3 C 6.16 g/m*3 4.3 C 0 km/h
1508 05-05-2020 05:35:00 4.2 C 6.12 g/m*3 4.2 C 0 km/h
1509 05-05-2020 05:40:00 4.2 C 6.12 g/m*3 4.2 C 0 km/h
1510 05-05-2020 05:45:00 4.2 C 6.12 g/m*3 4.2 C 0 km/h
1511 05-05-2020 05:50:00 4.1 C 6.08 g/m*3 4.1 C 0 km/h
1512 05-05-2020 05:55:00 4.2 C 6.12 g/m*3 4.2 C 0 km/h
1513 05-05-2020 06:00:00 4.2 C 6.12 g/m*3 4.2 C 0 km/h
1514 05-05-2020 06:05:00 4.2 C 6.12 g/m*3 4.2 C 0 km/h
1515 05-05-2020 06:10:00 4.2 C 6.12 g/m*3 4.2 C 0 km/h
1516 05-05-2020 06:15:00 4.2 C 6.12 g/m*3 4.2 C 0 km/h
1517 05-05-2020 06:20:00 4.2 C 6.12 g/m*3 4.2 C 0 km/h
1518 05-05-2020 06:25:00 4.3 C 6.16 g/m*3 4.3 C 0 km/h
1519 05-05-2020 06:30:00 4.4 C 6.2 g/m*3 4.4 C 0 km/h
1520 05-05-2020 06:35:00 4.4 C 6.2 g/m*3 4.4 C 0 km/h
1521 05-05-2020 06:40:00 4.5 C 6.31 g/m*3 4.5 C 0 km/h
1522 05-05-2020 06:45:00 4.6 C 6.35 g/m*3 4.6 C 0 km/h
1523 05-05-2020 06:50:00 4.7 C 6.39 g/m*3 4.7 C 0 km/h
1524 05-05-2020 06:55:00 4.8 C 6.44 g/m*3 4.8 C 0 km/h
1525 05-05-2020 07:00:00 4.8 C 6.44 g/m*3 4.8 C 0 km/h
Sensor: Nr:Datum:Temp:Abs-Feuchte:Windchill:Wind:
Aussen-T/F 1526 05-05-2020 07:05:00 4.9 C 6.48 g/m*3 4.9 C 0 km/h
1527 05-05-2020 07:10:00 5 C 6.52 g/m*3 5 C 0 km/h
1528 05-05-2020 07:15:00 5.2 C 6.61 g/m*3 5.2 C 0 km/h
1529 05-05-2020 07:20:00 5.2 C 6.61 g/m*3 5.2 C 0 km/h
1530 05-05-2020 07:25:00 5.3 C 6.65 g/m*3 5.3 C 0 km/h
1531 05-05-2020 07:30:00 5.4 C 6.7 g/m*3 5.4 C 0 km/h
1532 05-05-2020 07:35:00 5.5 C 6.74 g/m*3 5.5 C 0 km/h
1533 05-05-2020 07:40:00 5.7 C 6.83 g/m*3 5.7 C 0 km/h
1534 05-05-2020 07:45:00 5.7 C 6.83 g/m*3 5.7 C 0 km/h
1535 05-05-2020 07:50:00 5.9 C 6.92 g/m*3 5.9 C 0 km/h
1536 05-05-2020 07:55:00 6 C 6.97 g/m*3 6 C 0 km/h
1537 05-05-2020 08:00:00 6.1 C 7.01 g/m*3 6.1 C 0 km/h
1538 05-05-2020 08:05:00 6.2 C 7.06 g/m*3 6.2 C 0 km/h
1539 05-05-2020 08:10:00 6.2 C 7.06 g/m*3 6.2 C 0 km/h
1540 05-05-2020 08:15:00 6.3 C 7.11 g/m*3 6.3 C 0 km/h
1541 05-05-2020 08:20:00 6.5 C 7.2 g/m*3 6.5 C 0 km/h
1542 05-05-2020 08:25:00 6.6 C 7.25 g/m*3 6.6 C 0 km/h
1543 05-05-2020 08:30:00 6.7 C 7.29 g/m*3 6.7 C 0 km/h
1544 05-05-2020 08:35:00 6.7 C 7.29 g/m*3 6.7 C 0 km/h
1545 05-05-2020 08:40:00 6.7 C 7.22 g/m*3 6.7 C 0 km/h
1546 05-05-2020 08:45:00 6.7 C 7.22 g/m*3 6.7 C 4.8 km/h
1547 05-05-2020 08:50:00 6.8 C 7.27 g/m*3 6.8 C 1.6 km/h
1548 05-05-2020 08:55:00 7 C 7.36 g/m*3 7 C 3.2 km/h
1549 05-05-2020 09:00:00 7.1 C 7.33 g/m*3 7.1 C 3.2 km/h
1550 05-05-2020 09:05:00 7.2 C 7.3 g/m*3 7.2 C 3.2 km/h
Sensor: Nr:Datum:Temp:Abs-Feuchte:Windchill:Wind:
Aussen-T/F 1551 05-05-2020 09:10:00 7.4 C 7.32 g/m*3 5.93 C 8.1 km/h
1552 05-05-2020 09:15:00 7.6 C 7.25 g/m*3 5.82 C 9.7 km/h
1553 05-05-2020 09:20:00 7.7 C 7.22 g/m*3 6.71 C 6.4 km/h
1554 05-05-2020 09:25:00 7.9 C 7.23 g/m*3 7.9 C 4.8 km/h
1555 05-05-2020 09:30:00 8 C 7.28 g/m*3 8 C 3.2 km/h
1556 05-05-2020 09:35:00 8.2 C 7.29 g/m*3 7.29 C 6.4 km/h
1557 05-05-2020 09:40:00 8.2 C 7.2 g/m*3 8.2 C 4.8 km/h
1558 05-05-2020 09:45:00 8.3 C 7.25 g/m*3 7.41 C 6.4 km/h
1559 05-05-2020 09:50:00 8.6 C 7.3 g/m*3 8.6 C 4.8 km/h
1560 05-05-2020 09:55:00 8.7 C 7.26 g/m*3 7.87 C 6.4 km/h
1561 05-05-2020 10:00:00 8.9 C 7.27 g/m*3 7.69 C 8.1 km/h
1562 05-05-2020 10:05:00 8.9 C 7.1 g/m*3 7.69 C 8.1 km/h
1563 05-05-2020 10:10:00 9.1 C 7.1 g/m*3 9.1 C 1.6 km/h
1564 05-05-2020 10:15:00 9.2 C 7.14 g/m*3 9.2 C 3.2 km/h
1565 05-05-2020 10:20:00 9.4 C 7.05 g/m*3 8.28 C 8.1 km/h
1566 05-05-2020 10:25:00 9.6 C 7.05 g/m*3 8.52 C 8.1 km/h
1567 05-05-2020 10:30:00 9.8 C 6.96 g/m*3 9.14 C 6.4 km/h
1568 05-05-2020 10:35:00 10 C 7.14 g/m*3 8.99 C 8.1 km/h
1569 05-05-2020 10:40:00 10.1 C 6.9 g/m*3 10.1 C 4.8 km/h
1570 05-05-2020 10:45:00 10.2 C 6.95 g/m*3 10.2 C 4.8 km/h
1571 05-05-2020 10:50:00 10.3 C 7.09 g/m*3 10.3 C 3.2 km/h
1572 05-05-2020 10:55:00 10.6 C 7.03 g/m*3 10.06 C 6.4 km/h
1573 05-05-2020 11:00:00 10.9 C 6.96 g/m*3 9.76 C 9.7 km/h
1574 05-05-2020 11:05:00 11.2 C 6.89 g/m*3 11.2 C 11.3 km/h
1575 05-05-2020 11:10:00 11.4 C 6.88 g/m*3 11.4 C 9.7 km/h
Sensor: Nr:Datum:Temp:Abs-Feuchte:Windchill:Wind:
Aussen-T/F 1576 05-05-2020 11:15:00 11.6 C 6.86 g/m*3 11.6 C 8.1 km/h
1577 05-05-2020 11:20:00 11.7 C 7.11 g/m*3 11.7 C 6.4 km/h
1578 05-05-2020 11:25:00 11.9 C 6.99 g/m*3 11.9 C 6.4 km/h
1579 05-05-2020 11:30:00 12.1 C 6.97 g/m*3 12.1 C 4.8 km/h
1580 05-05-2020 11:35:00 12.1 C 7.08 g/m*3 12.1 C 6.4 km/h
1581 05-05-2020 11:40:00 12.2 C 7.23 g/m*3 12.2 C 8.1 km/h
1582 05-05-2020 11:45:00 12.3 C 7.17 g/m*3 12.3 C 11.3 km/h
1583 05-05-2020 11:50:00 12.4 C 7.1 g/m*3 12.4 C 8.1 km/h
1584 05-05-2020 11:55:00 12.5 C 7.15 g/m*3 12.5 C 9.7 km/h
1585 05-05-2020 12:00:00 12.6 C 6.97 g/m*3 12.6 C 8.1 km/h
1586 05-05-2020 12:05:00 12.7 C 7.24 g/m*3 12.7 C 6.4 km/h
1587 05-05-2020 12:10:00 12.7 C 7.12 g/m*3 12.7 C 4.8 km/h
1588 05-05-2020 12:15:00 12.8 C 7.06 g/m*3 12.8 C 9.7 km/h
1589 05-05-2020 12:20:00 13 C 7.14 g/m*3 13 C 11.3 km/h
1590 05-05-2020 12:25:00 13.1 C 7.07 g/m*3 13.1 C 6.4 km/h
1591 05-05-2020 12:30:00 13 C 7.03 g/m*3 13 C 6.4 km/h
1592 05-05-2020 12:35:00 12.8 C 7.06 g/m*3 12.8 C 9.7 km/h
1593 05-05-2020 12:40:00 12.8 C 7.17 g/m*3 12.8 C 6.4 km/h
1594 05-05-2020 12:45:00 12.8 C 7.06 g/m*3 12.8 C 6.4 km/h
1595 05-05-2020 12:50:00 12.8 C 7.17 g/m*3 12.8 C 6.4 km/h
1596 05-05-2020 12:55:00 12.8 C 7.17 g/m*3 12.8 C 8.1 km/h
1597 05-05-2020 13:00:00 12.9 C 6.88 g/m*3 12.9 C 6.4 km/h
1598 05-05-2020 13:05:00 12.9 C 6.76 g/m*3 12.9 C 9.7 km/h
1599 05-05-2020 13:10:00 12.9 C 6.99 g/m*3 12.9 C 6.4 km/h
1600 05-05-2020 13:15:00 13.1 C 7.07 g/m*3 13.1 C 8.1 km/h
Sensor: Nr:Datum:Temp:Abs-Feuchte:Windchill:Wind:
Aussen-T/F 1601 05-05-2020 13:20:00 13.1 C 6.85 g/m*3 13.1 C 6.4 km/h
1602 05-05-2020 13:25:00 13.2 C 6.89 g/m*3 13.2 C 8.1 km/h
1603 05-05-2020 13:30:00 13.3 C 7.05 g/m*3 13.3 C 6.4 km/h
1604 05-05-2020 13:35:00 13.5 C 6.9 g/m*3 13.5 C 6.4 km/h
1605 05-05-2020 13:40:00 13.6 C 7.18 g/m*3 13.6 C 3.2 km/h
1606 05-05-2020 13:45:00 13.8 C 6.91 g/m*3 13.8 C 6.4 km/h
1607 05-05-2020 13:50:00 13.9 C 6.95 g/m*3 13.9 C 9.7 km/h
1608 05-05-2020 13:55:00 14.1 C 7.16 g/m*3 14.1 C 8.1 km/h
1609 05-05-2020 14:00:00 14.1 C 6.92 g/m*3 14.1 C 11.3 km/h
1610 05-05-2020 14:05:00 14 C 7.12 g/m*3 14 C 8.1 km/h
1611 05-05-2020 14:10:00 13.8 C 6.67 g/m*3 13.8 C 3.2 km/h
1612 05-05-2020 14:15:00 13.7 C 6.51 g/m*3 13.7 C 6.4 km/h
1613 05-05-2020 14:20:00 13.7 C 6.39 g/m*3 13.7 C 9.7 km/h
1614 05-05-2020 14:25:00 13.8 C 6.43 g/m*3 13.8 C 4.8 km/h
1615 05-05-2020 14:30:00 14.1 C 6.67 g/m*3 14.1 C 6.4 km/h
1616 05-05-2020 14:35:00 14.1 C 6.31 g/m*3 14.1 C 4.8 km/h
1617 05-05-2020 14:40:00 14.2 C 6.47 g/m*3 14.2 C 4.8 km/h
1618 05-05-2020 14:45:00 14.2 C 6.47 g/m*3 14.2 C 11.3 km/h
1619 05-05-2020 14:50:00 14.6 C 6.26 g/m*3 14.6 C 6.4 km/h
1620 05-05-2020 14:55:00 14.8 C 5.7 g/m*3 14.8 C 9.7 km/h
1621 05-05-2020 15:00:00 15.2 C 5.97 g/m*3 15.2 C 11.3 km/h
1622 05-05-2020 15:05:00 15.5 C 6.21 g/m*3 15.5 C 11.3 km/h
1623 05-05-2020 15:10:00 15.8 C 6.19 g/m*3 15.8 C 12.9 km/h
1624 05-05-2020 15:15:00 15.9 C 5.69 g/m*3 15.9 C 12.9 km/h
1625 05-05-2020 15:20:00 15.8 C 5.92 g/m*3 15.8 C 6.4 km/h
Sensor: Nr:Datum:Temp:Abs-Feuchte:Windchill:Wind:
Aussen-T/F 1626 05-05-2020 15:25:00 16.1 C 6.03 g/m*3 16.1 C 8.1 km/h
1627 05-05-2020 15:30:00 16.3 C 5.69 g/m*3 16.3 C 11.3 km/h
1628 05-05-2020 15:35:00 16.6 C 5.65 g/m*3 16.6 C 12.9 km/h
1629 05-05-2020 15:40:00 16.7 C 5.54 g/m*3 16.7 C 16.1 km/h
1630 05-05-2020 15:45:00 16.5 C 5.34 g/m*3 16.5 C 11.3 km/h
1631 05-05-2020 15:50:00 16.6 C 5.51 g/m*3 16.6 C 9.7 km/h
1632 05-05-2020 15:55:00 16.8 C 5.86 g/m*3 16.8 C 12.9 km/h
1633 05-05-2020 16:00:00 17.1 C 5.68 g/m*3 17.1 C 8.1 km/h
1634 05-05-2020 16:05:00 17.4 C 6.52 g/m*3 17.4 C 6.4 km/h
1635 05-05-2020 16:10:00 17.8 C 5.46 g/m*3 17.8 C 11.3 km/h
1636 05-05-2020 16:15:00 17.5 C 5.37 g/m*3 17.5 C 16.1 km/h
1637 05-05-2020 16:20:00 17.4 C 5.34 g/m*3 17.4 C 14.5 km/h
1638 05-05-2020 16:25:00 17.7 C 5.58 g/m*3 17.7 C 6.4 km/h
1639 05-05-2020 16:30:00 17.6 C 4.8 g/m*3 17.6 C 11.3 km/h
1640 05-05-2020 16:35:00 17.6 C 5.7 g/m*3 17.6 C 6.4 km/h
1641 05-05-2020 16:40:00 18 C 5.22 g/m*3 18 C 6.4 km/h
1642 05-05-2020 16:45:00 18.1 C 4.94 g/m*3 18.1 C 8.1 km/h
1643 05-05-2020 16:50:00 18.2 C 5.13 g/m*3 18.2 C 9.7 km/h
1644 05-05-2020 16:55:00 18.2 C 5.13 g/m*3 18.2 C 12.9 km/h
1645 05-05-2020 17:00:00 17.8 C 5.01 g/m*3 17.8 C 14.5 km/h
1646 05-05-2020 17:05:00 17.7 C 5.13 g/m*3 17.7 C 6.4 km/h
1647 05-05-2020 17:10:00 17.9 C 5.04 g/m*3 17.9 C 8.1 km/h
1648 05-05-2020 17:15:00 18.1 C 4.79 g/m*3 18.1 C 4.8 km/h
1649 05-05-2020 17:20:00 18.3 C 5.16 g/m*3 18.3 C 8.1 km/h
1650 05-05-2020 17:25:00 18.3 C 5 g/m*3 18.3 C 9.7 km/h
Sensor: Nr:Datum:Temp:Abs-Feuchte:Windchill:Wind:
Aussen-T/F 1651 05-05-2020 17:30:00 18.4 C 4.88 g/m*3 18.4 C 11.3 km/h
1652 05-05-2020 17:35:00 18.6 C 5.41 g/m*3 18.6 C 11.3 km/h
1653 05-05-2020 17:40:00 18.7 C 4.8 g/m*3 18.7 C 12.9 km/h
1654 05-05-2020 17:45:00 18.4 C 4.72 g/m*3 18.4 C 11.3 km/h
1655 05-05-2020 17:50:00 18.2 C 5.13 g/m*3 18.2 C 11.3 km/h
1656 05-05-2020 17:55:00 18.1 C 4.79 g/m*3 18.1 C 12.9 km/h
1657 05-05-2020 18:00:00 18.1 C 4.79 g/m*3 18.1 C 12.9 km/h
1658 05-05-2020 18:05:00 17.9 C 4.58 g/m*3 17.9 C 14.5 km/h
1659 05-05-2020 18:10:00 17.9 C 4.73 g/m*3 17.9 C 6.4 km/h
1660 05-05-2020 18:15:00 18.2 C 4.66 g/m*3 18.2 C 12.9 km/h
1661 05-05-2020 18:20:00 18.3 C 4.53 g/m*3 18.3 C 8.1 km/h
1662 05-05-2020 18:25:00 18.3 C 4.69 g/m*3 18.3 C 6.4 km/h
1663 05-05-2020 18:30:00 18.3 C 4.53 g/m*3 18.3 C 8.1 km/h
1664 05-05-2020 18:35:00 18.2 C 4.82 g/m*3 18.2 C 16.1 km/h
1665 05-05-2020 18:40:00 18.3 C 4.69 g/m*3 18.3 C 9.7 km/h
1666 05-05-2020 18:45:00 18 C 4.61 g/m*3 18 C 9.7 km/h
1667 05-05-2020 18:50:00 17.9 C 4.73 g/m*3 17.9 C 8.1 km/h
1668 05-05-2020 18:55:00 18 C 4.61 g/m*3 18 C 9.7 km/h
1669 05-05-2020 19:00:00 18.1 C 4.79 g/m*3 18.1 C 11.3 km/h
1670 05-05-2020 19:05:00 18.2 C 4.66 g/m*3 18.2 C 11.3 km/h
1671 05-05-2020 19:10:00 17.8 C 4.4 g/m*3 17.8 C 12.9 km/h
1672 05-05-2020 19:15:00 17.4 C 4.45 g/m*3 17.4 C 12.9 km/h
1673 05-05-2020 19:20:00 17.2 C 4.39 g/m*3 17.2 C 9.7 km/h
1674 05-05-2020 19:25:00 17 C 4.49 g/m*3 17 C 9.7 km/h
1675 05-05-2020 19:30:00 16.9 C 4.46 g/m*3 16.9 C 6.4 km/h
Sensor: Nr:Datum:Temp:Abs-Feuchte:Windchill:Wind:
Aussen-T/F 1676 05-05-2020 19:35:00 16.8 C 4.58 g/m*3 16.8 C 8.1 km/h
1677 05-05-2020 19:40:00 16.6 C 4.66 g/m*3 16.6 C 8.1 km/h
1678 05-05-2020 19:45:00 16.4 C 4.33 g/m*3 16.4 C 9.7 km/h
1679 05-05-2020 19:50:00 16.3 C 4.44 g/m*3 16.3 C 11.3 km/h
1680 05-05-2020 19:55:00 16.2 C 4.41 g/m*3 16.2 C 9.7 km/h
1681 05-05-2020 20:00:00 16 C 4.5 g/m*3 16 C 9.7 km/h
1682 05-05-2020 20:05:00 15.8 C 4.44 g/m*3 15.8 C 9.7 km/h
1683 05-05-2020 20:10:00 15.7 C 4.68 g/m*3 15.7 C 9.7 km/h
1684 05-05-2020 20:15:00 15.6 C 4.52 g/m*3 15.6 C 6.4 km/h
1685 05-05-2020 20:20:00 15.5 C 4.63 g/m*3 15.5 C 8.1 km/h
1686 05-05-2020 20:25:00 15.3 C 4.7 g/m*3 15.3 C 6.4 km/h
1687 05-05-2020 20:30:00 15.1 C 4.64 g/m*3 15.1 C 8.1 km/h
1688 05-05-2020 20:35:00 14.8 C 4.69 g/m*3 14.8 C 6.4 km/h
1689 05-05-2020 20:40:00 14.6 C 5.01 g/m*3 14.6 C 6.4 km/h
1690 05-05-2020 20:45:00 14.4 C 5.07 g/m*3 14.4 C 8.1 km/h
1691 05-05-2020 20:50:00 14.2 C 5.37 g/m*3 14.2 C 4.8 km/h
1692 05-05-2020 20:55:00 13.9 C 5.87 g/m*3 13.9 C 0 km/h
1693 05-05-2020 21:00:00 13.4 C 6.04 g/m*3 13.4 C 0 km/h
1694 05-05-2020 21:05:00 12.9 C 6.09 g/m*3 12.9 C 1.6 km/h
1695 05-05-2020 21:10:00 12.3 C 6.19 g/m*3 12.3 C 3.2 km/h
1696 05-05-2020 21:15:00 11.9 C 6.14 g/m*3 11.9 C 3.2 km/h
1697 05-05-2020 21:20:00 11.6 C 6.03 g/m*3 11.6 C 4.8 km/h
1698 05-05-2020 21:25:00 11.2 C 5.88 g/m*3 11.2 C 0 km/h
1699 05-05-2020 21:30:00 10.9 C 5.87 g/m*3 10.41 C 6.4 km/h
1700 05-05-2020 21:35:00 10.6 C 5.95 g/m*3 10.6 C 3.2 km/h
Sensor: Nr:Datum:Temp:Abs-Feuchte:Windchill:Wind:
Aussen-T/F 1701 05-05-2020 21:40:00 10.3 C 5.65 g/m*3 10.3 C 3.2 km/h
1702 05-05-2020 21:45:00 10.1 C 5.67 g/m*3 10.1 C 4.8 km/h
1703 05-05-2020 21:50:00 9.9 C 5.51 g/m*3 9.25 C 6.4 km/h
1704 05-05-2020 21:55:00 9.8 C 5.57 g/m*3 9.14 C 6.4 km/h
1705 05-05-2020 22:00:00 9.7 C 5.72 g/m*3 9.7 C 4.8 km/h
1706 05-05-2020 22:05:00 9.6 C 5.68 g/m*3 9.6 C 3.2 km/h
1707 05-05-2020 22:10:00 9.4 C 5.97 g/m*3 9.4 C 4.8 km/h
1708 05-05-2020 22:15:00 9.3 C 5.84 g/m*3 9.3 C 4.8 km/h
1709 05-05-2020 22:20:00 9.2 C 5.71 g/m*3 9.2 C 3.2 km/h
1710 05-05-2020 22:25:00 9.2 C 5.8 g/m*3 9.2 C 0 km/h
1711 05-05-2020 22:30:00 9.1 C 5.77 g/m*3 9.1 C 4.8 km/h
1712 05-05-2020 22:35:00 9 C 5.91 g/m*3 9 C 0 km/h
1713 05-05-2020 22:40:00 8.9 C 5.87 g/m*3 8.1 C 6.4 km/h
1714 05-05-2020 22:45:00 8.8 C 5.83 g/m*3 8.8 C 1.6 km/h
1715 05-05-2020 22:50:00 8.7 C 5.88 g/m*3 8.7 C 4.8 km/h
1716 05-05-2020 22:55:00 8.7 C 5.62 g/m*3 8.7 C 4.8 km/h
1717 05-05-2020 23:00:00 8.7 C 5.79 g/m*3 8.7 C 0 km/h
1718 05-05-2020 23:05:00 8.6 C 5.76 g/m*3 8.6 C 1.6 km/h
1719 05-05-2020 23:10:00 8.5 C 5.72 g/m*3 8.5 C 1.6 km/h
1720 05-05-2020 23:15:00 8.4 C 5.68 g/m*3 8.4 C 0 km/h
1721 05-05-2020 23:20:00 8.3 C 5.65 g/m*3 8.3 C 1.6 km/h
1722 05-05-2020 23:25:00 8.2 C 5.61 g/m*3 8.2 C 1.6 km/h
1723 05-05-2020 23:30:00 8.1 C 5.57 g/m*3 8.1 C 3.2 km/h
1724 05-05-2020 23:35:00 8 C 5.62 g/m*3 8 C 1.6 km/h
1725 05-05-2020 23:40:00 7.9 C 5.67 g/m*3 7.9 C 4.8 km/h
Sensor: Nr:Datum:Temp:Abs-Feuchte:Windchill:Wind:
Aussen-T/F 1726 05-05-2020 23:45:00 7.8 C 5.63 g/m*3 6.83 C 6.4 km/h
1727 05-05-2020 23:50:00 7.7 C 5.51 g/m*3 7.7 C 4.8 km/h
1728 05-05-2020 23:55:00 7.6 C 5.56 g/m*3 7.6 C 3.2 km/h
1729 06-05-2020 00:00:00 7.6 C 5.64 g/m*3 7.6 C 3.2 km/h
1730 06-05-2020 00:05:00 7.5 C 5.6 g/m*3 7.5 C 3.2 km/h
1731 06-05-2020 00:10:00 7.4 C 5.57 g/m*3 7.4 C 4.8 km/h
1732 06-05-2020 00:15:00 7.4 C 5.57 g/m*3 7.4 C 1.6 km/h
1733 06-05-2020 00:20:00 7.3 C 5.61 g/m*3 7.3 C 1.6 km/h
1734 06-05-2020 00:25:00 7.3 C 5.53 g/m*3 7.3 C 0 km/h
1735 06-05-2020 00:30:00 7.2 C 5.65 g/m*3 7.2 C 0 km/h
1736 06-05-2020 00:35:00 7.2 C 5.65 g/m*3 7.2 C 0 km/h
1737 06-05-2020 00:40:00 7.1 C 5.69 g/m*3 7.1 C 3.2 km/h
1738 06-05-2020 00:45:00 7 C 5.66 g/m*3 7 C 4.8 km/h
1739 06-05-2020 00:50:00 6.9 C 5.7 g/m*3 6.9 C 3.2 km/h
1740 06-05-2020 00:55:00 6.8 C 5.66 g/m*3 6.8 C 0 km/h
1741 06-05-2020 01:00:00 6.7 C 5.62 g/m*3 6.7 C 3.2 km/h
1742 06-05-2020 01:05:00 6.5 C 5.55 g/m*3 6.5 C 4.8 km/h
1743 06-05-2020 01:10:00 6.4 C 5.59 g/m*3 6.4 C 4.8 km/h
1744 06-05-2020 01:15:00 6.3 C 5.63 g/m*3 6.3 C 0 km/h
1745 06-05-2020 01:20:00 6.1 C 5.55 g/m*3 6.1 C 0 km/h
1746 06-05-2020 01:25:00 5.9 C 5.48 g/m*3 5.9 C 3.2 km/h
1747 06-05-2020 01:30:00 5.8 C 5.52 g/m*3 5.8 C 0 km/h
1748 06-05-2020 01:35:00 5.7 C 5.55 g/m*3 5.7 C 0 km/h
1749 06-05-2020 01:40:00 5.6 C 5.51 g/m*3 5.6 C 0 km/h
1750 06-05-2020 01:45:00 5.4 C 5.51 g/m*3 5.4 C 0 km/h
Sensor: Nr:Datum:Temp:Abs-Feuchte:Windchill:Wind:
Aussen-T/F 1751 06-05-2020 01:50:00 5.3 C 5.54 g/m*3 5.3 C 0 km/h
1752 06-05-2020 01:55:00 5.2 C 5.51 g/m*3 5.2 C 0 km/h
1753 06-05-2020 02:00:00 5 C 5.44 g/m*3 5 C 0 km/h
1754 06-05-2020 02:05:00 4.9 C 5.47 g/m*3 4.9 C 0 km/h
1755 06-05-2020 02:10:00 4.8 C 5.43 g/m*3 4.8 C 0 km/h
1756 06-05-2020 02:15:00 4.7 C 5.46 g/m*3 4.7 C 0 km/h
1757 06-05-2020 02:20:00 4.6 C 5.49 g/m*3 4.6 C 0 km/h
1758 06-05-2020 02:25:00 4.5 C 5.46 g/m*3 4.5 C 0 km/h
1759 06-05-2020 02:30:00 4.4 C 5.42 g/m*3 4.4 C 0 km/h
1760 06-05-2020 02:35:00 4.4 C 5.42 g/m*3 4.4 C 0 km/h
1761 06-05-2020 02:40:00 4.3 C 5.38 g/m*3 4.3 C 0 km/h
1762 06-05-2020 02:45:00 4.3 C 5.45 g/m*3 4.3 C 0 km/h
1763 06-05-2020 02:50:00 4.2 C 5.41 g/m*3 4.2 C 0 km/h
1764 06-05-2020 02:55:00 4.1 C 5.38 g/m*3 4.1 C 0 km/h
1765 06-05-2020 03:00:00 4 C 5.4 g/m*3 4 C 0 km/h
1766 06-05-2020 03:05:00 3.9 C 5.37 g/m*3 3.9 C 0 km/h
1767 06-05-2020 03:10:00 3.8 C 5.33 g/m*3 3.8 C 0 km/h
1768 06-05-2020 03:15:00 3.7 C 5.3 g/m*3 3.7 C 0 km/h
1769 06-05-2020 03:20:00 3.6 C 5.26 g/m*3 3.6 C 0 km/h
1770 06-05-2020 03:25:00 3.6 C 5.32 g/m*3 3.6 C 0 km/h
1771 06-05-2020 03:30:00 3.5 C 5.29 g/m*3 3.5 C 0 km/h
1772 06-05-2020 03:35:00 3.4 C 5.25 g/m*3 3.4 C 0 km/h
1773 06-05-2020 03:40:00 3.3 C 5.22 g/m*3 3.3 C 0 km/h
1774 06-05-2020 03:45:00 3.3 C 5.28 g/m*3 3.3 C 0 km/h
1775 06-05-2020 03:50:00 3.3 C 5.28 g/m*3 3.3 C 0 km/h
Sensor: Nr:Datum:Temp:Abs-Feuchte:Windchill:Wind:
Aussen-T/F 1776 06-05-2020 03:55:00 3.2 C 5.3 g/m*3 3.2 C 0 km/h
1777 06-05-2020 04:00:00 3.2 C 5.24 g/m*3 3.2 C 0 km/h
1778 06-05-2020 04:05:00 3.2 C 5.24 g/m*3 3.2 C 0 km/h
1779 06-05-2020 04:10:00 3.1 C 5.27 g/m*3 3.1 C 0 km/h
1780 06-05-2020 04:15:00 3.1 C 5.27 g/m*3 3.1 C 0 km/h
1781 06-05-2020 04:20:00 3.1 C 5.27 g/m*3 3.1 C 0 km/h
1782 06-05-2020 04:25:00 3.1 C 5.27 g/m*3 3.1 C 0 km/h
1783 06-05-2020 04:30:00 3.1 C 5.33 g/m*3 3.1 C 0 km/h
1784 06-05-2020 04:35:00 2.9 C 5.2 g/m*3 2.9 C 0 km/h
1785 06-05-2020 04:40:00 2.9 C 5.26 g/m*3 2.9 C 0 km/h
1786 06-05-2020 04:45:00 2.9 C 5.26 g/m*3 2.9 C 0 km/h
1787 06-05-2020 04:50:00 2.8 C 5.22 g/m*3 2.8 C 0 km/h
1788 06-05-2020 04:55:00 2.8 C 5.22 g/m*3 2.8 C 0 km/h
1789 06-05-2020 05:00:00 2.8 C 5.28 g/m*3 2.8 C 1.6 km/h
1790 06-05-2020 05:05:00 2.8 C 5.28 g/m*3 2.8 C 0 km/h
1791 06-05-2020 05:10:00 2.7 C 5.24 g/m*3 2.7 C 0 km/h
1792 06-05-2020 05:15:00 2.7 C 5.24 g/m*3 2.7 C 0 km/h
1793 06-05-2020 05:20:00 2.6 C 5.21 g/m*3 2.6 C 0 km/h
1794 06-05-2020 05:25:00 2.6 C 5.21 g/m*3 2.6 C 0 km/h
1795 06-05-2020 05:30:00 2.6 C 5.21 g/m*3 2.6 C 0 km/h
1796 06-05-2020 05:35:00 2.5 C 5.17 g/m*3 2.5 C 0 km/h
1797 06-05-2020 05:40:00 2.5 C 5.17 g/m*3 2.5 C 0 km/h
1798 06-05-2020 05:45:00 2.4 C 5.14 g/m*3 2.4 C 0 km/h
1799 06-05-2020 05:50:00 2.3 C 5.1 g/m*3 2.3 C 0 km/h
1800 06-05-2020 05:55:00 2.2 C 5.07 g/m*3 2.2 C 0 km/h
Sensor: Nr:Datum:Temp:Abs-Feuchte:Windchill:Wind:
Aussen-T/F 1801 06-05-2020 06:00:00 2.2 C 5.13 g/m*3 2.2 C 0 km/h
1802 06-05-2020 06:05:00 2.1 C 5.09 g/m*3 2.1 C 0 km/h
1803 06-05-2020 06:10:00 2.2 C 5.13 g/m*3 2.2 C 0 km/h
1804 06-05-2020 06:15:00 2.1 C 5.09 g/m*3 2.1 C 0 km/h
1805 06-05-2020 06:20:00 2.1 C 5.09 g/m*3 2.1 C 0 km/h
1806 06-05-2020 06:25:00 2.1 C 5.15 g/m*3 2.1 C 0 km/h
1807 06-05-2020 06:30:00 2 C 5.11 g/m*3 2 C 0 km/h
1808 06-05-2020 06:35:00 2 C 5.11 g/m*3 2 C 0 km/h
1809 06-05-2020 06:40:00 2.1 C 5.15 g/m*3 2.1 C 0 km/h
1810 06-05-2020 06:45:00 2.1 C 5.15 g/m*3 2.1 C 0 km/h
1811 06-05-2020 06:50:00 2.1 C 5.15 g/m*3 2.1 C 0 km/h
1812 06-05-2020 06:55:00 2.1 C 5.15 g/m*3 2.1 C 0 km/h
1813 06-05-2020 07:00:00 2.2 C 5.18 g/m*3 2.2 C 0 km/h
1814 06-05-2020 07:05:00 2.2 C 5.24 g/m*3 2.2 C 0 km/h
1815 06-05-2020 07:10:00 2.2 C 5.24 g/m*3 2.2 C 0 km/h
1816 06-05-2020 07:15:00 2.3 C 5.27 g/m*3 2.3 C 0 km/h
1817 06-05-2020 07:20:00 2.3 C 5.27 g/m*3 2.3 C 0 km/h
1818 06-05-2020 07:25:00 2.4 C 5.31 g/m*3 2.4 C 0 km/h
1819 06-05-2020 07:30:00 2.4 C 5.31 g/m*3 2.4 C 1.6 km/h
1820 06-05-2020 07:35:00 2.5 C 5.35 g/m*3 2.5 C 0 km/h
1821 06-05-2020 07:40:00 2.6 C 5.38 g/m*3 2.6 C 0 km/h
1822 06-05-2020 07:45:00 2.6 C 5.38 g/m*3 2.6 C 0 km/h
1823 06-05-2020 07:50:00 2.7 C 5.42 g/m*3 2.7 C 0 km/h
1824 06-05-2020 07:55:00 2.8 C 5.46 g/m*3 2.8 C 1.6 km/h
1825 06-05-2020 08:00:00 2.9 C 5.55 g/m*3 2.9 C 0 km/h
Sensor: Nr:Datum:Temp:Abs-Feuchte:Windchill:Wind:
Aussen-T/F 1826 06-05-2020 08:05:00 2.9 C 5.55 g/m*3 2.9 C 0 km/h
1827 06-05-2020 08:10:00 3.1 C 5.63 g/m*3 3.1 C 0 km/h
1828 06-05-2020 08:15:00 3.2 C 5.66 g/m*3 3.2 C 1.6 km/h
1829 06-05-2020 08:20:00 3.2 C 5.66 g/m*3 3.2 C 0 km/h
1830 06-05-2020 08:25:00 3.3 C 5.7 g/m*3 3.3 C 0 km/h
1831 06-05-2020 08:30:00 3.4 C 5.74 g/m*3 3.4 C 0 km/h
1832 06-05-2020 08:35:00 3.7 C 5.86 g/m*3 3.7 C 0 km/h
1833 06-05-2020 08:40:00 3.8 C 5.9 g/m*3 3.8 C 0 km/h
1834 06-05-2020 08:45:00 4 C 5.98 g/m*3 4 C 0 km/h
1835 06-05-2020 08:50:00 4.2 C 6.06 g/m*3 4.2 C 0 km/h
1836 06-05-2020 08:55:00 4.4 C 6.14 g/m*3 4.4 C 0 km/h
1837 06-05-2020 09:00:00 4.6 C 6.22 g/m*3 4.6 C 1.6 km/h
1838 06-05-2020 09:05:00 4.8 C 6.3 g/m*3 4.8 C 1.6 km/h
1839 06-05-2020 09:10:00 5.1 C 6.43 g/m*3 5.1 C 0 km/h
1840 06-05-2020 09:15:00 5.3 C 6.52 g/m*3 5.3 C 0 km/h
1841 06-05-2020 09:20:00 5.4 C 6.49 g/m*3 5.4 C 1.6 km/h
1842 06-05-2020 09:25:00 5.7 C 6.62 g/m*3 5.7 C 0 km/h
1843 06-05-2020 09:30:00 5.9 C 6.63 g/m*3 5.9 C 0 km/h
1844 06-05-2020 09:35:00 6.1 C 6.72 g/m*3 6.1 C 1.6 km/h
1845 06-05-2020 09:40:00 6.3 C 6.74 g/m*3 6.3 C 0 km/h
1846 06-05-2020 09:45:00 6.4 C 6.78 g/m*3 6.4 C 0 km/h
1847 06-05-2020 09:50:00 6.6 C 6.87 g/m*3 6.6 C 0 km/h
1848 06-05-2020 09:55:00 6.8 C 6.88 g/m*3 6.8 C 0 km/h
1849 06-05-2020 10:00:00 7 C 6.97 g/m*3 7 C 0 km/h
1850 06-05-2020 10:05:00 7.2 C 6.99 g/m*3 7.2 C 0 km/h
Sensor: Nr:Datum:Temp:Abs-Feuchte:Windchill:Wind:
Aussen-T/F 1851 06-05-2020 10:10:00 7.4 C 7 g/m*3 7.4 C 1.6 km/h
1852 06-05-2020 10:15:00 7.7 C 6.81 g/m*3 7.7 C 3.2 km/h
1853 06-05-2020 10:20:00 8 C 6.61 g/m*3 8 C 1.6 km/h
1854 06-05-2020 10:25:00 8.6 C 6.27 g/m*3 7.34 C 8.1 km/h
1855 06-05-2020 10:30:00 9.7 C 5.99 g/m*3 8.33 C 9.7 km/h
1856 06-05-2020 10:35:00 10.6 C 6.54 g/m*3 8.92 C 12.9 km/h
1857 06-05-2020 10:40:00 11.2 C 5.37 g/m*3 11.2 C 12.9 km/h
1858 06-05-2020 10:45:00 11.7 C 5.54 g/m*3 11.7 C 14.5 km/h
1859 06-05-2020 10:50:00 11.9 C 5.4 g/m*3 11.9 C 11.3 km/h
1860 06-05-2020 10:55:00 12.2 C 5.83 g/m*3 12.2 C 17.7 km/h
1861 06-05-2020 11:00:00 12.2 C 5.07 g/m*3 12.2 C 8.1 km/h
1862 06-05-2020 11:05:00 12.3 C 5.21 g/m*3 12.3 C 4.8 km/h
1863 06-05-2020 11:10:00 12.5 C 4.84 g/m*3 12.5 C 16.1 km/h
1864 06-05-2020 11:15:00 12.7 C 4.79 g/m*3 12.7 C 9.7 km/h
1865 06-05-2020 11:20:00 12.8 C 4.93 g/m*3 12.8 C 4.8 km/h
1866 06-05-2020 11:25:00 12.9 C 4.96 g/m*3 12.9 C 8.1 km/h
1867 06-05-2020 11:30:00 13 C 5.1 g/m*3 13 C 6.4 km/h
1868 06-05-2020 11:35:00 13.2 C 4.71 g/m*3 13.2 C 8.1 km/h
1869 06-05-2020 11:40:00 13.2 C 4.71 g/m*3 13.2 C 8.1 km/h
1870 06-05-2020 11:45:00 13.2 C 4.82 g/m*3 13.2 C 14.5 km/h
1871 06-05-2020 11:50:00 13.3 C 4.74 g/m*3 13.3 C 16.1 km/h
1872 06-05-2020 11:55:00 13.4 C 4.42 g/m*3 13.4 C 12.9 km/h
1873 06-05-2020 12:00:00 13.5 C 4.44 g/m*3 13.5 C 6.4 km/h
1874 06-05-2020 12:05:00 13.6 C 4.71 g/m*3 13.6 C 4.8 km/h
1875 06-05-2020 12:10:00 13.4 C 4.65 g/m*3 13.4 C 9.7 km/h
Sensor: Nr:Datum:Temp:Abs-Feuchte:Windchill:Wind:
Aussen-T/F 1876 06-05-2020 12:15:00 13.5 C 4.56 g/m*3 13.5 C 6.4 km/h
1877 06-05-2020 12:20:00 13.6 C 4.59 g/m*3 13.6 C 6.4 km/h
1878 06-05-2020 12:25:00 13.7 C 4.62 g/m*3 13.7 C 6.4 km/h
1879 06-05-2020 12:30:00 13.8 C 4.77 g/m*3 13.8 C 11.3 km/h
1880 06-05-2020 12:35:00 13.9 C 4.56 g/m*3 13.9 C 14.5 km/h
1881 06-05-2020 12:40:00 14 C 4.7 g/m*3 14 C 16.1 km/h
1882 06-05-2020 12:45:00 13.9 C 4.8 g/m*3 13.9 C 8.1 km/h
1883 06-05-2020 12:50:00 14 C 4.82 g/m*3 14 C 9.7 km/h
1884 06-05-2020 12:55:00 14.1 C 4.73 g/m*3 14.1 C 9.7 km/h
1885 06-05-2020 13:00:00 14.1 C 4.73 g/m*3 14.1 C 11.3 km/h
1886 06-05-2020 13:05:00 14.2 C 4.76 g/m*3 14.2 C 12.9 km/h
1887 06-05-2020 13:10:00 14.2 C 4.76 g/m*3 14.2 C 6.4 km/h
1888 06-05-2020 13:15:00 14.3 C 4.91 g/m*3 14.3 C 12.9 km/h
1889 06-05-2020 13:20:00 14.5 C 4.85 g/m*3 14.5 C 9.7 km/h
1890 06-05-2020 13:25:00 14.7 C 5.16 g/m*3 14.7 C 9.7 km/h
1891 06-05-2020 13:30:00 14.7 C 4.91 g/m*3 14.7 C 12.9 km/h
1892 06-05-2020 13:35:00 14.7 C 5.04 g/m*3 14.7 C 8.1 km/h
1893 06-05-2020 13:40:00 14.8 C 5.07 g/m*3 14.8 C 6.4 km/h
1894 06-05-2020 13:45:00 14.8 C 5.19 g/m*3 14.8 C 8.1 km/h
1895 06-05-2020 13:50:00 15 C 5.13 g/m*3 15 C 9.7 km/h
1896 06-05-2020 13:55:00 15.2 C 5.19 g/m*3 15.2 C 16.1 km/h
1897 06-05-2020 14:00:00 15.2 C 5.32 g/m*3 15.2 C 8.1 km/h
1898 06-05-2020 14:05:00 15.4 C 5.26 g/m*3 15.4 C 11.3 km/h
1899 06-05-2020 14:10:00 15.5 C 5.16 g/m*3 15.5 C 8.1 km/h
1900 06-05-2020 14:15:00 15.6 C 4.65 g/m*3 15.6 C 14.5 km/h
Sensor: Nr:Datum:Temp:Abs-Feuchte:Windchill:Wind:
Aussen-T/F 1901 06-05-2020 14:20:00 15.6 C 4.65 g/m*3 15.6 C 12.9 km/h
1902 06-05-2020 14:25:00 15.7 C 4.82 g/m*3 15.7 C 9.7 km/h
1903 06-05-2020 14:30:00 15.7 C 4.42 g/m*3 15.7 C 12.9 km/h
1904 06-05-2020 14:35:00 15.8 C 4.31 g/m*3 15.8 C 6.4 km/h
1905 06-05-2020 14:40:00 15.9 C 4.74 g/m*3 15.9 C 12.9 km/h
1906 06-05-2020 14:45:00 16.2 C 4.83 g/m*3 16.2 C 14.5 km/h
1907 06-05-2020 14:50:00 16.4 C 4.89 g/m*3 16.4 C 12.9 km/h
1908 06-05-2020 14:55:00 16.7 C 4.69 g/m*3 16.7 C 9.7 km/h
1909 06-05-2020 15:00:00 16.7 C 4.97 g/m*3 16.7 C 14.5 km/h
1910 06-05-2020 15:05:00 16.9 C 4.75 g/m*3 16.9 C 12.9 km/h
1911 06-05-2020 15:10:00 16.9 C 4.6 g/m*3 16.9 C 9.7 km/h
1912 06-05-2020 15:15:00 17 C 5.21 g/m*3 17 C 8.1 km/h
1913 06-05-2020 15:20:00 17.1 C 4.8 g/m*3 17.1 C 11.3 km/h
1914 06-05-2020 15:25:00 17.1 C 4.66 g/m*3 17.1 C 11.3 km/h
1915 06-05-2020 15:30:00 17.1 C 4.8 g/m*3 17.1 C 4.8 km/h
1916 06-05-2020 15:35:00 17.5 C 4.47 g/m*3 17.5 C 16.1 km/h
1917 06-05-2020 15:40:00 17.6 C 4.95 g/m*3 17.6 C 8.1 km/h
1918 06-05-2020 15:45:00 17.8 C 4.71 g/m*3 17.8 C 12.9 km/h
1919 06-05-2020 15:50:00 17.9 C 4.89 g/m*3 17.9 C 14.5 km/h
1920 06-05-2020 15:55:00 18.2 C 4.97 g/m*3 18.2 C 9.7 km/h
1921 06-05-2020 16:00:00 18.4 C 4.88 g/m*3 18.4 C 17.7 km/h
1922 06-05-2020 16:05:00 18.3 C 5 g/m*3 18.3 C 14.5 km/h
1923 06-05-2020 16:10:00 18.4 C 5.19 g/m*3 18.4 C 12.9 km/h
1924 06-05-2020 16:15:00 18.8 C 4.99 g/m*3 18.8 C 3.2 km/h
1925 06-05-2020 16:20:00 19.3 C 5.14 g/m*3 19.3 C 3.2 km/h
Sensor: Nr:Datum:Temp:Abs-Feuchte:Windchill:Wind:
Aussen-T/F 1926 06-05-2020 16:25:00 19.3 C 4.98 g/m*3 19.3 C 14.5 km/h
1927 06-05-2020 16:30:00 19.1 C 5.08 g/m*3 19.1 C 9.7 km/h
1928 06-05-2020 16:35:00 19.2 C 4.95 g/m*3 19.2 C 11.3 km/h
1929 06-05-2020 16:40:00 19.1 C 4.75 g/m*3 19.1 C 9.7 km/h
1930 06-05-2020 16:45:00 19.1 C 4.92 g/m*3 19.1 C 9.7 km/h
1931 06-05-2020 16:50:00 19 C 4.89 g/m*3 19 C 11.3 km/h
1932 06-05-2020 16:55:00 18.9 C 4.86 g/m*3 18.9 C 6.4 km/h
1933 06-05-2020 17:00:00 19.2 C 5.11 g/m*3 19.2 C 9.7 km/h
1934 06-05-2020 17:05:00 19.4 C 5.01 g/m*3 19.4 C 11.3 km/h
1935 06-05-2020 17:10:00 19.6 C 5.23 g/m*3 19.6 C 6.4 km/h
1936 06-05-2020 17:15:00 19.8 C 5.47 g/m*3 19.8 C 6.4 km/h
1937 06-05-2020 17:20:00 19.8 C 5.12 g/m*3 19.8 C 6.4 km/h
1938 06-05-2020 17:25:00 19.8 C 5.12 g/m*3 19.8 C 4.8 km/h
1939 06-05-2020 17:30:00 19.9 C 4.98 g/m*3 19.9 C 8.1 km/h
1940 06-05-2020 17:35:00 19.7 C 5.43 g/m*3 19.7 C 8.1 km/h
1941 06-05-2020 17:40:00 19.7 C 4.92 g/m*3 19.7 C 9.7 km/h
1942 06-05-2020 17:45:00 19.7 C 5.26 g/m*3 19.7 C 3.2 km/h
1943 06-05-2020 17:50:00 19.9 C 5.15 g/m*3 19.9 C 4.8 km/h
1944 06-05-2020 17:55:00 19.9 C 5.15 g/m*3 19.9 C 6.4 km/h
1945 06-05-2020 18:00:00 20.1 C 5.21 g/m*3 20.1 C 6.4 km/h
1946 06-05-2020 18:05:00 20.2 C 5.77 g/m*3 20.2 C 4.8 km/h
1947 06-05-2020 18:10:00 20.3 C 5.28 g/m*3 20.3 C 8.1 km/h
1948 06-05-2020 18:15:00 20.1 C 5.39 g/m*3 20.1 C 6.4 km/h
1949 06-05-2020 18:20:00 20.2 C 5.42 g/m*3 20.2 C 6.4 km/h
1950 06-05-2020 18:25:00 20.3 C 5.1 g/m*3 20.3 C 6.4 km/h
Sensor: Nr:Datum:Temp:Abs-Feuchte:Windchill:Wind:
Aussen-T/F 1951 06-05-2020 18:30:00 20.2 C 5.07 g/m*3 20.2 C 6.4 km/h
1952 06-05-2020 18:35:00 20.2 C 5.25 g/m*3 20.2 C 6.4 km/h
1953 06-05-2020 18:40:00 20.3 C 5.28 g/m*3 20.3 C 4.8 km/h
1954 06-05-2020 18:45:00 20.4 C 5.13 g/m*3 20.4 C 4.8 km/h
1955 06-05-2020 18:50:00 20.3 C 5.1 g/m*3 20.3 C 6.4 km/h
1956 06-05-2020 18:55:00 20.2 C 5.25 g/m*3 20.2 C 8.1 km/h
1957 06-05-2020 19:00:00 19.9 C 5.15 g/m*3 19.9 C 6.4 km/h
1958 06-05-2020 19:05:00 19.8 C 5.12 g/m*3 19.8 C 6.4 km/h
1959 06-05-2020 19:10:00 19.8 C 5.12 g/m*3 19.8 C 8.1 km/h
1960 06-05-2020 19:15:00 19.6 C 5.4 g/m*3 19.6 C 6.4 km/h
1961 06-05-2020 19:20:00 19.4 C 5.51 g/m*3 19.4 C 8.1 km/h
1962 06-05-2020 19:25:00 19.1 C 5.08 g/m*3 19.1 C 4.8 km/h
1963 06-05-2020 19:30:00 18.9 C 5.35 g/m*3 18.9 C 3.2 km/h
1964 06-05-2020 19:35:00 18.8 C 5.48 g/m*3 18.8 C 3.2 km/h
1965 06-05-2020 19:40:00 18.7 C 5.12 g/m*3 18.7 C 3.2 km/h
1966 06-05-2020 19:45:00 18.6 C 5.25 g/m*3 18.6 C 4.8 km/h
1967 06-05-2020 19:50:00 18.5 C 5.38 g/m*3 18.5 C 3.2 km/h
1968 06-05-2020 19:55:00 18.4 C 6.92 g/m*3 18.4 C 1.6 km/h
1969 06-05-2020 20:00:00 18.3 C 6.1 g/m*3 18.3 C 1.6 km/h
1970 06-05-2020 20:05:00 18.2 C 6.06 g/m*3 18.2 C 1.6 km/h
1971 06-05-2020 20:10:00 18.1 C 7.26 g/m*3 18.1 C 3.2 km/h
1972 06-05-2020 20:15:00 17.8 C 7.29 g/m*3 17.8 C 4.8 km/h
1973 06-05-2020 20:20:00 17.2 C 7.18 g/m*3 17.2 C 4.8 km/h
1974 06-05-2020 20:25:00 16.7 C 7.25 g/m*3 16.7 C 4.8 km/h
1975 06-05-2020 20:30:00 16.1 C 7.13 g/m*3 16.1 C 4.8 km/h
Sensor: Nr:Datum:Temp:Abs-Feuchte:Windchill:Wind:
Aussen-T/F 1976 06-05-2020 20:35:00 15.4 C 6.83 g/m*3 15.4 C 6.4 km/h
1977 06-05-2020 20:40:00 14.8 C 6.84 g/m*3 14.8 C 6.4 km/h
1978 06-05-2020 20:45:00 14.3 C 6.76 g/m*3 14.3 C 8.1 km/h
1979 06-05-2020 20:50:00 13.9 C 6.83 g/m*3 13.9 C 8.1 km/h
1980 06-05-2020 20:55:00 13.6 C 6.59 g/m*3 13.6 C 8.1 km/h
1981 06-05-2020 21:00:00 13.3 C 6.47 g/m*3 13.3 C 8.1 km/h
1982 06-05-2020 21:05:00 13 C 6.24 g/m*3 13 C 8.1 km/h
1983 06-05-2020 21:10:00 12.8 C 6.27 g/m*3 12.8 C 8.1 km/h
1984 06-05-2020 21:15:00 12.6 C 6.53 g/m*3 12.6 C 8.1 km/h
1985 06-05-2020 21:20:00 12.4 C 6.56 g/m*3 12.4 C 8.1 km/h
1986 06-05-2020 21:25:00 12.2 C 6.58 g/m*3 12.2 C 8.1 km/h
1987 06-05-2020 21:30:00 12 C 6.61 g/m*3 12 C 6.4 km/h
1988 06-05-2020 21:35:00 11.8 C 6.84 g/m*3 11.8 C 3.2 km/h
1989 06-05-2020 21:40:00 11.6 C 6.86 g/m*3 11.6 C 0 km/h
1990 06-05-2020 21:45:00 11.3 C 6.83 g/m*3 11.3 C 3.2 km/h
1991 06-05-2020 21:50:00 10.9 C 6.66 g/m*3 10.9 C 1.6 km/h
1992 06-05-2020 21:55:00 10.7 C 6.48 g/m*3 10.7 C 3.2 km/h
1993 06-05-2020 22:00:00 10.6 C 6.73 g/m*3 10.6 C 3.2 km/h
1994 06-05-2020 22:05:00 10.3 C 6.61 g/m*3 10.3 C 3.2 km/h
1995 06-05-2020 22:10:00 10.1 C 6.62 g/m*3 10.1 C 4.8 km/h
1996 06-05-2020 22:15:00 9.9 C 6.54 g/m*3 9.9 C 3.2 km/h
1997 06-05-2020 22:20:00 9.8 C 6.59 g/m*3 9.8 C 0 km/h
1998 06-05-2020 22:25:00 9.7 C 6.45 g/m*3 9.02 C 6.4 km/h
1999 06-05-2020 22:30:00 9.7 C 6.55 g/m*3 9.7 C 1.6 km/h
2000 06-05-2020 22:35:00 9.6 C 6.6 g/m*3 9.6 C 0 km/h
Sensor: Nr:Datum:Temp:Abs-Feuchte:Windchill:Wind:
Aussen-T/F 2001 06-05-2020 22:40:00 9.4 C 6.51 g/m*3 9.4 C 0 km/h
2002 06-05-2020 22:45:00 9.2 C 6.43 g/m*3 9.2 C 0 km/h
2003 06-05-2020 22:50:00 9.1 C 6.48 g/m*3 9.1 C 0 km/h
2004 06-05-2020 22:55:00 9 C 6.44 g/m*3 9 C 0 km/h
2005 06-05-2020 23:00:00 8.8 C 6.35 g/m*3 8.8 C 0 km/h
2006 06-05-2020 23:05:00 8.7 C 6.4 g/m*3 8.7 C 0 km/h
2007 06-05-2020 23:10:00 8.6 C 6.44 g/m*3 8.6 C 0 km/h
2008 06-05-2020 23:15:00 8.4 C 6.36 g/m*3 8.4 C 0 km/h
2009 06-05-2020 23:20:00 8.2 C 6.36 g/m*3 8.2 C 0 km/h
2010 06-05-2020 23:25:00 8.1 C 6.41 g/m*3 8.1 C 0 km/h
2011 06-05-2020 23:30:00 7.9 C 6.32 g/m*3 7.9 C 0 km/h
2012 06-05-2020 23:35:00 7.8 C 6.37 g/m*3 7.8 C 0 km/h
2013 06-05-2020 23:40:00 7.7 C 6.32 g/m*3 7.7 C 0 km/h
2014 06-05-2020 23:45:00 7.6 C 6.28 g/m*3 7.6 C 0 km/h
2015 06-05-2020 23:50:00 7.4 C 6.2 g/m*3 7.4 C 0 km/h
2016 06-05-2020 23:55:00 7.3 C 6.16 g/m*3 7.3 C 0 km/h

Legende:
   Min
   Max


Maximal/Minimal-Werte vom 30.04.2020 - 06.05.2020

Sensor Min Max Avg
Temp
(Aussen-T/F)
2 °C
06-05-2020  06:30:00
20.4 °C
06-05-2020  18:45:00
10.8 °C
Abs-Feuchte
(Aussen-T/F)
4.31 g/m*3
06-05-2020  14:35:00
10.67 g/m*3
04-05-2020  10:55:00
7.54 g/m*3
Windchill
(Aussen-T/F)
2 C
06-05-2020  06:30:00
20.4 C
06-05-2020  18:45:00
10.59 C

Die Daten stammen von einer Davis Vantage Pro 2 Wetter-Station und werden unter Linux mit der Software wview2wettercgi und aufbereitet. Alle Angaben erfolgen ohne Gewähr für ihre Vollständigkeit oder Richtigkeit.
Kontakt: Rainer Krienke krienke@uni-koblenz.de . Meine Webseiten an der Uni Koblenz oder privat.
Version: $Revision: 0.78 $